GFSGL_850_spd_000.txt.gz
Wind_Speed
23 20 18 16 13 11 8 6 7 10 13 15 17 16 17 19 22 24 25 27 28 29 30 32 34 36 39 37 30 25 25 27 35 47 43 44 42 43 45 40 37 37 33
20 18 16 14 11 9 7 7 8 11 14 15 15 16 18 21 23 25 27 27 29 31 31 32 34 37 38 32 26 25 28 30 32 35 44 46 46 44 36 39 45 46 41
19 17 15 12 10 8 7 8 10 12 14 14 15 18 20 23 25 26 27 29 30 30 31 33 36 37 35 28 26 28 28 27 31 34 43 44 49 38 37 46 44 44 43
17 15 13 10 9 7 7 8 10 12 13 13 16 19 22 23 25 28 29 30 30 30 31 34 34 33 30 28 27 27 32 38 38 39 38 42 34 42 40 41 46 42 46
15 14 11 10 8 7 7 8 11 11 12 15 19 21 22 25 27 29 29 29 30 31 33 33 32 30 28 25 26 32 34 37 38 34 43 37 32 42 38 41 42 45 42
14 12 11 9 7 7 8 9 10 11 13 17 20 23 24 26 28 28 28 29 31 31 31 29 30 31 29 27 29 30 30 36 40 40 32 41 40 39 42 42 41 30 51
12 11 10 7 7 7 9 10 10 12 16 19 21 24 26 28 29 29 27 28 29 30 30 31 30 29 28 33 33 33 36 36 30 33 36 37 39 41 39 41 44 41 41
11 10 8 6 6 8 9 9 10 14 18 21 23 25 28 29 28 29 29 28 29 28 25 26 29 31 34 31 35 38 35 33 41 36 33 36 38 40 42 39 40 42 40
11 8 6 5 7 8 8 9 13 17 20 23 25 27 29 28 28 28 25 28 28 27 25 26 29 34 32 31 36 32 38 42 37 30 30 34 37 32 31 33 37 37 38
9 6 4 6 7 7 8 11 16 20 22 25 27 27 27 27 27 26 23 25 28 29 31 32 34 32 32 30 32 38 42 36 35 36 41 36 30 31 28 28 32 35 37
6 4 5 6 6 7 10 14 19 22 24 27 28 27 27 28 27 24 20 23 28 31 33 35 39 33 26 35 32 32 29 33 34 35 31 34 35 34 31 29 29 30 36
4 4 5 5 6 9 12 17 20 24 27 28 29 29 28 28 25 22 21 23 24 29 31 36 31 29 32 31 27 25 27 29 28 32 33 34 35 35 34 31 29 27 26
3 4 4 5 7 11 16 19 22 25 27 28 28 29 30 28 26 23 26 24 26 28 31 29 32 30 29 28 26 25 27 30 30 33 34 34 34 34 34 34 31 28 28
4 3 4 6 10 13 16 20 23 25 26 26 27 28 28 28 26 27 28 29 30 31 31 34 35 29 27 27 28 30 31 29 28 31 32 33 34 34 34 32 33 31 33
2 3 6 9 13 16 18 21 23 23 22 22 23 23 26 27 26 26 26 29 29 31 30 32 29 31 32 31 31 32 33 31 32 31 31 34 34 34 34 31 31 30 31
3 5 8 12 15 18 20 21 20 22 22 20 20 20 22 21 24 24 25 27 29 25 26 26 29 31 31 32 33 36 34 32 31 30 31 33 34 34 34 33 30 29 30
4 8 11 14 17 20 21 23 25 24 22 22 21 21 20 22 22 23 26 27 26 21 24 26 28 30 31 32 34 34 35 33 30 29 31 33 33 33 33 32 31 29 28
7 10 12 16 18 20 20 21 23 25 27 27 23 22 23 22 21 23 26 25 26 24 24 26 29 30 30 32 34 34 33 32 29 30 31 32 33 33 32 30 29 27 26
9 11 14 17 18 18 19 21 22 24 26 27 27 26 24 23 22 28 23 24 24 26 28 28 28 29 30 32 33 32 31 30 30 29 30 33 32 31 29 27 26 23 20
10 13 16 17 17 18 20 22 23 24 25 25 26 28 26 28 30 28 26 25 25 27 27 28 28 29 31 32 31 30 30 29 28 28 30 33 32 29 27 25 23 20 18
12 14 16 17 18 19 21 22 23 23 23 24 25 26 21 24 28 27 26 26 26 27 28 28 28 30 32 31 29 30 29 28 26 27 32 33 29 27 23 22 18 15 15
13 16 17 18 19 20 21 21 21 21 22 24 26 26 23 26 26 26 26 26 26 26 26 26 28 32 31 29 29 29 27 25 25 30 33 30 26 24 21 18 15 12 13
15 17 18 18 20 21 21 21 21 22 23 24 25 28 27 26 26 25 26 26 26 26 24 25 28 32 28 27 25 24 25 25 28 31 31 27 23 20 18 13 13 13 13
17 18 19 19 20 21 21 21 21 21 23 25 27 27 26 26 25 25 25 25 26 24 22 25 28 31 29 24 22 22 23 25 26 29 25 19 16 14 14 9 15 14 10
18 18 19 20 21 21 21 21 21 22 25 27 27 27 26 25 24 25 24 25 25 23 24 24 29 30 26 21 20 22 23 24 24 20 13 14 13 12 12 10 12 13 12
18 19 20 21 21 21 21 21 22 24 26 27 27 26 25 24 25 24 23 24 23 22 24 25 29 27 22 19 21 23 25 26 18 12 13 15 12 11 11 10 9 11 13

GFSGL_850_spd_003.txt.gz
Wind_Speed
27 25 23 21 18 16 13 11 10 9 11 13 15 17 18 19 21 22 23 24 25 27 28 29 31 32 34 35 34 30 27 26 35 48 44 44 49 43 41 39 35 32 37
26 24 21 18 16 14 12 10 10 10 12 14 16 17 18 20 22 23 24 25 27 29 30 30 32 33 34 34 34 30 28 28 29 37 48 49 44 43 47 43 32 45 39
23 21 19 16 14 12 11 10 10 11 13 15 16 17 19 21 22 24 26 27 28 29 30 32 32 32 33 34 33 32 30 28 33 39 44 45 41 45 45 33 48 46 39
20 17 15 14 12 11 10 10 10 12 14 15 16 18 21 22 24 26 27 28 30 30 31 30 30 28 30 31 33 32 31 37 39 41 41 38 46 39 37 39 46 40 42
17 15 14 13 12 11 10 10 11 13 15 16 17 19 21 24 26 27 28 29 31 32 31 30 29 29 28 26 28 32 35 37 39 36 41 36 37 38 41 42 41 44 40
15 14 13 12 11 10 9 10 12 14 14 15 19 21 24 26 28 29 27 30 31 30 31 30 27 26 25 25 29 29 29 34 38 41 32 39 46 40 41 41 40 43 45
14 12 12 12 10 9 9 12 13 13 14 17 20 24 26 28 28 28 26 28 29 28 27 26 24 26 27 33 30 33 32 24 25 33 40 39 40 41 40 43 43 41 43
13 13 12 10 8 8 11 11 11 13 16 20 23 26 28 28 28 28 24 27 27 26 25 23 26 28 32 30 35 32 36 43 45 35 31 36 38 40 41 39 40 42 43
13 12 9 7 8 9 10 11 13 15 19 22 25 27 28 28 27 26 23 26 26 28 26 27 29 29 32 30 32 39 41 43 32 33 30 35 38 32 29 32 36 38 40
12 9 7 8 7 9 10 12 15 18 21 24 25 26 26 26 26 24 21 23 28 31 31 32 33 29 29 28 35 36 39 32 37 37 41 33 28 29 28 28 32 36 38
10 8 6 7 8 9 11 14 18 21 23 25 25 25 25 26 26 23 20 23 27 30 34 34 36 30 31 33 30 31 28 32 36 35 31 32 33 33 31 30 30 32 37
8 6 6 7 8 10 12 16 19 22 24 25 26 26 26 26 24 21 20 22 23 29 31 34 34 32 33 30 26 24 26 28 29 30 32 34 34 35 33 32 30 30 29
6 5 5 6 9 12 15 18 20 22 23 25 26 28 29 28 25 20 23 23 25 27 30 32 35 32 30 27 23 24 25 29 29 30 32 32 34 34 34 35 33 31 31
5 4 5 7 10 13 16 18 20 21 23 25 27 28 28 28 26 24 28 27 28 30 33 33 34 28 25 24 25 27 29 28 26 29 31 31 33 35 35 34 35 34 35
5 5 6 9 12 14 16 18 19 20 22 23 23 24 26 27 24 24 24 27 29 30 29 31 28 28 29 27 29 31 31 30 30 29 30 32 34 36 36 33 33 33 32
4 5 8 10 12 15 17 18 18 20 22 21 22 22 23 21 23 23 24 26 27 25 25 26 27 28 28 29 32 34 33 31 30 29 29 31 35 36 35 33 31 32 31
4 6 8 11 14 16 18 20 24 23 23 23 23 23 21 22 22 22 24 25 26 21 23 25 27 28 28 30 33 34 34 32 31 29 29 32 34 33 33 33 33 32 31
5 7 10 13 15 17 18 21 23 25 28 27 23 23 23 22 21 21 24 24 25 22 24 26 28 28 29 32 33 33 32 31 29 28 29 32 33 32 32 32 31 29 29
6 9 12 14 16 18 20 22 23 24 26 26 27 25 24 23 21 26 24 23 24 25 26 27 26 27 30 32 32 31 32 32 30 28 30 33 32 31 31 29 29 26 23
8 11 14 16 18 19 21 23 24 25 25 25 26 27 26 26 29 27 25 24 24 25 26 27 25 27 31 32 31 31 31 29 27 28 32 34 31 29 29 28 26 25 22
10 13 16 18 19 20 22 23 24 24 24 25 25 26 21 23 26 26 25 25 25 26 26 25 26 28 32 32 31 30 29 28 28 31 33 31 30 27 24 24 22 21 20
13 16 18 19 19 21 22 23 23 23 24 25 26 26 25 25 25 26 25 25 25 24 24 25 26 29 32 31 29 27 28 29 29 30 31 28 26 22 23 21 20 20 17
15 17 18 19 21 22 22 22 22 23 24 24 26 28 27 27 26 25 25 25 25 24 21 23 25 30 30 27 24 26 28 28 28 28 26 23 22 21 21 17 20 17 13
16 18 19 21 22 23 22 23 23 22 24 25 27 27 28 27 26 25 24 24 24 22 21 23 26 30 28 24 22 23 26 26 26 25 23 23 19 17 16 14 17 15 12
18 19 21 22 22 22 23 23 23 25 26 27 28 28 28 27 24 24 23 23 23 21 22 22 27 29 25 21 22 23 24 26 18 18 17 19 15 14 14 13 13 14 12
19 20 21 21 21 22 23 24 25 26 27 28 27 28 27 24 23 23 23 23 21 21 22 24 27 25 20 19 22 22 25 23 17 16 15 16 15 14 13 12 12 12 11

GFSGL_850_spd_006.txt.gz
Wind_Speed
27 26 24 23 21 18 16 14 13 12 11 12 15 17 18 19 20 21 22 23 25 27 28 30 31 30 30 29 29 29 29 29 36 51 45 45 49 43 41 40 41 36 35
27 24 22 20 19 16 15 14 13 12 12 14 16 18 19 19 21 22 24 26 28 29 30 31 32 31 30 29 27 29 30 29 32 41 46 49 45 45 44 45 43 37 43
26 23 21 19 17 16 14 13 12 12 13 15 17 18 19 20 22 24 26 28 29 30 31 32 32 32 31 29 28 29 29 30 31 36 45 46 46 41 44 39 44 41 38
23 21 18 17 16 14 13 12 11 12 14 15 17 18 20 21 23 26 28 29 30 30 30 31 30 28 26 24 26 26 29 34 35 38 42 43 37 34 41 41 43 39 41
20 18 17 16 14 13 12 11 11 12 14 16 17 18 21 23 26 28 28 29 30 31 30 28 26 23 21 21 24 30 32 32 38 37 31 35 43 41 40 43 42 44 44
18 16 15 15 14 12 11 10 11 12 14 16 17 20 22 25 27 28 29 27 30 30 29 26 24 24 26 26 30 25 28 29 29 40 40 40 40 42 44 42 41 45 48
16 15 15 13 12 10 10 10 11 12 14 16 19 22 25 27 28 29 27 26 28 27 26 27 26 27 29 31 28 34 23 34 34 35 38 37 41 41 41 47 45 44 44
17 15 13 11 10 9 9 10 11 13 15 18 21 24 27 28 28 28 27 25 25 24 26 26 28 32 29 30 33 34 39 42 40 31 31 35 36 40 38 38 39 42 45
15 13 11 10 9 8 8 10 12 14 17 20 23 26 28 27 28 28 25 24 24 26 26 28 32 28 32 30 32 38 40 42 31 32 30 36 36 31 28 31 36 39 42
14 12 10 9 7 7 9 11 13 16 19 23 24 25 25 27 28 26 22 22 26 28 28 32 31 29 30 28 33 36 39 34 36 37 40 34 29 27 29 28 32 36 38
13 12 9 5 5 8 9 11 15 18 21 23 23 24 25 26 27 24 21 22 26 28 32 33 34 32 29 31 28 30 28 31 35 36 33 33 32 32 32 32 31 31 36
12 8 5 4 6 7 10 13 17 20 21 23 24 25 25 26 26 24 20 21 23 27 31 33 34 31 31 28 26 24 25 27 30 30 32 34 33 34 35 34 32 30 30
8 5 3 4 6 9 12 15 17 20 22 23 25 27 28 28 26 23 23 25 25 26 30 31 34 32 31 28 24 23 25 28 28 30 33 32 32 35 37 35 32 31 32
5 3 3 5 8 11 13 16 18 20 22 23 25 27 28 28 27 25 28 27 27 30 32 34 33 29 25 24 24 26 27 28 25 29 31 31 33 37 36 33 35 35 36
4 3 4 6 9 12 14 17 18 18 20 22 23 25 26 26 24 23 23 25 27 29 28 30 29 28 28 27 28 30 30 29 29 29 30 31 34 36 35 33 33 34 33
2 3 5 8 11 14 16 16 15 18 20 21 21 21 22 21 21 21 22 24 25 25 25 27 27 27 28 29 32 33 31 30 30 30 29 31 35 36 35 34 32 32 32
3 5 7 10 13 15 16 18 21 20 21 22 22 22 21 23 22 21 23 24 25 24 24 25 26 27 28 30 33 33 33 31 31 29 29 32 35 33 33 33 32 32 31
5 7 9 11 13 15 17 19 21 24 26 26 22 22 23 22 21 20 24 26 25 23 24 25 27 26 27 32 34 34 33 32 30 29 31 33 33 32 32 31 30 30 30
6 8 11 13 14 16 18 19 22 23 24 25 25 24 24 23 21 24 24 24 25 25 25 26 25 26 28 33 34 33 31 31 30 31 33 33 32 31 29 29 28 26 26
8 10 13 14 16 17 19 21 22 23 23 24 25 26 25 26 28 26 26 24 24 25 26 26 25 25 29 32 33 31 30 30 31 32 32 31 29 27 27 28 26 28 26
9 11 14 16 18 19 21 22 23 23 23 24 23 23 21 23 26 26 26 24 25 25 25 25 25 26 30 32 31 29 29 30 31 31 30 28 27 26 24 25 26 27 21
11 14 17 18 19 21 22 22 22 22 23 23 24 24 24 24 26 26 24 24 24 24 23 24 25 27 31 31 29 28 30 31 30 28 27 28 27 22 23 23 24 23 19
14 16 18 19 21 22 22 22 22 22 23 23 24 26 26 27 26 26 24 24 24 23 21 22 24 28 29 28 25 28 30 30 28 23 26 27 24 21 21 22 21 21 17
16 18 20 22 22 22 22 22 22 22 23 25 26 27 27 27 26 23 23 23 23 21 20 21 25 28 28 24 22 25 26 26 23 25 26 25 22 18 16 16 18 18 15
17 20 22 21 21 22 22 22 23 24 25 26 27 27 26 25 23 22 22 22 21 20 19 22 25 27 26 22 22 23 24 22 20 20 17 18 16 14 16 15 16 15 12
20 21 20 20 21 21 22 24 24 25 26 26 26 25 24 22 21 21 21 20 20 19 20 23 25 25 23 21 21 22 23 20 20 17 16 15 13 14 16 16 14 12 11

GFSGL_850_spd_009.txt.gz
Wind_Speed
31 29 29 29 29 26 22 18 15 13 11 10 11 13 15 16 18 18 18 19 20 22 24 26 27 28 29 29 28 27 29 29 36 50 38 38 32 32 33 31 30 32 32
30 29 28 29 27 24 20 17 14 13 11 10 12 13 15 17 18 18 19 21 23 25 26 28 29 29 29 27 26 26 27 27 30 41 40 39 38 35 33 33 33 35 38
29 29 28 27 25 21 18 16 14 11 10 11 12 13 16 17 19 19 21 23 25 26 27 29 29 28 27 25 23 24 24 26 27 33 42 43 38 32 35 41 35 36 33
29 28 26 24 21 19 16 14 11 10 10 11 12 15 17 18 19 21 23 25 26 27 28 28 26 25 24 23 23 23 23 28 30 34 35 31 40 43 36 38 39 37 37
29 27 24 22 19 17 15 12 10 8 9 11 13 16 17 18 21 23 25 25 27 28 28 26 24 24 22 20 22 26 28 27 34 27 36 38 38 38 36 37 39 41 43
26 24 22 20 18 15 12 9 8 8 9 12 14 16 18 20 22 24 25 25 26 26 27 25 25 24 24 24 24 22 22 30 29 34 37 36 35 33 37 37 40 42 46
24 22 20 18 16 12 9 7 6 8 10 13 15 17 19 22 23 24 25 25 25 25 25 25 25 25 26 25 26 27 26 31 33 34 35 31 35 35 38 44 42 40 41
22 21 19 15 12 9 7 5 6 9 11 13 16 18 21 23 24 25 25 24 24 23 22 23 25 28 25 27 31 30 34 36 31 30 27 33 33 37 36 33 35 38 41
21 18 15 12 9 6 4 5 7 9 12 14 17 20 21 22 24 24 24 23 22 23 24 23 27 24 27 27 28 35 31 31 30 29 27 30 35 29 25 26 32 34 40
18 16 13 10 6 3 4 6 8 10 13 16 18 19 21 22 23 23 21 20 22 24 23 23 26 26 27 25 30 30 31 32 32 31 35 33 27 24 24 25 31 33 34
16 13 10 6 3 3 5 7 9 12 14 16 17 18 20 22 23 23 21 18 21 24 24 24 27 28 26 28 27 27 27 28 30 33 31 29 27 27 28 30 30 29 32
13 10 7 3 2 4 6 8 11 13 15 17 18 19 21 23 24 23 19 18 20 23 25 28 30 28 28 27 25 23 23 25 29 26 26 28 30 29 32 32 29 27 27
11 7 4 2 2 4 7 9 12 14 16 18 20 23 25 25 24 21 20 21 21 23 26 26 28 29 29 26 22 22 24 25 23 23 27 31 30 32 35 34 31 30 31
7 4 3 1 3 5 9 11 13 14 16 19 22 24 25 25 24 23 24 24 26 27 27 31 29 26 23 21 22 25 26 25 23 26 29 29 29 34 35 33 34 33 35
5 3 2 2 4 7 9 12 13 15 18 20 22 22 23 23 21 21 21 23 25 25 26 27 27 25 24 24 26 28 28 27 28 28 29 28 31 35 34 32 31 31 32
3 2 1 4 6 9 10 11 13 15 17 19 19 20 21 20 20 19 20 23 22 23 24 25 25 24 24 26 29 32 30 29 28 28 27 30 34 35 34 31 29 30 31
2 1 3 6 9 11 13 15 17 16 19 20 20 20 19 21 21 19 21 22 24 23 23 23 23 24 25 26 30 33 33 29 28 27 30 32 32 32 30 29 29 29 31
0 3 6 8 11 13 14 16 18 21 24 25 20 20 20 20 21 18 23 24 25 21 22 23 23 23 24 27 31 33 31 29 29 30 32 31 30 30 29 28 28 29 31
3 6 8 11 13 14 15 17 19 21 23 23 23 21 21 20 19 22 22 23 23 23 23 23 22 23 25 29 32 32 29 29 30 32 31 29 29 29 28 27 27 28 27
6 8 10 12 14 15 17 19 21 22 22 22 23 23 24 23 24 24 23 23 22 23 23 24 22 23 25 30 31 29 28 30 31 31 28 28 30 29 27 26 26 28 26
7 10 12 14 15 17 19 20 21 21 22 22 22 22 21 21 24 24 24 22 22 23 24 23 23 24 27 30 29 28 29 30 30 28 26 28 30 30 24 24 25 25 24
9 12 14 15 17 19 20 20 20 21 21 22 23 22 22 23 24 24 23 21 22 22 22 22 22 24 28 29 28 27 29 30 29 27 28 29 29 25 23 23 23 23 23
11 13 15 17 18 19 19 19 20 21 22 22 23 24 24 24 23 23 21 21 22 21 18 19 22 25 26 26 24 26 28 28 27 27 28 29 29 24 22 22 21 21 20
13 15 17 18 18 19 19 20 20 21 22 23 24 24 24 23 22 21 21 21 20 19 18 19 23 25 26 24 21 22 24 25 25 27 28 28 26 20 21 20 18 18 16
14 17 18 18 19 20 20 20 21 22 22 23 23 22 22 22 21 20 20 20 19 18 17 20 23 24 24 22 21 22 22 22 21 22 24 23 20 18 19 17 16 15 15
17 18 18 18 19 19 20 21 21 22 21 21 21 22 21 21 20 19 19 19 20 18 19 21 21 23 22 21 21 21 22 20 21 21 21 19 17 16 18 16 13 12 14

GFSGL_850_spd_012.txt.gz
Wind_Speed
37 36 35 32 28 30 31 29 25 20 17 14 11 10 10 11 13 14 15 16 17 19 19 21 23 23 22 20 20 20 21 22 32 38 30 29 30 29 29 28 29 33 37
37 35 30 32 31 32 30 26 21 18 15 13 10 9 10 12 13 15 16 17 19 20 21 23 23 22 23 20 19 19 21 22 28 38 35 34 32 30 29 32 36 35 32
36 31 31 31 31 30 27 23 20 16 14 11 9 9 11 13 15 16 16 18 20 21 21 22 22 22 21 18 19 20 21 24 27 33 41 38 36 30 37 40 29 31 29
33 33 31 30 29 27 24 21 17 14 11 9 9 10 12 14 15 17 18 19 19 20 22 21 21 21 20 20 21 22 24 27 30 34 37 38 33 38 36 35 33 32 34
33 31 31 30 27 24 22 18 15 11 9 8 9 11 13 14 16 17 18 18 19 20 20 20 20 21 24 22 21 23 25 29 31 35 29 35 39 36 35 33 36 38 41
31 31 29 27 25 22 19 15 11 9 8 9 10 12 13 15 17 19 21 20 19 18 19 20 20 21 20 22 23 24 25 29 35 29 37 36 36 34 33 36 38 40 41
30 29 27 25 22 19 14 11 8 7 8 9 11 13 14 16 19 20 21 21 19 19 20 19 20 19 22 23 23 25 29 25 27 35 33 32 34 32 37 38 42 38 39
28 26 24 22 18 15 11 8 6 7 8 10 11 13 16 18 19 20 22 20 19 18 18 19 20 21 21 23 27 31 27 31 26 26 28 31 35 33 35 37 36 38 39
26 24 20 16 14 11 8 6 6 7 9 10 12 15 16 18 20 21 23 20 16 17 18 20 21 22 22 26 27 32 29 27 25 25 28 28 32 32 27 28 31 32 39
23 20 17 14 11 8 7 6 6 6 9 11 14 15 17 18 20 22 23 17 17 18 19 20 21 21 25 24 28 28 30 27 27 31 28 27 24 23 21 20 27 31 33
20 17 15 12 10 7 5 4 5 7 10 12 14 15 17 19 21 22 21 17 16 19 20 21 20 23 25 28 26 25 24 27 29 26 24 23 21 21 21 23 27 27 31
17 15 13 11 7 4 2 3 6 9 11 12 14 15 17 20 22 22 19 16 17 19 21 21 24 26 28 26 23 21 22 24 21 21 22 23 25 26 27 30 30 28 29
16 14 10 7 5 2 2 5 8 10 11 13 16 18 19 20 20 19 17 18 19 20 21 24 26 25 25 22 20 20 20 18 19 21 23 27 27 28 32 35 33 31 31
14 11 8 5 2 1 4 6 9 11 13 15 16 18 19 19 16 15 18 18 19 20 23 25 23 23 19 19 18 17 18 18 20 22 23 26 26 29 34 33 32 33 33
11 8 6 3 1 3 6 8 10 12 14 16 17 19 17 16 15 19 20 20 21 23 25 20 18 18 18 17 18 19 20 20 22 23 26 28 29 31 33 31 30 30 30
8 6 4 1 3 5 8 10 12 13 15 17 19 19 18 17 18 18 18 20 21 22 20 16 17 16 17 19 20 24 26 26 25 27 28 30 32 32 32 31 28 29 31
6 4 2 2 5 7 9 11 14 16 19 19 18 18 17 19 19 17 18 21 21 20 14 15 16 17 18 19 22 27 30 28 28 29 31 32 31 30 31 31 29 30 32
3 2 2 4 7 9 11 13 16 19 22 21 18 18 17 19 20 16 20 22 18 15 15 16 17 18 19 22 27 30 31 28 30 31 33 30 29 31 32 31 30 30 31
2 3 4 7 9 11 13 15 18 19 19 19 20 19 20 20 19 19 21 19 19 18 17 17 18 19 22 25 29 30 29 29 31 32 31 29 30 32 34 30 30 30 28
2 4 6 9 10 12 15 17 18 18 18 18 18 19 21 20 18 20 20 19 18 18 19 20 20 21 23 27 29 30 29 30 31 31 29 30 31 33 33 30 29 30 30
4 6 9 10 12 15 17 17 17 18 18 19 20 20 21 18 19 19 20 19 18 19 20 21 20 21 24 27 29 29 28 29 30 30 30 30 32 33 29 28 28 28 27
6 8 10 12 15 16 16 17 18 18 19 19 20 21 21 19 18 19 19 19 19 20 20 20 20 23 25 28 29 28 28 29 29 28 30 31 32 32 28 29 28 25 23
8 10 12 14 15 15 16 17 18 18 19 20 20 20 20 20 19 19 19 19 19 18 18 18 21 23 24 26 26 26 28 27 27 27 30 34 35 33 27 29 24 21 22
9 12 14 15 15 16 16 17 18 19 19 19 19 20 20 20 20 19 18 19 18 18 17 19 22 23 25 25 24 23 23 25 25 28 31 33 32 27 23 21 21 19 21
12 14 14 14 15 16 17 18 19 19 19 18 19 20 20 19 18 18 18 18 19 18 17 19 21 23 25 25 23 20 21 21 25 27 27 28 24 20 21 20 18 17 19
14 14 14 16 17 17 18 19 19 19 18 17 18 19 18 18 17 17 18 20 20 18 18 19 21 23 24 22 20 20 20 24 26 25 23 20 17 18 20 17 16 17 18

GFSGL_850_spd_015.txt.gz
Wind_Speed
33 35 35 33 32 30 32 31 28 24 22 19 15 11 9 9 10 12 13 14 16 15 16 18 21 22 22 22 22 22 23 23 30 34 30 29 30 31 31 31 32 37 39
32 33 36 33 32 31 32 29 26 23 21 17 13 10 9 9 11 13 14 15 16 17 18 20 22 18 22 22 20 20 23 24 28 34 33 33 30 34 31 36 33 37 35
33 35 37 34 32 32 30 26 25 22 18 14 11 9 9 11 13 14 16 16 17 18 19 20 21 20 21 20 20 22 24 26 28 32 36 34 36 34 31 35 39 32 33
33 35 37 35 33 31 28 26 23 18 14 11 9 8 10 12 14 15 16 17 18 19 20 20 21 22 22 20 24 22 23 27 29 32 36 40 36 28 34 34 35 34 36
36 35 33 33 30 28 26 22 18 15 12 9 8 8 10 13 15 16 18 19 20 19 20 20 19 20 25 23 21 24 27 30 32 36 38 37 35 37 33 32 34 36 44
35 35 34 31 28 25 21 17 14 12 9 7 7 9 12 14 15 17 19 20 20 19 20 21 21 22 19 20 22 23 25 28 33 37 36 36 39 33 34 34 42 38 40
37 33 31 29 25 21 17 14 12 10 7 6 7 10 12 14 16 18 19 20 21 19 22 22 20 18 20 21 22 23 28 28 26 33 36 31 34 39 40 40 38 40 44
30 31 29 26 21 17 16 12 10 7 5 6 9 11 13 15 16 18 20 21 20 19 19 18 19 20 21 22 27 30 33 32 28 28 30 34 36 37 36 36 39 41 40
27 25 21 18 18 15 13 11 7 4 5 7 9 11 13 12 18 18 21 22 19 17 16 18 19 21 21 22 27 32 33 32 31 26 28 30 31 31 29 28 33 35 40
25 22 20 17 15 13 10 6 3 4 5 8 10 12 13 14 17 20 22 19 17 16 17 18 18 20 20 24 28 33 36 34 31 33 34 32 27 26 23 22 28 33 39
22 21 19 16 13 9 6 3 2 4 6 8 10 11 14 16 18 20 20 18 15 18 19 21 22 20 24 27 28 29 29 27 30 32 28 29 29 27 26 28 27 29 36
20 18 15 12 9 6 3 1 3 5 6 8 10 11 11 13 16 18 18 14 16 19 22 24 24 26 27 27 26 22 22 25 25 25 29 31 31 30 29 29 31 32 32
15 13 11 9 5 3 1 2 4 6 8 9 11 12 13 15 16 14 13 16 17 20 21 23 26 26 24 24 20 21 20 22 24 28 31 31 31 32 33 33 33 32 32
13 11 8 5 3 1 1 3 6 7 8 10 12 14 17 17 16 15 20 20 18 21 25 28 28 21 19 20 20 19 20 21 23 27 28 31 33 34 34 32 33 34 35
10 8 6 4 1 1 3 5 7 9 10 13 15 18 19 19 18 21 20 21 21 25 26 27 20 20 22 21 21 21 21 24 25 26 30 32 34 34 32 32 34 35 33
8 6 4 2 0 2 5 8 9 10 13 16 17 19 19 19 19 21 20 19 22 22 23 19 18 19 20 21 22 24 26 28 28 28 30 32 33 32 34 34 34 33 33
6 5 3 2 1 4 6 8 9 14 18 20 22 19 18 19 20 21 19 19 22 17 17 17 19 19 20 21 22 26 30 30 28 29 31 33 32 32 33 36 35 34 35
5 4 2 1 3 6 8 11 13 16 18 17 16 18 18 19 21 18 18 20 17 16 16 17 20 19 20 22 24 29 31 30 28 30 32 32 31 33 35 36 35 35 35
3 1 1 4 6 8 11 14 16 16 16 17 18 16 16 20 19 15 14 16 18 18 17 18 19 19 21 22 27 30 31 30 29 31 32 32 32 34 36 36 34 34 32
1 2 4 6 9 11 14 15 14 15 16 16 17 17 19 22 22 20 18 18 17 17 18 20 20 19 21 24 28 30 31 30 30 31 32 31 32 36 37 36 33 35 34
2 5 7 9 11 14 15 14 15 16 16 16 17 17 16 19 19 18 19 18 18 18 19 20 19 20 22 26 28 30 30 30 30 31 30 30 34 37 35 32 33 32 32
4 7 9 11 14 15 14 15 16 16 15 16 18 18 17 17 17 18 18 18 18 18 18 19 19 21 24 27 29 30 30 29 29 29 32 36 35 35 33 30 30 31 27
6 9 11 13 14 14 15 15 15 15 16 17 16 17 17 17 18 18 18 18 18 17 17 18 20 22 24 26 27 26 27 27 27 32 34 34 34 32 29 27 26 25 25
9 11 13 14 14 15 15 15 15 16 16 16 16 16 18 18 18 17 16 17 18 17 17 18 20 23 25 26 24 23 22 24 29 32 34 33 27 22 24 23 20 22 23
11 13 14 14 15 16 16 16 16 16 17 17 16 17 17 17 16 15 16 17 18 18 18 20 21 22 24 24 22 18 21 21 25 28 26 22 18 19 21 20 21 21 22
13 14 14 15 17 17 17 18 18 18 18 17 16 17 17 16 14 14 15 17 19 19 19 20 21 22 23 22 17 16 19 22 24 23 21 21 20 20 21 21 21 21 22

GFSGL_850_spd_018.txt.gz
Wind_Speed
43 37 39 38 32 33 36 36 33 31 28 26 24 20 15 11 10 10 11 13 14 16 16 18 20 21 22 22 23 24 24 24 31 39 36 33 31 31 32 34 35 34 37
38 39 37 33 34 36 36 35 32 28 26 25 21 16 13 10 9 11 12 14 16 16 17 18 20 22 23 24 25 24 23 26 28 35 34 33 32 37 37 34 33 33 42
35 36 36 34 36 38 37 34 30 27 25 22 17 13 10 8 10 11 13 14 15 16 17 20 22 23 25 25 25 25 27 29 26 31 38 36 37 35 34 36 38 41 30
34 34 37 38 39 37 34 33 29 25 21 19 15 11 8 8 11 13 14 15 16 17 18 20 22 24 24 25 27 28 25 27 29 32 36 38 36 36 31 38 38 34 45
31 34 37 38 38 36 34 29 25 24 20 15 10 8 7 9 12 14 15 16 17 18 19 19 21 22 23 24 20 22 25 26 30 32 35 37 31 41 35 32 38 47 43
31 37 38 37 36 34 31 27 23 19 15 11 8 6 8 11 12 15 16 16 17 19 20 20 22 22 22 17 19 20 21 24 29 34 35 39 38 33 35 43 42 43 43
37 38 38 37 32 25 28 23 21 16 10 6 5 6 9 14 13 15 16 17 18 19 19 20 22 21 21 22 24 22 26 26 27 31 35 33 36 38 40 41 41 38 42
38 36 30 28 25 25 21 19 14 10 7 4 4 8 11 12 14 14 16 18 19 18 17 17 18 21 20 21 24 25 29 34 34 31 30 33 34 35 35 36 36 39 42
27 28 27 28 27 21 17 15 11 7 4 4 7 9 9 11 15 16 18 19 19 18 16 17 18 17 20 20 23 29 35 36 36 31 26 28 29 29 26 29 33 35 42
30 28 26 21 20 19 14 10 7 3 3 5 6 7 9 10 14 18 20 21 21 18 18 18 18 19 19 20 25 30 35 37 30 30 33 32 26 27 26 24 27 34 41
22 22 22 21 17 13 10 7 3 2 2 3 5 7 10 13 15 18 21 21 18 19 22 21 23 21 20 24 25 28 30 25 29 32 30 29 28 27 28 28 29 31 36
27 25 22 18 14 10 6 3 2 1 2 4 6 8 8 11 15 18 15 12 15 19 21 23 22 23 25 24 23 22 21 23 27 28 29 31 32 32 32 33 31 29 29
24 21 18 13 9 6 5 4 2 1 3 5 7 10 12 15 17 16 16 18 21 18 20 21 24 24 23 20 21 19 19 22 24 27 30 30 31 33 34 33 28 30 33
17 15 12 10 9 7 4 2 2 4 6 8 11 14 16 18 18 18 20 21 21 20 23 27 27 23 17 20 21 19 20 21 24 26 28 29 32 34 33 32 35 35 38
15 13 11 9 6 4 3 4 5 7 9 12 14 16 18 18 17 17 19 21 21 20 24 25 22 20 23 22 21 21 21 25 27 27 28 31 33 33 33 33 34 36 36
11 9 7 5 4 4 5 5 7 9 12 14 15 16 15 17 17 18 20 19 18 20 21 21 21 21 22 23 23 24 24 27 28 28 28 30 33 34 35 35 35 34 36
7 7 5 4 4 5 6 7 9 11 13 15 15 17 18 17 17 20 19 18 20 17 18 20 20 21 22 22 23 25 28 29 29 28 29 31 33 33 33 37 37 36 37
5 4 3 3 4 6 7 9 11 14 15 15 14 15 14 15 19 18 16 17 20 18 18 18 20 21 21 22 23 26 29 30 29 29 32 32 31 33 37 38 37 37 37
3 2 2 4 5 7 9 11 13 14 14 16 16 16 17 19 19 18 16 17 19 19 18 19 20 20 19 21 23 26 29 30 30 30 30 31 33 36 36 37 36 35 34
1 2 4 6 7 9 12 13 13 14 15 16 16 17 18 20 21 19 18 18 18 18 18 19 18 17 19 21 24 27 29 29 28 29 30 33 34 35 36 35 34 34 34
2 3 5 7 10 12 13 13 14 15 15 16 16 17 15 17 19 19 19 18 17 18 18 18 17 17 19 22 25 28 27 26 27 30 32 33 35 35 31 30 30 32 31
4 5 7 9 12 13 13 13 14 15 16 17 17 17 16 16 18 18 18 17 16 16 16 17 17 18 20 23 25 25 25 25 28 31 34 34 34 30 29 30 31 30 29
5 7 9 12 13 13 14 14 15 16 16 16 17 17 16 17 17 17 16 15 15 15 15 15 17 18 20 22 23 22 21 24 29 30 32 35 30 28 28 29 27 28 29
7 10 12 13 13 15 15 15 16 16 16 16 17 16 16 17 17 15 14 13 14 14 14 15 18 20 21 21 21 15 18 22 26 29 29 27 23 24 24 25 26 26 27
10 12 13 14 15 16 16 16 16 16 16 17 17 16 16 16 15 13 11 12 13 14 16 17 19 19 20 22 17 12 16 19 21 22 22 23 24 24 25 26 25 26 26
12 14 14 15 16 17 17 17 17 17 17 17 15 14 15 16 14 12 11 12 14 15 17 18 19 18 19 20 12 13 16 17 19 20 22 24 24 23 24 25 24 25 28

GFSGL_850_spd_021.txt.gz
Wind_Speed
36 43 39 38 35 35 30 33 40 44 42 38 34 30 25 20 17 13 10 10 11 12 14 15 16 18 19 20 20 22 23 24 29 35 35 36 35 37 34 32 31 29 31
34 35 34 33 36 34 29 37 40 42 39 35 29 25 23 20 15 11 10 11 12 14 14 15 16 18 20 22 23 24 25 25 29 37 34 34 35 35 33 31 28 33 36
34 36 35 36 35 34 35 37 39 38 35 29 27 25 21 16 12 10 10 11 13 14 15 16 18 20 21 23 24 25 26 27 26 30 34 34 36 36 34 33 41 34 35
34 37 37 34 36 37 36 37 37 35 31 30 27 22 17 13 10 10 10 12 13 14 15 17 19 20 22 23 24 26 25 25 26 28 32 36 38 34 32 39 40 39 44
38 37 33 36 35 37 36 35 34 30 28 26 24 19 15 11 9 10 10 12 14 15 16 17 19 19 20 22 21 19 21 24 25 29 34 36 32 38 37 37 43 45 42
35 32 35 36 36 37 36 32 28 27 27 22 19 14 11 9 8 9 11 12 13 15 17 18 19 20 21 19 18 18 19 21 26 29 32 36 39 35 37 39 40 42 42
31 32 34 34 34 33 32 30 26 23 17 15 12 9 7 7 8 10 11 12 14 16 18 20 20 19 19 21 20 19 21 22 23 28 34 34 34 34 35 37 37 36 39
29 31 31 32 29 26 22 21 22 19 16 10 7 8 6 7 8 10 12 13 15 17 19 20 20 19 20 18 19 22 23 27 30 32 32 32 29 29 32 34 35 36 39
29 30 27 24 24 24 23 21 18 14 11 12 8 6 5 6 9 11 13 15 17 18 18 17 17 16 18 17 19 24 29 31 32 31 25 25 25 28 24 25 29 32 39
23 26 26 29 26 24 21 17 16 13 9 5 4 4 5 6 10 13 17 18 19 17 15 18 18 18 17 17 21 26 30 33 30 27 29 30 27 22 21 23 28 32 36
26 25 24 22 19 19 19 16 12 7 7 5 3 4 7 9 11 14 17 18 17 17 20 21 21 20 18 21 21 23 26 23 27 29 30 28 25 23 25 26 28 29 33
21 21 20 18 18 16 13 12 9 6 3 2 3 6 7 10 12 14 11 10 12 19 21 21 19 21 21 21 19 19 19 22 24 25 27 28 27 27 29 29 28 26 27
22 23 22 19 16 13 10 7 5 3 2 3 4 7 9 11 14 15 15 16 18 19 18 18 19 22 22 18 18 19 19 20 22 25 27 28 26 28 31 31 28 28 30
22 20 18 14 12 9 6 3 2 0 2 4 7 9 12 14 14 14 15 17 18 18 17 21 25 21 18 18 18 15 16 18 22 25 27 27 27 29 31 30 33 34 37
16 14 11 9 7 6 4 2 0 2 4 7 9 11 12 12 13 14 16 18 18 17 19 22 19 19 19 19 17 16 17 20 23 25 27 27 29 31 31 30 33 37 37
14 13 11 8 6 4 2 0 3 5 8 11 12 12 13 15 14 14 16 16 15 16 18 18 19 17 18 19 19 19 20 22 25 26 26 27 30 31 33 34 35 35 37
10 10 8 6 4 2 2 2 4 7 10 10 10 11 11 11 12 15 15 14 17 18 17 16 16 17 18 17 18 21 24 24 26 26 26 28 30 33 35 36 36 35 36
9 8 5 4 3 3 4 6 9 10 10 10 10 11 12 13 14 15 15 15 15 13 14 15 16 17 17 17 19 22 24 26 26 25 27 29 31 33 35 35 34 35 36
6 5 3 2 3 5 7 9 10 10 11 12 12 12 13 13 14 16 14 14 15 15 15 15 15 15 15 17 19 22 24 25 24 25 28 31 32 33 33 32 33 33 34
3 2 2 3 5 7 9 10 11 11 12 13 13 14 14 15 15 16 15 15 15 14 15 15 14 14 16 18 21 23 24 22 23 27 30 31 32 30 31 32 33 35 35
0 2 4 5 8 10 11 11 12 12 13 13 14 14 12 13 15 15 15 14 14 14 15 14 14 15 17 19 22 23 22 21 23 28 30 31 31 30 30 30 32 34 35
2 4 6 8 10 11 12 12 13 13 14 14 14 13 13 13 14 14 13 12 12 13 13 14 15 16 18 20 22 22 19 21 25 27 29 31 30 32 34 32 33 34 34
4 6 8 10 12 12 12 13 14 13 14 14 14 15 14 13 14 14 12 11 11 11 12 14 16 17 18 19 20 20 17 20 24 25 31 32 35 35 34 32 31 33 32
6 8 10 12 12 14 14 14 14 14 14 14 14 14 13 13 14 12 10 10 9 9 11 13 16 18 18 19 20 12 15 18 21 24 28 31 33 32 29 29 29 31 30
8 10 12 12 13 15 15 15 15 14 14 15 14 13 12 12 12 11 9 10 10 10 11 13 15 17 18 20 17 12 14 17 19 19 25 29 28 25 26 29 30 31 30
10 12 12 14 15 15 15 15 14 14 14 13 12 11 11 12 12 10 10 10 11 11 12 14 15 17 17 19 17 13 14 17 17 20 23 26 24 27 29 29 30 28 30

GFSGL_850_spd_024.txt.gz
Wind_Speed
25 28 30 34 39 40 40 37 37 36 40 40 40 40 37 34 30 26 20 17 14 13 12 13 15 16 17 18 19 20 21 23 29 32 32 32 32 32 32 31 30 27 29
27 27 32 33 36 38 36 35 31 34 39 39 42 39 35 33 29 26 19 17 12 12 13 15 16 18 19 19 20 22 23 24 27 32 32 32 33 33 35 34 29 33 28
29 27 33 31 33 33 33 31 33 34 37 39 40 37 35 28 26 22 19 14 12 12 14 16 18 19 19 20 22 23 24 24 26 28 33 32 34 36 37 35 37 34 32
28 30 31 31 32 31 32 33 32 33 36 37 36 32 28 22 21 16 14 11 11 14 15 17 18 19 20 21 22 23 23 23 25 28 30 33 35 37 37 39 38 36 36
23 30 32 32 31 31 33 33 31 31 31 34 31 26 24 22 14 14 11 11 12 13 15 17 17 19 20 20 21 20 20 23 24 26 29 34 36 38 39 37 38 37 39
26 27 28 30 32 32 34 33 31 31 31 26 23 20 16 14 13 12 12 12 12 14 14 16 17 19 20 20 17 17 16 20 23 27 30 34 39 38 35 33 34 38 41
26 29 32 34 33 32 29 25 26 27 26 22 17 15 15 14 11 11 10 12 12 13 15 17 18 20 20 20 20 19 18 21 22 25 32 35 35 32 29 33 35 38 40
23 27 29 28 29 25 24 26 23 22 22 21 22 18 13 12 10 9 9 10 12 14 16 18 19 19 19 18 18 18 20 23 26 30 31 31 28 27 29 33 36 36 38
18 18 22 22 21 22 22 24 26 23 18 15 14 10 5 7 9 10 9 10 13 15 16 16 16 18 17 16 17 20 24 28 29 27 25 23 25 26 27 28 29 32 40
25 26 24 24 26 26 24 21 18 16 14 9 6 5 7 7 8 10 12 14 16 17 16 17 19 19 17 14 18 24 27 28 23 26 27 27 25 25 23 22 26 31 35
22 23 24 25 25 23 20 18 17 13 10 9 7 6 6 6 7 9 11 16 19 20 20 21 20 17 15 18 18 22 22 20 25 27 26 26 26 25 23 23 25 28 32
21 22 21 20 19 17 15 15 11 8 7 5 4 4 5 7 10 12 16 17 17 21 21 20 16 16 18 19 18 17 18 20 22 23 25 27 28 26 25 26 27 27 28
20 21 20 19 16 13 10 8 6 5 4 3 4 6 8 11 14 16 17 16 17 17 17 15 17 20 22 20 19 18 18 18 20 22 26 28 27 27 28 29 29 28 31
17 16 14 12 11 10 8 7 5 4 3 3 6 9 11 14 14 14 14 15 16 15 15 18 21 22 19 18 16 14 14 16 19 22 26 27 26 27 28 28 32 34 37
14 13 12 10 9 8 6 4 2 3 4 6 8 10 10 10 12 12 13 16 16 16 18 21 21 19 17 15 13 13 14 17 19 22 25 26 27 29 30 31 32 35 36
12 12 11 8 7 5 3 2 2 5 8 9 9 10 11 13 11 12 14 13 16 14 18 19 17 15 15 16 15 16 16 18 21 23 23 24 28 31 34 34 33 31 34
6 8 7 6 4 2 2 2 4 6 8 9 10 11 10 10 13 15 15 14 16 16 15 14 14 14 15 15 15 18 20 21 22 22 22 26 29 31 32 32 31 32 35
8 7 5 4 2 2 2 4 7 8 8 9 10 11 11 12 12 13 14 15 14 12 12 13 13 14 14 15 16 19 21 22 20 19 23 27 28 30 31 31 32 33 35
6 5 4 2 1 3 5 7 9 9 10 11 11 11 11 12 12 13 14 15 15 13 13 12 12 13 13 15 17 19 21 21 19 21 24 26 26 29 31 33 35 32 34
5 4 2 1 3 5 8 9 9 10 11 12 12 12 12 13 13 14 14 14 13 13 13 13 12 13 15 16 19 20 20 17 18 21 24 26 30 32 34 37 36 36 36
3 1 2 4 6 8 10 10 10 11 12 12 12 12 11 13 14 14 14 13 12 12 12 12 13 14 16 18 19 20 21 16 18 23 25 29 32 35 35 36 35 35 36
2 3 5 7 9 11 11 11 12 13 13 13 13 12 12 13 13 13 13 12 10 11 12 13 14 16 18 18 20 23 19 16 20 24 25 29 34 36 35 34 34 35 37
4 6 7 9 11 11 11 13 13 13 13 13 13 13 14 13 12 13 12 10 9 10 11 13 15 16 17 18 20 22 18 16 21 24 25 31 35 35 33 34 35 37 37
6 7 9 11 11 12 13 14 14 13 13 13 13 14 14 13 12 13 11 10 10 10 12 14 16 17 18 19 20 20 16 17 20 22 26 31 33 34 33 35 35 36 36
8 10 11 11 12 13 14 14 13 13 13 13 13 13 12 12 12 12 12 12 12 12 12 14 16 17 19 19 20 21 16 16 18 19 24 27 30 32 34 34 35 33 30
9 10 11 12 13 14 13 13 13 13 12 12 12 12 12 13 13 13 12 12 12 12 13 15 16 18 18 19 20 21 16 17 18 20 24 27 28 31 33 30 30 31 30

GFSGL_850_spd_027.txt.gz
Wind_Speed
22 26 28 29 29 29 28 32 41 43 42 38 37 41 40 40 38 35 31 28 24 18 16 15 16 15 17 19 18 19 20 21 26 29 29 29 30 31 31 31 32 31 31
20 22 24 25 26 28 30 33 37 39 37 33 34 37 41 39 36 32 30 25 21 18 15 17 18 16 19 20 20 20 20 22 26 30 31 30 31 31 32 34 33 31 30
22 22 22 22 24 26 29 32 33 34 33 32 33 39 39 37 32 30 26 21 18 15 15 16 17 19 20 20 20 20 22 23 25 28 30 30 32 33 35 36 36 35 31
25 23 22 21 23 25 27 28 31 32 32 33 33 36 35 31 28 24 19 16 11 14 16 16 19 20 20 20 20 21 22 23 23 26 29 29 32 34 34 39 40 35 33
22 19 18 19 21 24 26 27 30 31 31 31 30 32 31 28 24 19 14 10 10 14 16 17 20 19 20 20 20 20 20 21 23 24 27 31 33 35 37 38 36 34 36
15 12 12 16 21 23 26 28 30 29 26 23 26 27 25 22 19 13 11 11 10 14 16 18 18 19 20 20 19 17 18 19 21 25 27 30 34 37 37 33 31 35 40
11 11 13 16 19 23 26 27 27 24 23 25 24 22 21 18 14 12 11 12 13 15 16 16 18 19 20 20 19 18 18 19 20 22 28 32 35 34 29 31 31 35 39
9 10 14 17 19 20 20 19 21 23 24 24 22 17 14 12 11 8 8 8 12 13 14 17 18 18 18 17 18 18 18 21 23 27 30 32 29 27 29 31 35 38 38
8 8 10 11 14 17 22 22 23 23 21 19 17 16 12 10 5 3 8 8 10 13 15 16 17 17 18 17 15 18 23 26 26 26 25 25 24 26 27 29 32 32 38
17 19 18 19 23 25 24 25 23 19 17 15 13 9 4 1 3 6 8 10 13 14 15 16 18 19 15 12 17 22 26 26 22 24 25 25 25 23 24 24 26 29 32
15 15 17 20 20 20 21 19 17 14 12 9 6 5 4 4 5 6 9 14 16 18 19 19 19 17 15 15 17 21 21 19 24 26 26 24 24 25 25 24 24 27 32
20 21 22 20 18 16 15 15 14 10 8 7 4 3 3 5 7 10 12 14 15 18 19 19 20 18 16 19 20 19 19 19 22 22 24 25 26 26 25 25 26 27 29
19 19 19 19 18 14 11 11 10 8 6 5 4 4 5 8 10 12 13 13 15 17 19 20 17 19 22 21 19 18 19 19 20 22 24 25 26 27 26 27 28 30 34
18 17 16 14 13 11 9 8 6 4 2 2 4 6 7 8 9 11 13 15 17 18 18 18 19 23 23 21 18 16 15 16 18 21 24 25 25 25 27 29 32 32 35
13 12 11 10 9 8 7 6 4 2 1 3 6 8 9 10 13 14 15 15 15 15 18 21 21 21 19 16 14 14 14 15 18 20 22 23 24 28 30 30 30 32 35
7 8 7 6 6 5 3 2 3 5 7 10 11 11 12 13 12 12 13 13 15 17 17 18 18 18 17 17 16 15 15 16 19 21 20 21 26 28 30 30 30 33 36
4 6 5 4 2 2 2 3 6 8 10 11 10 10 11 12 13 14 15 16 16 16 16 15 16 16 16 15 16 17 18 19 20 19 19 23 25 26 30 32 33 36 38
3 3 2 2 2 2 4 5 7 9 9 9 10 11 12 13 12 15 15 16 15 14 14 14 13 14 14 15 17 18 20 21 20 18 20 23 23 28 33 34 34 35 36
1 1 1 2 4 5 7 8 10 11 11 12 12 11 12 12 13 14 14 15 15 14 13 12 12 13 14 16 18 20 21 22 20 19 20 23 24 30 34 34 34 33 35
4 4 4 4 5 7 9 11 11 11 11 13 13 13 13 14 13 13 13 14 14 13 12 12 11 13 15 17 19 21 22 22 17 18 22 23 26 32 35 35 34 38 40
4 4 5 6 8 10 11 12 11 12 13 14 13 13 12 14 15 14 14 13 13 12 12 11 12 14 16 19 20 21 24 22 16 20 23 23 28 34 35 36 37 40 41
5 5 6 8 10 11 12 12 13 14 14 14 14 13 13 14 14 13 13 13 12 12 12 13 13 15 18 21 22 23 25 22 17 20 23 25 30 34 36 38 40 42 40
5 6 8 10 12 13 13 14 14 14 14 14 14 14 14 14 14 13 14 13 12 12 12 13 15 17 19 20 21 23 26 24 20 19 24 26 32 36 37 39 41 37 37
6 8 10 12 13 13 14 14 14 15 15 14 14 14 14 13 13 13 14 13 12 12 13 14 16 19 21 21 22 23 24 24 21 19 21 28 33 34 34 38 37 34 37
8 10 12 13 14 15 15 15 14 14 14 14 13 13 12 13 12 13 14 13 13 13 13 15 16 19 20 22 23 24 24 23 20 18 20 24 29 30 34 36 35 36 39
10 12 13 14 14 15 14 14 14 15 14 14 14 14 13 13 13 13 14 13 13 13 14 15 16 19 20 22 23 25 24 24 21 19 19 23 27 31 34 36 35 37 36

GFSGL_850_spd_030.txt.gz
Wind_Speed
22 18 17 19 20 21 23 26 30 33 35 37 37 40 42 42 38 38 39 37 32 29 27 23 19 16 15 13 15 18 19 19 23 25 27 26 28 30 30 30 29 31 31
14 16 17 17 16 18 19 22 27 30 30 32 34 36 37 36 35 38 38 35 30 27 23 18 15 16 14 15 19 19 19 20 24 27 28 28 29 29 30 31 31 30 31
12 11 19 18 16 15 16 20 23 24 24 26 28 31 32 33 36 38 34 30 29 25 18 15 14 16 12 16 17 19 20 22 23 27 29 28 30 30 32 32 33 33 29
19 15 23 25 17 16 17 19 20 19 21 24 27 28 30 34 33 33 31 27 22 19 18 15 12 17 15 16 19 21 22 22 23 25 27 28 29 30 32 34 37 33 30
19 19 21 20 16 13 13 17 19 19 21 25 27 27 26 27 30 28 24 22 19 15 13 10 9 14 15 20 21 20 21 22 22 24 26 28 31 31 32 33 34 31 32
8 10 12 10 9 10 12 15 17 19 21 22 21 21 25 26 24 22 22 19 15 12 12 14 14 15 18 18 18 19 19 20 22 23 25 28 30 32 32 30 28 32 36
9 12 8 7 6 7 11 14 15 17 18 18 19 22 24 22 21 18 16 12 10 9 11 8 14 15 17 17 18 18 18 18 18 20 25 28 30 29 26 27 29 32 35
3 2 2 3 4 6 7 8 9 11 15 17 21 20 19 16 14 12 9 6 6 6 11 10 13 14 16 16 17 17 17 18 21 24 25 27 25 22 24 28 32 34 36
6 7 8 8 9 11 12 13 15 18 20 20 20 18 15 13 10 8 3 1 6 8 9 11 13 15 15 15 14 16 20 23 23 22 21 21 22 22 23 26 28 31 36
9 8 8 8 11 14 16 18 19 19 21 19 16 12 9 7 5 5 2 3 6 9 11 13 14 15 14 12 13 19 23 23 20 21 21 19 18 18 20 22 25 27 29
13 13 15 15 15 18 20 20 18 16 14 12 10 8 7 4 1 3 6 8 10 13 14 15 15 14 12 10 12 20 20 18 22 21 20 19 19 20 21 21 22 25 29
17 17 18 17 18 17 15 15 13 12 12 11 8 6 4 1 2 5 7 10 13 14 14 14 13 11 12 17 19 17 16 17 18 18 19 20 21 22 21 22 23 26 28
16 16 16 17 16 14 12 12 12 9 7 7 5 3 1 2 5 7 9 11 11 11 13 15 14 15 17 19 17 16 16 16 17 18 20 21 22 22 22 24 25 25 27
13 13 12 11 11 10 9 8 6 6 4 3 2 3 5 7 8 9 10 11 12 13 15 15 17 18 17 17 15 13 13 13 16 19 22 23 22 21 24 24 26 28 31
10 10 9 8 8 7 6 6 4 3 3 4 5 7 8 9 9 8 9 11 13 14 16 16 16 15 14 12 11 12 11 13 15 18 21 21 20 23 23 24 28 30 33
6 7 7 6 5 4 4 3 3 4 7 9 10 10 10 10 9 12 14 14 14 14 15 16 15 15 15 14 13 13 13 14 17 19 19 18 21 23 24 28 31 31 33
3 4 4 4 3 4 4 5 7 9 11 12 11 10 11 11 12 14 15 15 14 16 15 14 14 13 13 13 13 15 16 16 18 19 18 18 21 21 25 30 32 31 33
2 2 2 2 3 4 6 8 9 10 10 10 11 11 12 12 13 14 15 15 13 13 13 12 11 12 12 13 15 16 17 18 19 20 16 18 21 23 27 32 34 34 36
1 0 2 4 5 6 8 9 10 11 12 12 13 14 14 13 13 13 14 14 14 12 11 10 10 11 12 14 16 17 19 20 22 21 17 19 20 23 28 32 34 34 36
1 2 4 6 7 8 10 12 13 13 14 14 15 14 14 14 13 12 13 12 13 12 11 10 10 11 13 15 17 18 20 20 22 19 17 20 20 22 29 33 34 37 40
4 5 6 7 8 10 12 13 13 14 15 15 15 14 13 15 15 14 13 13 14 12 11 11 11 12 14 16 18 20 22 22 24 20 19 20 21 25 29 32 34 38 40
6 6 7 8 10 12 13 13 15 15 16 16 15 14 13 14 14 14 13 13 13 13 12 13 12 13 16 18 21 23 24 25 25 25 20 20 22 26 30 33 36 39 40
7 7 8 9 11 13 14 15 16 16 16 16 16 15 14 14 13 13 12 13 13 12 12 14 15 15 17 19 20 23 25 25 25 26 23 22 24 27 31 35 36 39 39
8 8 9 10 13 13 15 16 17 17 16 16 15 14 14 13 13 13 13 14 14 13 14 15 16 18 19 21 21 24 25 25 25 26 22 22 26 29 32 33 36 39 40
9 9 10 12 13 15 16 16 16 16 16 15 14 13 13 13 13 13 14 14 14 14 14 16 17 19 20 21 23 25 26 25 25 26 23 22 24 27 30 34 36 40 41
9 9 11 12 14 15 15 15 15 16 15 15 14 14 14 14 14 14 15 14 14 14 15 16 17 19 21 22 24 25 26 26 26 25 22 22 24 27 30 34 37 40 41

GFSGL_850_spd_033.txt.gz
Wind_Speed
10 13 14 15 18 19 20 21 22 23 26 27 29 32 34 39 43 42 39 36 34 40 38 35 34 30 25 20 18 17 16 16 19 22 21 21 23 24 26 28 28 28 30
13 12 11 8 10 14 16 17 19 21 23 23 23 24 27 30 33 36 39 38 37 38 37 33 28 26 22 21 20 16 16 16 19 24 24 23 24 24 26 27 27 27 29
17 17 16 14 11 12 11 13 16 18 19 19 17 18 21 25 27 31 34 34 34 36 34 28 26 24 24 24 20 16 15 16 19 27 27 25 26 25 26 27 29 29 28
16 15 16 19 17 14 13 18 20 17 15 16 16 17 20 23 26 29 30 32 33 30 26 24 24 23 21 17 15 16 16 15 20 24 26 26 27 25 26 28 29 29 28
13 10 10 18 21 25 22 22 26 16 14 15 15 16 18 21 23 26 29 30 27 23 21 20 18 17 15 14 12 12 16 19 19 23 25 25 26 23 21 25 28 27 26
14 10 12 10 8 9 10 13 12 12 12 13 13 15 17 18 22 24 24 19 18 17 16 17 14 12 14 10 11 14 17 19 18 22 24 24 22 24 26 26 25 24 24
9 6 6 5 4 4 5 7 7 8 8 9 10 11 16 18 19 17 15 16 15 13 10 8 10 8 6 10 14 14 15 18 19 19 23 23 24 23 25 22 24 25 28
8 6 4 4 3 2 2 4 7 7 8 10 12 14 16 16 14 16 15 12 9 8 7 5 5 9 10 11 14 15 16 18 18 20 22 22 23 20 19 24 25 25 27
11 10 10 8 7 6 6 8 11 12 14 16 15 15 12 15 11 9 7 6 3 2 3 6 8 10 10 13 14 15 17 19 19 21 21 19 18 18 18 21 23 24 27
14 13 12 11 9 9 11 13 15 17 18 17 17 14 10 9 9 5 4 4 1 2 5 8 11 12 11 9 10 16 19 20 19 17 16 15 14 14 15 18 20 22 23
17 16 16 15 15 15 15 16 15 15 16 14 12 10 6 7 8 4 3 2 4 5 7 9 10 8 7 8 11 17 18 15 18 17 15 13 13 13 14 15 16 19 23
18 19 18 17 17 15 14 14 12 11 11 11 10 9 7 5 1 4 5 7 8 8 9 10 9 7 8 13 15 15 14 14 14 13 13 13 14 14 13 14 17 19 22
15 17 16 16 15 15 13 12 11 10 9 8 6 5 3 2 3 5 7 7 7 9 9 9 9 11 13 14 12 11 10 10 10 12 13 14 16 15 13 16 15 18 23
13 13 13 11 11 11 10 9 8 7 6 5 3 2 3 3 4 5 5 6 7 9 9 10 12 12 12 12 10 9 9 9 11 13 15 17 16 14 15 16 19 23 27
8 10 9 9 9 8 7 7 6 5 5 5 4 4 4 5 5 6 8 10 10 11 13 12 11 9 8 7 7 7 8 9 11 14 16 17 15 16 17 16 20 24 27
6 7 7 6 6 5 5 5 4 5 5 5 5 6 7 8 8 10 11 11 10 10 10 10 9 9 8 8 8 7 9 11 13 15 16 17 16 17 20 18 22 26 29
5 5 4 3 3 3 3 4 5 8 10 11 11 9 10 10 11 12 12 11 11 11 11 10 9 8 8 8 9 11 11 12 15 16 18 17 17 19 20 20 24 28 31
4 3 3 2 2 3 5 7 9 10 10 10 11 11 12 11 11 12 12 12 11 11 11 9 8 8 8 9 10 12 13 14 16 18 19 17 17 20 21 22 26 30 32
3 2 1 1 3 5 7 8 10 11 11 12 13 13 12 11 11 12 13 12 11 10 10 8 8 9 9 11 12 14 16 17 18 21 21 19 19 21 22 23 27 30 31
4 2 1 3 5 6 8 10 11 12 13 14 14 14 13 13 11 11 11 11 10 11 10 9 9 10 11 13 14 16 18 18 20 21 22 20 20 21 24 25 28 32 33
4 2 3 4 6 8 10 11 12 14 15 15 14 13 13 14 13 12 12 11 11 11 11 10 10 11 13 15 17 19 20 21 22 23 24 24 23 24 23 26 30 32 34
4 3 4 6 8 10 12 12 14 15 15 15 14 13 12 13 13 13 12 11 11 12 12 12 12 13 14 16 19 21 23 24 24 24 26 27 26 25 26 28 31 33 35
5 5 6 7 9 11 12 13 14 15 15 14 14 13 12 12 12 12 12 12 13 13 13 14 14 14 15 17 19 22 25 26 27 26 28 29 29 28 27 30 32 35 35
6 6 7 8 10 11 13 14 14 14 14 14 14 13 13 12 12 12 12 13 13 13 14 15 16 17 18 19 20 22 24 26 28 28 27 29 31 29 30 33 33 36 38
8 7 8 9 10 11 13 13 13 13 14 14 14 13 13 13 13 13 13 14 14 14 13 15 16 18 19 20 21 23 25 27 28 27 28 29 30 30 30 32 35 37 38
8 8 8 9 10 11 11 11 11 12 13 13 13 14 14 13 13 13 14 14 14 14 15 15 16 18 20 21 23 25 26 25 26 25 24 25 27 29 31 34 36 37 40

GFSGL_850_spd_036.txt.gz
Wind_Speed
14 13 11 11 14 18 20 23 25 25 25 25 25 25 26 29 30 33 38 41 42 41 41 44 41 39 37 34 34 30 30 28 26 25 20 19 23 24 22 29 30 30 30
13 14 12 10 10 12 16 19 21 22 22 23 23 21 23 25 26 28 30 33 36 36 37 39 36 34 33 32 28 27 26 24 25 22 23 24 23 19 23 30 31 30 30
11 12 15 13 11 13 14 12 13 14 13 14 15 15 18 21 22 23 25 28 31 33 35 32 31 32 29 26 25 23 20 18 19 20 19 21 18 22 26 27 25 27 28
10 10 9 11 12 15 16 14 12 12 15 14 13 15 17 19 21 21 24 26 27 27 27 28 27 23 22 21 19 16 17 17 18 17 17 19 24 24 23 22 20 20 23
10 7 7 8 9 10 12 13 14 14 16 16 15 16 15 16 18 20 21 21 21 22 20 18 17 18 16 17 17 17 16 15 17 18 19 20 20 14 15 16 19 20 21
10 8 6 6 8 8 8 9 9 9 14 18 22 14 11 11 11 10 13 15 16 14 14 14 15 16 15 16 16 16 11 11 16 18 18 15 14 14 15 16 17 19 21
8 6 4 4 5 5 5 5 4 3 3 5 5 5 4 4 6 9 12 13 13 13 14 14 13 14 13 12 10 10 11 13 16 15 17 16 16 15 18 22 17 18 22
10 8 7 6 6 6 6 5 5 4 2 4 5 8 10 11 11 12 11 10 10 9 9 10 10 7 7 8 10 11 14 15 16 18 18 17 17 17 15 18 20 21 21
12 12 13 12 11 12 11 9 9 8 9 10 10 10 10 12 10 9 8 7 6 6 3 2 3 4 7 9 11 13 13 12 15 19 22 23 20 19 18 18 18 17 21
15 15 15 16 15 16 16 14 13 13 14 13 12 10 7 8 9 6 3 3 2 0 2 4 6 7 7 8 8 10 11 14 16 18 13 15 15 15 14 16 17 20 20
18 18 19 19 19 18 17 15 13 12 11 10 7 6 7 6 7 6 5 3 2 3 5 7 7 8 10 11 11 11 14 17 15 16 14 12 12 12 13 15 17 19 21
17 18 18 18 17 15 13 13 11 9 8 9 8 8 6 6 3 4 4 4 4 5 6 8 10 11 11 12 13 16 16 15 13 12 12 11 12 14 15 15 15 19 21
14 15 14 14 14 13 12 11 10 9 7 6 5 4 3 3 5 6 7 8 10 10 10 11 10 10 12 13 12 11 10 10 10 11 11 13 14 16 16 15 16 17 21
11 12 12 10 10 9 8 8 7 6 5 4 3 4 5 6 7 7 8 8 9 9 9 10 10 11 11 10 8 8 8 8 10 12 13 15 16 17 16 16 19 19 23
7 8 9 8 7 6 5 5 4 3 2 3 4 5 5 6 7 7 8 7 8 10 11 10 10 10 9 8 8 8 8 10 11 13 16 17 18 18 17 17 20 21 24
5 6 7 6 5 4 3 3 3 4 5 5 5 5 6 7 8 10 11 11 11 11 11 11 11 10 8 8 7 8 9 11 13 15 17 19 20 20 20 20 20 20 24
6 5 4 3 2 1 1 2 5 7 7 9 9 10 10 10 11 12 13 13 12 11 11 11 10 9 8 8 8 9 10 12 14 16 18 20 21 21 20 22 22 22 26
7 6 4 3 2 1 2 3 5 7 9 11 11 11 12 12 13 13 13 12 12 11 11 11 10 10 9 9 10 11 12 14 16 18 19 20 21 22 23 24 24 26 28
8 7 5 4 3 2 3 6 8 10 10 12 13 13 13 12 12 13 13 12 12 12 12 12 11 11 12 12 12 13 15 16 18 20 21 22 22 23 25 26 27 28 29
9 8 5 5 3 3 6 8 10 11 12 13 14 14 14 13 12 12 13 13 13 12 13 13 13 13 14 14 15 16 18 19 20 22 24 25 24 25 27 28 28 30 32
10 8 7 5 3 5 7 9 11 12 13 14 14 14 13 13 14 13 13 13 13 13 14 14 14 14 15 16 18 19 21 22 22 24 26 27 27 28 28 28 30 31 33
10 9 7 5 5 7 9 10 12 13 14 14 14 13 13 13 13 13 13 13 13 13 14 15 14 15 16 18 20 22 23 24 24 26 28 29 29 30 31 32 33 32 33
11 10 8 6 7 8 10 11 13 13 13 14 14 13 12 12 12 12 13 13 13 14 15 16 17 16 17 19 21 23 25 26 26 28 30 31 31 32 32 33 33 33 34
12 10 8 8 8 9 10 12 12 12 13 13 13 13 13 13 13 13 14 14 14 14 15 16 17 18 19 20 22 23 25 26 28 29 29 31 32 32 31 32 34 35 37
12 10 9 9 9 10 11 12 11 11 11 12 12 13 13 13 13 13 14 14 14 14 14 16 18 19 20 21 22 23 25 27 29 29 29 30 32 32 33 33 34 38 41
12 11 10 10 10 11 11 11 10 10 11 12 13 13 13 13 13 13 13 13 14 15 16 17 18 19 21 22 23 25 26 27 27 24 24 26 28 31 35 37 38 40 43

GFSGL_850_spd_039.txt.gz
Wind_Speed
13 12 11 10 9 11 13 17 20 22 23 24 23 23 22 24 25 26 30 35 37 38 39 39 40 39 41 40 37 35 39 35 32 25 26 23 23 23 25 29 31 32 30
11 10 9 9 8 8 11 11 14 16 18 20 21 22 21 19 21 21 23 27 30 34 35 34 32 34 34 34 35 29 25 24 25 25 24 26 27 27 28 28 28 26 30
8 8 9 9 8 8 10 10 11 10 9 10 13 14 13 15 17 18 20 23 24 28 30 31 29 29 27 27 23 20 16 18 19 20 21 22 24 25 25 24 23 27 28
9 7 7 6 7 9 10 12 12 11 11 9 10 13 15 17 16 18 20 19 21 22 22 21 20 19 18 17 16 17 18 17 18 18 20 20 21 22 22 21 22 21 23
9 8 6 5 5 7 8 9 10 11 11 11 11 11 10 11 13 12 14 15 14 14 14 12 11 10 11 13 14 15 15 16 17 17 16 16 17 17 16 14 17 23 23
6 5 3 3 6 7 9 11 10 9 8 8 7 7 8 9 11 10 9 8 6 6 8 9 9 10 10 15 14 12 14 13 13 13 13 14 14 11 12 15 18 22 28
4 5 4 6 7 7 7 6 5 6 7 6 6 6 6 7 6 5 4 4 5 7 8 8 8 9 9 11 9 9 11 11 11 12 11 11 12 13 19 22 24 21 23
5 6 7 8 6 6 6 5 6 7 7 8 10 10 8 8 7 5 4 4 5 5 4 4 4 6 7 6 7 7 9 11 11 11 13 14 16 18 17 17 19 21 22
8 9 9 9 9 9 9 10 11 11 12 12 12 10 7 7 5 4 3 1 1 1 2 4 3 4 6 9 9 10 10 9 9 15 15 18 19 19 18 19 20 20 22
13 14 15 15 14 14 15 15 15 14 14 12 10 9 7 6 5 3 2 4 4 4 3 3 6 9 9 8 8 7 10 11 13 14 14 13 14 14 13 15 16 19 19
15 16 17 17 17 16 16 15 14 13 11 9 8 8 8 6 6 5 5 5 4 5 6 8 10 9 9 9 11 11 13 14 15 13 14 11 10 10 11 13 15 18 21
13 13 13 14 14 13 11 12 11 10 8 8 7 6 6 6 7 7 7 6 7 8 8 9 11 13 13 13 12 13 15 15 13 11 10 9 10 12 15 17 18 20 21
9 10 9 9 10 10 8 8 7 6 6 5 5 5 6 7 8 9 10 10 12 11 12 13 14 13 13 13 13 11 10 9 9 9 9 11 13 15 17 19 19 19 21
6 7 7 6 7 6 6 5 4 4 3 4 6 7 9 10 10 10 11 11 12 11 12 12 13 14 14 12 11 9 8 8 9 10 12 13 15 16 18 18 19 19 23
5 5 5 4 4 3 2 2 2 3 4 6 7 8 8 9 11 12 13 12 12 13 15 13 12 11 11 10 9 8 8 9 10 12 14 15 16 17 18 18 20 21 24
6 5 5 4 3 2 1 1 2 5 6 8 8 9 10 11 12 13 14 13 13 13 13 10 11 11 11 10 10 9 10 11 13 14 15 16 17 19 21 21 20 22 25
8 7 6 5 4 3 3 5 7 7 9 10 10 12 12 13 14 14 15 15 15 14 12 11 13 12 11 11 11 11 11 12 14 15 16 17 19 21 22 23 23 24 28
10 9 7 6 5 5 6 7 8 9 10 13 14 14 16 15 15 15 15 15 13 12 13 13 13 12 12 12 13 12 13 14 15 17 19 20 21 23 24 25 26 26 28
11 10 8 8 7 7 8 8 9 11 12 14 16 17 17 16 15 14 14 14 13 13 13 14 14 13 13 14 14 15 16 17 18 20 22 22 23 25 26 27 28 29 28
13 12 11 9 8 8 9 9 10 12 14 16 17 17 17 16 14 13 14 15 14 14 14 14 14 14 14 15 16 18 19 19 21 22 23 25 26 27 29 30 31 33 34
15 13 12 10 9 9 10 10 12 13 16 17 17 17 16 16 16 15 15 15 15 15 15 15 15 15 16 17 18 20 21 22 23 24 25 26 27 30 30 31 33 34 36
16 14 13 11 10 10 10 11 13 15 16 17 17 17 17 15 15 15 15 15 15 15 15 16 16 16 17 18 20 21 23 24 24 25 27 28 30 31 33 33 34 36 36
17 15 13 11 11 11 11 12 14 15 16 16 17 16 16 15 15 15 15 15 15 16 16 17 18 17 18 19 20 22 24 25 25 27 29 31 32 33 33 34 34 35 35
18 16 13 12 12 11 12 13 14 15 15 15 15 15 15 14 15 15 15 16 16 16 17 17 18 18 19 20 21 23 24 25 27 28 29 31 32 31 31 33 34 37 40
18 16 15 13 12 12 13 13 14 14 14 14 14 14 15 15 15 16 16 16 16 16 16 17 18 19 20 21 22 23 24 26 27 28 28 29 32 34 35 37 39 42 42
19 17 15 14 13 13 13 14 14 14 13 14 14 14 15 15 15 16 16 16 17 17 18 18 18 19 20 22 23 25 25 25 24 23 23 27 31 34 35 38 40 43 44

GFSGL_850_spd_042.txt.gz
Wind_Speed
11 9 6 5 6 9 12 11 12 14 17 18 19 20 25 21 22 23 22 22 23 27 30 34 36 35 36 37 37 37 38 36 35 33 34 29 27 30 30 29 27 27 29
8 6 5 6 7 5 10 9 9 9 10 12 13 13 14 15 17 20 20 20 21 22 23 28 31 32 32 32 31 30 29 30 28 26 27 21 22 27 26 27 29 31 30
7 6 5 6 8 10 11 11 10 10 9 9 9 9 8 10 11 11 15 18 18 17 19 22 25 27 29 27 23 21 18 17 18 17 20 21 22 26 26 28 27 25 24
8 7 6 7 5 5 6 8 9 10 11 10 10 9 8 8 9 12 15 17 15 14 18 18 19 19 17 14 13 10 10 11 13 16 17 18 20 21 21 22 21 19 19
6 5 4 6 4 5 5 5 6 8 8 8 10 10 10 9 8 10 11 10 10 11 11 9 7 6 6 8 9 8 10 11 12 14 12 14 15 17 16 14 16 16 19
3 3 3 1 1 2 2 4 5 7 6 7 7 8 9 8 7 8 6 4 4 2 0 1 4 7 8 8 8 8 9 10 11 11 11 13 13 11 9 11 16 20 23
3 4 3 1 1 2 5 5 5 6 6 8 8 9 9 11 13 11 10 8 7 5 3 2 2 2 3 4 5 6 8 10 11 10 10 10 10 11 14 17 20 22 22
3 4 4 4 3 5 6 6 8 8 10 10 11 11 10 11 9 9 9 8 5 3 2 1 3 4 5 6 7 7 8 8 8 9 12 12 14 15 17 18 19 21 20
6 6 8 8 8 9 9 12 14 12 13 12 13 12 10 10 9 8 8 6 4 3 1 3 5 5 4 5 6 7 7 6 6 10 11 12 15 16 17 17 16 17 19
11 12 12 12 12 13 15 15 15 13 13 12 11 10 9 8 7 6 5 4 4 4 5 4 5 6 7 6 7 8 9 11 13 15 16 16 14 13 11 11 12 14 15
13 14 14 15 15 14 14 13 11 11 11 10 9 8 7 7 8 8 8 7 6 6 7 8 10 9 10 11 11 10 13 14 14 15 14 12 9 8 8 10 12 14 17
11 11 11 12 11 11 10 9 9 9 7 7 7 7 8 8 9 9 9 9 8 9 10 11 12 13 13 13 13 13 14 15 14 11 10 9 9 10 12 15 17 19 21
9 9 8 8 7 7 6 5 5 5 5 5 7 8 9 10 10 10 11 11 12 11 12 13 13 13 14 13 13 13 11 10 9 8 8 9 10 12 13 16 18 19 20
6 6 6 5 5 4 2 1 2 4 5 7 9 10 11 11 12 13 14 14 14 14 15 14 15 14 12 11 10 8 8 7 8 9 10 12 13 15 16 17 19 20 21
7 5 5 4 3 1 0 2 3 5 7 9 10 11 12 13 15 16 16 16 15 14 15 13 12 11 12 11 9 8 8 8 9 11 13 13 14 16 16 17 18 20 22
8 7 6 5 3 3 2 3 5 7 9 10 12 12 14 14 15 15 16 15 15 15 15 13 12 12 14 13 11 10 10 11 11 12 13 15 17 17 19 19 19 20 22
10 8 7 7 6 5 5 6 7 8 11 12 12 13 14 15 15 16 16 16 15 15 13 12 13 14 14 13 12 12 13 12 13 14 15 16 18 20 21 22 22 23 25
11 10 10 9 8 7 7 8 9 11 13 14 15 15 17 16 16 16 16 15 14 12 14 15 14 13 13 13 12 14 15 14 15 16 18 19 20 22 23 24 25 27 28
13 12 12 10 9 8 8 9 10 12 14 14 16 17 19 18 17 16 14 14 14 13 13 13 14 14 14 13 14 15 17 17 17 19 20 22 23 24 26 27 28 28 28
15 14 13 11 10 10 10 10 11 13 14 15 17 18 18 18 17 16 15 15 15 15 14 14 13 14 14 14 15 16 18 18 19 20 21 23 24 26 29 29 30 32 32
17 15 14 13 12 12 11 11 12 13 15 16 16 17 18 17 16 15 14 14 14 15 15 15 15 15 15 16 17 18 19 20 21 22 23 24 26 28 29 30 32 32 33
19 17 15 14 14 13 12 12 12 14 15 16 16 16 16 16 15 15 14 14 14 15 15 17 17 16 16 17 18 20 21 22 22 23 25 26 28 29 31 32 33 33 33
20 18 16 15 14 14 13 12 13 14 15 15 16 15 15 15 15 15 15 15 15 15 15 16 17 16 15 17 18 20 22 23 24 25 27 29 30 31 31 32 33 34 35
22 19 17 16 15 14 13 13 13 14 14 15 15 14 15 15 15 15 15 15 15 15 15 16 17 18 18 18 19 20 21 23 25 27 27 29 30 30 31 33 35 36 36
21 19 18 16 15 14 13 13 13 14 15 14 14 14 14 14 14 14 15 16 16 17 17 18 18 19 19 19 20 22 23 24 25 25 25 26 29 31 34 37 39 39 41
20 19 17 16 16 14 13 14 14 14 15 14 14 14 14 14 14 15 17 18 19 19 19 19 19 19 20 22 22 23 23 23 23 22 23 27 32 35 37 40 41 43 45

GFSGL_850_spd_045.txt.gz
Wind_Speed
10 10 9 9 10 11 11 11 9 9 12 14 16 19 19 18 21 23 23 23 23 24 23 24 25 25 26 27 26 28 36 34 36 36 33 30 30 34 35 37 30 29 25
8 7 8 9 10 10 10 11 11 10 8 8 8 9 10 11 10 10 12 14 14 14 15 18 19 20 19 21 24 26 29 25 25 29 29 27 27 31 29 30 27 26 26
8 7 8 7 8 11 13 12 11 11 10 10 10 9 9 10 10 9 11 14 15 17 16 15 17 19 21 26 28 25 23 18 20 21 23 24 24 23 25 25 22 21 24
8 7 9 8 7 5 5 5 6 8 9 10 9 9 9 10 11 10 10 10 13 13 13 14 14 16 18 18 17 14 11 10 13 15 13 18 19 19 19 19 19 21 21
6 5 7 7 6 4 4 3 3 6 6 5 5 5 6 8 8 8 8 8 9 9 9 10 11 10 8 6 4 5 6 7 10 11 12 14 16 16 16 16 17 16 16
2 2 3 2 3 3 2 0 0 2 1 4 4 5 6 7 7 5 5 5 5 5 4 3 2 2 2 2 2 4 5 6 8 9 11 12 12 12 12 13 13 13 15
3 2 2 2 3 3 3 3 3 4 4 5 8 9 8 10 12 11 12 10 8 7 5 4 4 3 2 4 5 6 6 7 8 9 11 12 11 11 12 13 14 17 21
2 3 3 3 4 4 5 6 7 8 8 9 10 10 10 11 11 11 12 10 8 6 4 4 3 5 6 7 8 8 7 6 8 10 11 10 11 12 14 17 17 19 20
5 5 6 7 7 8 9 11 11 10 11 11 12 11 10 10 9 9 9 7 6 4 3 4 4 4 6 8 8 8 8 8 8 8 10 10 11 13 14 16 16 16 16
10 11 11 11 12 13 13 13 12 10 10 10 9 9 10 9 8 7 7 7 6 6 7 8 9 9 8 8 10 10 11 11 11 13 15 16 16 13 12 12 11 11 11
13 13 13 14 14 14 12 10 9 9 9 8 8 7 6 6 7 8 8 8 8 9 10 10 11 10 10 10 12 10 11 13 14 14 15 12 9 7 7 8 9 11 14
11 11 11 11 11 10 9 8 7 7 6 6 6 7 7 8 9 9 10 11 11 11 11 11 12 12 12 11 11 11 11 12 12 10 8 7 7 8 9 10 12 15 18
10 9 9 8 8 7 6 5 4 3 4 4 5 7 8 9 10 11 13 14 14 14 14 15 14 13 12 12 11 10 11 10 8 7 7 7 9 10 11 12 13 16 19
9 8 8 6 5 4 3 2 0 1 3 5 7 9 10 12 13 14 14 14 14 14 15 14 14 13 12 12 11 9 8 7 8 8 9 10 11 12 13 15 16 16 19
10 9 8 7 6 5 4 3 2 3 4 7 9 11 12 14 15 16 16 16 15 14 14 13 12 11 11 11 11 10 9 9 10 11 13 13 12 12 13 14 15 17 19
11 10 9 9 8 7 5 5 4 5 6 9 11 12 13 14 15 15 16 15 14 14 14 13 11 11 12 12 11 10 10 12 13 12 12 12 14 14 16 16 17 18 20
13 12 12 11 10 9 8 7 6 7 8 10 12 13 14 14 14 14 14 14 12 12 12 11 11 11 11 12 11 11 11 12 12 12 13 14 15 17 19 20 20 21 22
15 14 14 13 12 11 9 8 8 8 9 11 13 14 14 14 14 13 12 12 10 10 11 12 11 11 11 11 11 12 12 13 13 14 15 16 17 19 22 22 23 24 26
17 16 15 14 13 12 11 10 9 10 11 12 13 14 15 15 15 14 13 12 11 10 10 11 11 11 11 12 12 13 14 14 15 16 17 19 20 22 24 25 26 26 27
20 17 17 16 15 14 13 11 10 10 12 13 14 15 15 15 14 13 12 12 12 12 12 11 11 11 12 13 13 14 15 15 16 18 18 20 21 23 25 26 27 28 29
23 21 19 18 17 15 13 12 11 11 12 13 14 14 15 15 13 13 12 11 12 12 12 12 12 12 12 13 15 16 17 18 18 19 20 22 23 25 25 27 28 29 30
25 24 20 19 17 16 14 13 12 12 12 13 13 13 13 13 13 12 12 12 12 12 13 14 13 13 14 15 16 18 19 20 19 20 22 23 24 26 27 28 29 29 30
26 25 21 19 18 17 15 13 13 13 12 13 13 12 12 12 12 12 12 12 12 12 13 14 15 14 14 16 18 20 22 21 21 22 24 26 28 28 28 28 28 30 33
26 25 22 19 19 17 15 14 13 13 12 13 13 12 12 12 12 12 12 13 13 13 14 15 16 17 18 18 18 18 20 21 22 23 24 26 27 26 28 31 33 35 38
24 26 26 19 19 17 15 14 13 13 13 13 13 13 12 13 13 13 13 15 16 16 16 17 17 18 20 20 20 21 22 22 22 23 25 27 29 31 33 36 38 40 42
22 23 23 17 18 17 15 14 13 13 13 14 14 13 13 13 13 14 16 17 19 19 19 18 18 19 20 21 21 21 22 23 23 23 25 28 31 34 37 40 42 43 45

GFSGL_850_spd_048.txt.gz
Wind_Speed
13 12 11 10 12 13 13 14 12 10 9 10 12 13 14 16 17 19 21 21 22 21 21 21 21 21 20 21 21 22 22 24 30 33 29 26 32 29 33 36 39 38 33
12 11 10 10 11 12 13 14 11 9 9 8 8 8 8 8 8 9 12 14 14 13 13 13 14 16 17 19 21 22 22 22 23 25 27 22 25 24 26 27 27 31 30
12 11 11 10 10 11 12 12 11 10 9 9 10 10 10 9 10 11 12 13 12 14 14 15 15 16 19 21 23 24 22 19 18 17 20 20 20 22 24 24 25 26 24
12 12 11 11 10 8 7 6 5 6 6 7 7 8 9 10 11 12 10 10 10 10 9 9 11 12 15 17 17 17 14 12 11 10 11 13 13 14 18 19 21 20 20
10 11 11 11 9 8 6 5 5 4 4 3 3 3 4 4 4 4 5 6 6 6 7 7 7 9 8 8 8 7 6 5 6 6 7 8 8 11 12 13 15 17 18
8 8 7 7 6 7 6 5 4 3 1 0 0 1 3 5 7 6 4 4 4 4 3 4 5 4 4 5 6 6 6 6 7 7 8 9 9 10 12 14 15 14 13
5 4 4 5 5 6 5 4 4 3 3 4 5 5 4 6 7 8 9 7 6 5 5 5 5 5 6 6 6 7 8 9 9 9 10 11 11 10 10 10 11 14 16
5 4 4 5 5 5 6 6 6 6 6 7 8 8 7 8 10 10 9 7 7 7 7 7 7 8 8 8 8 8 8 8 8 9 9 9 10 11 12 15 16 18 20
5 5 6 7 7 8 8 9 10 10 9 9 8 8 8 8 9 9 9 9 8 8 7 7 8 9 9 10 9 10 9 9 9 10 10 9 10 12 13 17 16 15 16
7 7 8 9 10 11 12 12 11 9 8 8 7 6 6 6 6 6 7 8 8 8 9 9 10 10 10 12 12 11 11 12 12 13 14 16 17 16 15 17 16 14 12
11 12 12 12 13 13 11 10 9 7 6 5 4 4 5 6 7 8 9 9 10 11 11 11 11 11 11 12 13 12 12 14 14 14 14 13 12 11 10 10 10 11 13
12 12 12 11 11 10 8 7 6 5 3 2 2 4 6 7 9 10 11 12 12 12 11 11 11 11 12 12 11 11 11 12 11 11 9 8 8 8 10 11 13 14 16
11 11 11 10 9 8 7 5 3 2 0 2 4 6 7 9 10 12 13 14 13 14 14 13 13 12 11 10 9 10 10 10 9 8 8 8 10 11 12 14 14 16 18
11 11 10 9 8 7 6 5 4 3 3 5 6 8 9 11 12 13 14 13 13 13 13 12 12 12 11 11 11 10 10 9 9 9 10 11 12 14 14 14 16 16 17
12 12 11 10 9 9 8 6 5 5 6 6 7 9 10 12 14 16 15 16 15 14 14 12 12 10 9 10 10 10 9 10 11 13 14 14 13 13 13 14 15 16 18
15 14 13 12 11 11 9 8 7 7 7 8 9 10 11 14 15 15 15 15 14 13 14 13 12 11 11 11 11 10 10 11 12 14 13 14 14 15 16 15 16 18 20
17 15 15 14 14 13 12 11 9 9 9 10 10 11 12 13 14 14 15 14 12 12 12 12 12 12 12 12 12 12 11 12 13 13 14 14 15 17 18 18 19 21 22
17 17 17 16 15 15 14 12 12 11 11 11 12 12 14 15 15 15 14 12 11 12 12 12 12 12 13 13 13 13 13 14 15 15 16 16 16 19 21 22 23 24 26
21 21 19 18 18 17 16 14 13 12 12 12 12 13 14 15 15 14 14 13 12 12 12 13 13 13 13 14 14 15 16 16 17 18 19 19 19 21 24 25 26 26 27
24 22 21 20 19 19 18 16 15 14 14 13 13 14 14 14 13 13 13 13 12 12 12 13 12 14 14 15 16 17 18 18 19 20 21 21 22 23 26 26 27 29 29
28 27 26 24 21 20 19 18 16 16 15 14 14 15 15 15 12 12 12 12 13 12 13 14 14 14 15 17 18 19 20 20 20 20 22 23 24 25 25 27 29 29 30
30 28 28 26 24 21 20 18 17 16 15 15 14 15 15 15 13 13 12 12 12 13 14 15 14 14 16 18 18 20 22 22 21 21 23 24 25 27 27 28 29 28 28
28 29 27 28 26 20 20 20 18 17 16 15 15 15 15 15 14 13 13 13 13 13 14 16 17 17 17 18 20 22 23 23 23 24 26 27 28 28 28 29 29 30 32
28 27 30 31 27 25 21 19 18 17 16 15 16 16 16 15 15 15 14 14 14 15 17 19 19 20 20 20 21 21 22 23 24 25 25 28 29 29 30 32 33 34 36
28 27 27 26 26 25 20 17 17 18 17 16 16 16 17 16 16 16 16 17 17 18 18 19 20 21 21 22 22 22 22 23 24 25 27 29 32 32 34 35 37 39 40
22 22 22 21 23 23 20 16 20 18 17 16 16 16 16 16 17 17 17 19 20 21 21 20 20 21 22 22 22 22 23 23 24 25 26 28 30 32 34 37 39 41 44

GFSGL_850_spd_051.txt.gz
Wind_Speed
18 16 14 13 12 12 12 13 13 13 11 9 7 7 8 9 11 13 15 16 16 16 17 19 18 16 17 15 15 16 19 18 21 25 25 26 26 26 24 23 21 25 30
15 15 13 12 12 12 12 13 14 13 11 10 8 8 7 6 6 6 7 10 12 13 14 11 10 12 14 15 16 18 19 22 21 25 27 26 23 20 21 19 21 22 27
16 15 13 12 12 11 12 12 12 11 11 10 10 10 10 9 9 9 10 10 11 10 10 11 14 14 13 15 16 18 19 20 20 21 20 20 17 15 16 18 20 20 22
16 14 13 12 12 11 10 9 8 7 6 7 7 7 7 7 7 7 7 7 7 8 9 10 9 9 10 12 13 13 14 13 12 11 11 11 11 11 12 13 16 17 18
12 12 12 12 12 11 9 8 7 6 5 4 3 2 1 2 2 2 2 3 3 5 7 5 7 7 6 6 6 8 8 7 7 7 7 8 8 9 9 10 11 14 15
10 9 9 9 10 10 9 8 6 5 5 3 1 1 2 3 5 5 4 4 4 4 5 5 6 6 6 7 7 8 9 8 9 9 9 9 9 9 10 11 12 13 13
7 7 6 6 6 6 7 6 6 5 3 3 3 2 2 6 8 7 8 7 7 6 6 6 6 8 8 8 9 9 10 11 11 10 11 10 10 10 11 11 12 13 15
7 6 5 5 6 6 7 7 6 5 5 5 6 8 8 8 7 8 7 6 6 6 7 9 9 9 9 9 10 10 10 10 11 11 10 10 10 11 12 13 15 16 18
8 7 7 8 8 7 8 8 8 7 8 8 7 7 7 6 7 7 8 8 9 9 9 10 10 11 12 12 12 11 11 11 11 10 10 10 10 11 13 16 18 16 16
8 8 9 10 9 9 9 10 10 9 7 7 7 5 5 6 7 7 8 8 9 9 10 11 12 13 13 14 13 13 12 12 11 11 13 15 16 16 16 16 15 14 12
9 10 11 11 12 12 11 11 9 9 7 5 4 4 5 6 7 8 8 9 10 10 10 10 10 11 12 12 14 13 13 14 13 14 13 12 11 10 9 9 9 10 12
12 13 13 13 13 12 10 9 8 6 4 2 0 2 4 6 8 9 11 12 12 11 12 12 12 11 12 12 12 11 12 13 13 12 11 10 9 8 9 10 11 13 15
13 13 13 13 12 11 9 8 6 4 3 2 3 3 5 7 9 11 13 14 14 13 13 13 12 12 11 11 10 11 12 12 11 11 10 9 10 11 11 13 14 16 18
14 14 14 13 12 10 9 8 7 6 4 4 5 6 7 8 10 12 13 14 14 14 14 13 13 13 13 12 12 12 12 12 11 10 11 12 13 14 15 14 14 15 17
14 15 14 13 12 11 11 10 9 8 7 6 7 8 9 9 11 14 14 15 16 15 16 14 14 14 13 13 13 13 13 13 13 13 14 16 14 14 14 15 15 16 17
17 17 16 14 14 14 13 12 10 10 9 8 9 9 10 11 13 14 15 16 15 15 15 15 15 14 14 14 14 14 14 14 14 15 16 16 16 16 17 17 16 17 20
19 17 17 17 16 16 15 13 12 11 11 10 11 11 11 12 13 14 15 16 16 15 15 15 15 15 15 15 15 16 15 15 16 17 17 17 18 19 20 20 20 20 23
20 19 20 18 18 17 16 15 15 15 14 12 13 13 13 14 14 15 16 16 16 16 16 16 16 16 16 16 16 17 16 17 18 19 20 20 20 21 23 24 24 25 26
22 23 23 20 19 18 18 18 18 17 16 14 14 14 14 15 15 16 16 16 16 15 15 16 16 16 16 17 18 18 19 19 19 20 21 21 21 23 25 26 27 27 28
25 25 24 23 22 22 21 21 20 18 18 17 16 15 15 16 15 15 16 16 16 15 15 16 16 17 17 18 19 20 21 21 21 21 22 23 24 25 27 27 28 29 30
27 27 28 27 26 25 23 22 20 19 19 18 17 16 16 16 15 16 15 16 15 15 15 16 15 16 17 19 20 21 22 22 22 22 23 24 25 26 26 27 29 30 31
26 28 30 31 32 30 27 24 22 21 20 19 17 17 17 18 17 16 16 17 15 16 16 16 16 17 18 20 21 23 24 24 24 23 25 25 26 27 28 29 29 29 29
25 28 30 31 30 30 27 26 25 21 20 19 18 18 18 18 18 18 17 17 16 16 16 19 20 21 20 21 22 24 26 26 26 26 27 28 28 29 29 30 30 32 33
24 27 28 29 30 32 28 26 29 26 20 20 19 18 18 18 18 18 18 18 17 17 18 20 22 23 23 23 23 24 25 25 26 26 26 28 29 30 30 32 33 34 35
24 24 26 28 28 30 27 26 28 26 20 19 18 19 18 18 18 18 18 18 18 19 20 21 23 23 24 24 25 25 26 26 26 26 27 28 30 31 32 32 32 34 36
23 21 20 23 24 24 24 25 25 28 24 18 19 18 17 17 18 18 18 19 19 21 22 23 23 23 24 24 24 25 25 26 26 24 25 28 28 28 30 35 38 41 44

GFSGL_850_spd_054.txt.gz
Wind_Speed
15 16 15 14 13 13 12 13 12 12 11 11 10 9 9 9 9 10 10 10 10 10 10 12 15 14 12 11 11 13 15 16 19 20 22 25 25 26 24 23 19 16 13
16 15 14 13 13 13 13 13 13 13 11 11 11 10 10 9 8 7 7 7 7 8 9 9 8 8 10 9 10 12 15 16 19 21 24 23 22 21 21 18 14 13 10
16 16 15 14 14 14 13 13 13 12 11 10 10 11 11 10 10 10 10 9 9 8 7 7 7 8 8 7 8 10 12 13 16 18 17 16 16 15 14 14 13 12 11
16 16 14 14 14 13 13 12 10 9 8 8 8 8 8 8 8 8 7 6 6 6 5 5 4 5 5 5 6 8 9 9 9 9 8 10 12 11 10 11 11 11 11
14 11 12 12 13 12 12 10 9 8 8 7 6 5 4 3 3 2 2 2 2 2 3 3 4 4 3 3 4 5 7 7 7 7 8 9 10 10 9 10 10 10 11
9 9 10 10 11 11 12 10 10 8 8 6 4 3 2 2 3 3 4 4 4 4 5 5 5 5 5 6 7 8 9 8 7 8 9 9 10 10 11 11 12 12 11
9 9 9 9 8 8 8 9 8 6 5 4 5 4 4 6 8 6 6 5 5 4 5 5 6 6 6 6 7 8 9 10 10 9 9 9 9 10 12 12 13 14 15
8 8 7 6 7 8 8 8 8 6 6 6 5 7 6 6 6 5 5 5 6 6 6 7 7 8 8 8 8 8 9 10 10 10 10 10 10 11 11 12 13 15 17
10 9 9 9 9 9 9 9 8 7 7 8 8 7 6 4 4 5 5 6 7 8 9 9 9 10 11 10 10 10 10 10 11 11 10 10 11 12 15 16 17 17 17
11 10 9 10 10 10 9 9 9 9 9 8 7 5 3 2 4 4 5 7 8 10 10 10 12 12 13 14 12 12 11 10 10 10 11 12 13 13 13 14 13 12 11
10 10 10 11 11 11 11 11 10 10 9 7 5 3 1 2 3 4 6 7 9 10 10 11 11 12 12 13 13 12 12 12 11 12 11 10 9 9 8 8 8 9 10
10 10 11 13 13 13 12 11 11 10 8 6 4 2 2 3 5 7 9 10 10 10 11 12 11 11 11 11 11 11 12 11 12 11 10 9 8 8 9 9 11 12 13
11 12 13 13 13 13 12 12 11 9 8 6 4 4 4 5 7 9 11 13 13 13 13 12 11 11 11 10 10 10 11 11 11 10 9 8 9 10 11 12 13 16 16
13 13 13 14 14 14 14 13 11 9 7 6 5 5 6 7 8 9 11 12 13 14 14 13 12 12 12 10 10 11 11 11 11 10 10 10 12 14 14 14 14 14 16
14 15 16 16 15 14 13 12 11 10 9 9 8 8 8 9 10 11 12 12 13 14 14 13 13 13 12 12 12 12 11 12 12 12 12 13 14 15 15 15 15 16 17
18 18 18 17 16 16 15 14 13 12 12 10 9 9 10 10 11 12 13 14 14 14 15 14 14 14 13 13 13 12 13 13 14 14 14 15 16 16 17 17 17 17 18
19 18 18 19 19 17 17 16 14 13 14 13 12 11 12 11 11 12 13 14 14 14 14 15 15 15 14 14 14 14 13 13 15 16 17 17 17 18 20 20 20 20 21
18 18 20 20 19 19 18 17 17 17 16 14 14 14 13 13 12 13 14 15 14 16 16 16 16 15 15 15 15 16 15 15 16 17 18 19 19 20 21 23 23 23 24
22 21 21 22 22 20 20 20 20 20 19 17 17 16 15 15 14 14 15 16 16 15 16 17 16 15 16 16 17 17 18 18 17 18 19 19 20 22 23 24 24 25 26
23 23 24 24 24 25 24 24 23 22 21 20 19 16 16 16 15 15 16 16 16 16 16 17 15 16 16 17 18 18 19 19 19 19 20 22 22 24 25 25 26 27 26
22 24 26 27 28 29 27 27 25 23 23 21 19 17 17 17 16 16 16 16 17 16 16 17 15 15 16 18 19 21 21 22 22 21 22 23 23 25 24 26 27 27 28
22 23 25 27 28 31 33 33 33 29 24 22 19 19 18 19 17 16 16 16 17 16 16 17 16 17 17 19 21 22 23 23 23 23 25 25 25 26 26 27 27 27 28
22 23 25 27 29 30 32 32 31 30 30 25 20 20 19 18 17 17 17 17 17 17 16 18 19 20 20 21 22 23 24 24 24 25 26 26 27 27 27 28 28 30 30
20 23 24 26 28 29 30 32 30 29 29 28 26 21 18 18 18 17 17 18 18 17 17 19 22 22 22 23 23 23 24 24 26 26 26 28 29 27 27 29 30 30 28
21 23 24 25 25 26 27 29 28 28 27 26 24 22 17 17 18 16 17 19 18 18 19 22 23 23 23 24 24 24 25 26 27 27 28 28 27 26 27 28 28 31 34
18 20 22 22 22 23 24 25 24 24 23 22 25 24 17 18 16 16 17 18 20 21 22 22 24 24 25 25 25 25 26 27 27 26 25 26 26 26 29 33 36 39 41

GFSGL_850_spd_057.txt.gz
Wind_Speed
13 14 16 16 16 15 15 15 13 13 12 12 11 10 10 8 8 8 9 11 13 14 14 16 17 19 18 16 13 12 11 13 14 16 16 17 20 19 19 17 18 13 13
14 15 16 15 15 15 15 15 13 13 12 12 12 11 11 10 8 7 7 6 7 7 8 11 13 10 10 12 12 11 13 14 15 17 17 18 16 11 12 12 9 11 11
15 16 17 16 16 16 16 15 13 13 12 11 11 11 11 11 10 9 8 8 8 8 7 7 7 7 8 9 10 10 11 11 13 14 13 10 6 9 8 8 8 8 8
17 18 18 17 16 16 15 14 12 11 10 9 9 9 9 9 8 7 7 6 6 5 5 5 5 6 6 7 7 7 8 8 7 6 5 5 6 7 8 8 8 9 8
17 17 15 15 15 15 14 13 12 11 10 9 8 7 6 6 5 4 3 3 3 3 3 2 1 1 1 3 3 4 5 5 4 4 5 7 9 9 10 10 10 10 10
15 13 11 12 14 14 14 13 11 11 9 8 6 6 6 5 4 4 4 4 4 3 3 1 1 2 3 5 6 7 6 5 5 6 6 7 9 10 10 10 10 10 9
12 11 11 11 11 11 11 11 11 10 9 7 8 7 7 8 8 7 7 6 3 2 1 1 3 4 5 6 6 7 8 8 7 7 7 7 8 9 10 10 11 11 12
12 10 10 10 9 9 10 11 11 10 8 9 9 9 9 10 8 7 6 4 2 1 1 3 5 5 5 6 7 8 8 9 8 7 7 8 9 9 10 11 12 13 14
12 10 10 9 9 9 10 11 11 11 10 10 12 11 10 8 7 5 3 2 2 3 4 5 6 7 7 6 7 7 7 8 8 8 8 9 9 11 13 12 12 12 11
12 11 10 10 11 10 11 12 12 12 12 13 12 10 8 6 5 3 2 2 3 5 6 7 8 8 10 8 7 7 7 7 7 8 9 9 9 9 9 9 8 7 7
12 12 12 13 13 13 14 14 14 14 14 14 11 8 7 5 3 1 2 4 5 6 7 7 8 10 10 11 9 8 8 6 6 7 7 7 6 6 6 5 6 7 7
12 12 13 14 15 15 15 15 15 15 14 12 9 7 5 4 2 2 3 4 6 6 8 8 8 8 8 9 9 10 9 7 8 8 7 6 6 6 6 8 9 10 11
12 13 13 15 16 16 16 15 15 14 12 10 8 7 5 5 4 4 6 8 8 8 8 8 7 6 7 7 8 8 8 9 8 8 7 6 6 7 9 11 11 13 13
12 13 14 15 16 16 16 16 15 13 11 10 8 8 7 6 6 6 7 8 9 10 10 9 8 7 7 7 7 8 9 8 8 8 7 7 8 10 10 11 11 12 14
12 13 15 15 16 16 15 14 13 12 12 11 10 9 8 8 8 7 8 8 9 10 9 7 8 8 8 8 8 9 9 9 9 9 8 9 9 11 11 12 13 14 15
14 16 16 17 17 16 16 16 15 14 14 13 12 11 10 10 9 8 9 9 10 10 10 9 10 10 9 9 9 9 10 11 10 10 10 11 11 13 14 15 15 15 16
16 16 16 18 19 19 18 18 17 16 16 15 15 13 12 12 11 10 10 10 10 10 10 11 12 11 10 11 11 10 10 11 11 12 13 13 14 15 16 17 18 19 19
17 16 17 17 19 19 20 19 18 19 19 17 16 15 15 14 13 12 12 12 11 12 12 13 12 12 11 11 11 12 12 12 12 14 15 15 16 17 19 19 20 21 22
23 22 21 20 20 21 21 21 21 21 21 19 19 19 17 16 15 14 14 14 13 13 14 14 13 12 12 12 12 13 14 13 14 15 15 17 17 19 20 21 21 22 24
22 21 22 23 24 24 25 24 24 24 24 23 22 20 19 19 18 16 16 16 16 14 14 14 13 12 12 13 13 14 15 16 16 17 18 19 19 22 22 22 23 24 24
20 21 23 24 25 26 27 28 29 28 27 25 23 20 20 21 19 19 18 17 16 16 15 15 14 13 13 15 16 17 18 19 18 19 20 20 21 22 22 23 24 24 25
19 19 20 22 22 24 26 28 31 31 32 32 31 27 23 24 20 21 19 17 16 16 15 15 15 15 15 17 18 19 20 20 19 20 21 21 22 23 23 23 24 24 25
17 19 19 21 22 23 25 27 29 31 32 31 29 30 29 28 21 20 17 18 17 16 15 16 16 17 18 19 20 21 22 21 21 22 22 23 23 24 24 25 24 25 25
14 17 18 20 22 25 26 26 26 27 28 28 28 28 29 28 21 21 18 18 16 16 18 18 17 18 21 21 21 22 23 23 23 23 24 25 26 25 25 24 25 25 25
14 16 18 19 21 22 23 22 23 23 24 25 25 25 26 25 26 19 16 17 15 18 17 17 19 21 22 22 23 23 23 24 24 24 25 26 27 25 24 24 25 27 28
11 12 14 16 18 18 19 20 20 19 19 20 21 21 21 22 22 19 15 17 18 19 19 20 21 21 22 23 23 23 24 24 24 25 26 27 27 27 26 29 31 33 34

GFSGL_850_spd_060.txt.gz
Wind_Speed
16 16 17 18 19 19 19 18 18 18 17 17 16 15 13 12 11 11 11 12 13 14 15 16 16 18 18 18 18 17 18 15 16 17 17 19 20 22 23 19 16 17 13
16 16 17 18 18 18 19 19 18 18 16 16 16 15 14 13 12 11 10 9 10 9 10 11 11 12 14 14 13 14 14 13 14 17 18 20 21 18 11 12 8 9 10
16 17 18 19 19 19 20 19 18 18 18 16 16 15 14 14 14 14 12 12 11 11 11 12 12 11 11 11 11 12 12 13 13 16 17 17 14 8 7 7 7 6 8
18 19 19 20 20 20 19 19 18 18 17 16 15 15 13 13 13 13 12 11 10 10 9 9 8 8 8 8 9 10 10 10 10 11 10 8 7 8 8 8 8 8 10
19 19 20 20 19 19 17 17 17 16 16 15 14 14 12 12 11 10 9 8 7 7 6 5 4 4 4 5 5 6 7 7 6 6 6 7 8 9 9 9 9 9 11
19 19 19 18 16 15 16 15 15 15 14 13 12 10 9 9 9 8 7 6 6 5 4 3 2 3 4 5 6 7 7 6 7 8 7 7 10 10 9 9 10 9 6
19 18 17 16 14 13 14 13 14 14 14 12 11 9 9 9 8 8 8 7 6 4 3 3 3 4 5 6 6 7 7 7 8 8 8 8 9 10 10 10 10 10 9
19 18 17 15 13 13 13 13 13 13 12 11 11 10 10 10 10 9 7 6 5 4 3 4 4 4 5 5 7 8 8 8 7 7 8 9 9 9 9 9 10 11 10
19 17 15 14 12 11 11 12 13 14 13 11 11 12 12 11 9 7 6 6 5 3 5 5 4 5 4 6 7 7 8 9 8 7 7 8 8 9 8 9 8 8 6
18 16 14 13 12 11 12 13 14 13 12 12 14 13 12 10 8 7 6 5 4 4 5 4 5 6 6 5 6 6 7 8 8 7 8 8 8 8 8 7 6 5 4
16 16 15 14 14 14 14 15 15 14 14 15 15 13 11 10 8 7 5 4 4 5 5 6 7 8 8 6 4 6 6 7 7 7 7 7 7 6 6 6 6 6 6
16 16 15 15 16 16 15 16 16 16 17 17 16 14 12 10 8 7 6 5 4 5 6 7 8 8 8 7 7 8 7 7 8 8 7 7 7 7 7 8 9 10 10
16 13 15 16 17 18 18 18 19 19 18 18 16 14 12 11 10 8 7 5 5 6 7 8 8 7 7 8 8 9 8 9 9 9 8 8 8 9 9 11 12 13 13
12 15 16 17 18 20 20 19 19 19 19 18 17 15 13 13 12 10 9 8 8 8 9 9 8 7 7 8 9 9 9 9 10 10 10 10 10 10 10 11 11 12 14
15 16 16 17 19 20 20 19 19 19 18 16 15 15 15 14 12 11 10 10 10 11 11 10 9 8 9 9 10 10 10 10 10 11 11 11 12 12 12 12 13 14 14
13 15 17 18 19 20 20 20 20 20 20 19 18 17 16 15 14 12 11 11 11 12 11 10 10 10 10 11 11 11 11 11 12 12 12 13 13 14 15 15 15 15 16
18 14 15 17 20 20 21 21 21 20 20 20 20 19 18 15 15 14 13 13 13 13 13 12 12 12 12 12 12 12 12 12 13 14 14 14 15 16 16 17 17 18 19
20 16 17 16 20 20 21 21 20 21 21 20 19 18 18 18 16 15 14 16 16 16 15 14 14 14 14 14 14 13 13 13 14 15 16 16 17 18 19 19 19 20 21
23 23 22 21 20 22 22 22 22 22 22 22 21 21 20 19 18 18 19 20 19 17 17 17 16 15 15 15 15 14 14 14 15 16 17 18 19 20 21 21 22 22 24
24 24 24 24 24 24 24 25 25 25 25 25 24 22 21 23 23 22 21 21 20 19 18 19 17 17 17 16 15 14 16 17 17 18 19 20 20 21 22 22 23 24 25
23 23 23 24 24 25 26 27 28 29 30 31 32 30 24 26 27 25 24 21 22 21 20 19 19 18 18 17 16 17 18 19 19 19 20 21 21 22 22 23 24 25 25
21 21 22 22 21 22 23 24 26 28 30 30 31 32 31 34 33 28 28 28 22 21 21 21 20 19 18 18 18 19 21 21 21 21 21 21 22 23 23 24 25 25 25
17 19 20 21 21 20 21 23 24 26 28 29 30 31 30 31 32 32 30 28 20 21 22 20 18 19 19 20 20 21 22 22 22 23 23 23 24 24 25 25 25 25 25
13 15 16 18 19 20 21 22 23 24 24 25 26 26 27 28 29 32 30 27 26 22 20 18 19 21 21 20 22 23 23 23 24 24 24 24 25 26 27 27 27 26 25
12 13 14 15 16 18 19 21 22 23 23 23 23 23 23 24 26 27 27 27 22 20 20 22 19 19 20 22 23 23 23 24 25 25 25 25 27 28 28 25 25 25 25
11 13 14 15 16 17 18 19 20 21 21 21 21 20 20 20 20 21 21 22 23 19 21 20 19 21 22 22 22 23 25 25 25 25 25 26 28 28 27 26 26 27 29

GFSGL_850_spd_066.txt.gz
Wind_Speed
25 27 26 19 21 20 18 18 20 21 22 22 22 21 20 20 19 18 18 16 15 14 13 13 14 15 15 15 15 17 18 20 20 20 19 21 21 19 18 20 20 16 13
22 21 19 15 14 14 16 19 20 21 22 21 20 20 20 19 17 17 16 15 13 13 13 14 15 15 16 15 15 18 20 18 16 16 17 17 17 17 19 18 13 11 10
21 20 17 16 16 16 17 18 19 20 21 21 20 20 20 19 17 16 16 16 15 15 14 13 12 13 13 14 15 13 13 12 13 15 17 18 15 15 14 11 8 9 9
20 18 17 15 14 15 17 19 20 21 21 20 21 20 19 18 17 16 16 17 16 16 15 15 14 14 13 13 12 12 12 12 12 13 11 11 10 8 9 9 10 11 10
19 18 16 15 15 16 18 20 21 20 20 21 19 18 18 17 17 16 16 16 15 15 14 14 13 13 12 11 10 9 9 10 10 10 9 8 8 8 6 8 10 10 11
19 18 16 16 17 17 19 20 19 18 18 18 18 18 17 16 15 15 14 14 13 13 10 11 9 8 7 6 7 9 8 7 9 9 10 8 9 9 10 9 10 10 8
19 18 17 17 17 18 19 18 15 15 15 15 15 14 15 14 14 12 12 12 11 10 9 8 8 8 6 6 5 5 6 6 8 9 10 10 12 10 11 11 12 11 9
20 19 17 17 17 18 17 16 15 14 13 14 14 14 14 13 11 10 10 10 10 9 9 7 8 7 6 5 6 6 6 5 7 9 10 10 11 11 11 10 10 10 9
22 20 19 18 18 18 16 14 14 13 12 12 13 13 14 12 9 9 9 8 8 7 6 6 8 6 6 6 7 8 7 6 7 8 9 10 9 10 10 10 10 9 6
24 22 19 19 18 18 15 15 12 11 11 13 12 13 14 11 11 9 8 8 8 7 7 7 7 8 7 8 9 8 7 7 6 7 8 7 7 8 8 8 8 7 5
23 20 20 19 18 16 15 13 11 12 13 13 12 13 11 11 10 9 9 8 8 7 7 7 7 8 8 8 8 8 7 8 7 6 7 6 7 7 6 6 6 6 7
21 20 20 18 18 14 13 13 13 14 15 14 13 13 12 12 11 10 10 9 8 8 8 8 8 8 8 8 7 7 7 7 8 7 7 7 8 8 6 6 7 9 9
18 19 18 18 17 14 14 13 15 15 16 15 15 14 14 13 12 11 10 9 9 9 9 9 9 9 8 7 7 7 7 7 8 8 8 9 9 9 9 9 10 10 11
16 17 19 17 16 15 15 15 15 17 16 17 17 16 15 14 13 12 11 11 11 10 11 11 11 10 9 9 9 8 8 9 9 10 10 10 11 10 10 11 12 13 12
13 16 17 15 16 15 15 15 15 16 17 17 16 15 16 15 11 11 12 12 12 12 13 13 12 11 11 11 10 10 9 10 10 10 11 11 12 13 11 12 12 13 15
14 14 16 15 16 16 14 13 14 16 17 18 18 18 17 16 15 14 14 14 13 14 16 15 13 13 12 12 12 12 12 12 11 11 11 12 13 13 13 13 14 15 16
18 18 18 18 19 19 17 16 15 18 19 18 18 18 17 16 15 16 16 16 16 17 19 17 16 14 13 13 13 14 14 14 14 14 13 13 14 14 15 15 16 17 18
20 20 21 20 20 19 20 19 16 17 18 18 19 19 19 18 19 19 19 19 21 22 21 20 18 16 15 15 15 16 15 15 15 14 14 14 15 15 16 17 17 19 20
21 22 21 22 21 20 18 20 19 18 19 18 17 20 20 20 21 21 21 24 23 23 22 22 20 17 17 17 17 17 17 16 16 16 15 16 16 16 18 18 19 20 21
21 20 21 22 22 23 22 21 23 23 24 21 20 19 17 19 23 24 24 25 26 26 24 25 22 21 19 18 18 18 18 18 17 17 16 17 17 18 20 20 21 22 22
23 20 20 22 23 23 25 26 23 23 24 26 27 25 24 25 27 27 29 30 30 32 33 32 30 27 31 29 20 21 21 17 19 17 17 18 18 22 22 22 23 22 23
23 21 20 23 22 23 23 24 26 27 27 27 26 26 26 27 29 30 32 33 33 33 32 30 29 27 27 26 19 23 20 19 19 18 19 21 21 23 23 24 23 23 23
18 18 18 20 21 21 20 20 21 22 22 23 23 24 24 25 26 27 29 29 30 32 32 32 32 30 30 28 25 22 20 23 24 18 22 23 22 24 24 24 24 24 24
14 16 19 20 21 21 20 19 19 18 18 18 19 19 20 20 21 23 25 25 26 27 26 25 27 30 28 28 24 20 23 22 17 20 22 21 24 24 25 26 27 26 26
12 12 13 15 16 17 17 17 17 16 16 16 17 17 18 19 22 22 22 22 21 23 22 21 22 23 26 24 25 22 20 19 20 17 20 23 24 25 26 27 28 27 26
11 11 12 13 13 13 14 14 15 15 16 16 15 16 19 19 19 19 18 17 17 18 17 17 17 18 20 22 22 19 18 15 17 20 21 23 25 26 26 27 25 24 25

GFSGL_850_spd_072.txt.gz
Wind_Speed
23 23 24 24 24 25 25 26 30 30 29 26 24 23 22 21 22 24 24 23 23 22 21 21 21 19 18 15 14 14 19 21 21 20 13 17 15 13 20 22 24 16 15
21 22 23 24 24 24 24 24 23 21 22 22 22 22 22 22 23 23 22 22 21 21 20 21 21 19 17 17 18 18 20 20 17 18 16 17 20 21 21 23 16 14 11
19 20 21 23 24 23 21 22 22 21 20 21 21 22 22 23 23 23 23 22 21 21 20 20 18 17 18 19 19 20 20 21 23 23 21 20 20 20 19 17 12 9 8
17 18 19 21 22 22 22 21 19 18 18 20 21 22 23 23 23 23 22 21 20 20 20 19 19 18 18 17 17 18 18 17 16 17 19 18 19 18 15 10 10 8 9
19 20 20 20 21 20 19 18 18 18 19 20 22 22 22 23 22 21 22 21 20 21 20 20 20 19 19 18 18 18 18 17 15 16 17 17 17 15 10 9 10 9 10
20 21 20 20 20 20 19 18 18 19 20 21 22 22 22 22 24 21 21 20 20 20 19 19 19 19 18 17 15 14 13 12 12 13 14 14 12 11 8 8 8 8 8
19 19 20 21 22 21 20 19 19 19 20 21 21 21 21 20 17 16 17 16 17 16 15 15 14 11 10 9 9 9 10 9 10 11 10 10 11 9 9 9 9 10 9
23 21 22 22 24 23 22 21 20 19 20 20 20 20 18 17 15 16 16 14 14 14 14 14 11 10 9 9 8 8 9 7 7 8 9 10 10 10 11 10 9 9 9
28 24 22 23 24 25 24 21 20 19 19 19 19 18 16 14 14 15 16 14 13 14 14 12 10 9 9 8 8 8 9 8 8 8 9 10 9 10 10 9 8 8 9
27 27 22 22 24 26 23 22 22 20 19 19 18 15 13 13 13 14 13 11 12 13 12 12 10 9 9 8 8 9 9 8 8 7 7 7 7 7 7 7 7 8 7
26 28 24 23 23 23 24 24 23 21 20 19 14 13 14 14 14 14 12 12 12 12 12 11 10 9 9 9 9 9 9 8 8 7 7 7 7 7 7 6 6 7 6
20 26 25 23 23 24 25 25 24 22 21 18 15 16 16 15 15 15 14 14 13 13 10 10 9 8 8 8 7 8 8 7 8 7 7 7 7 7 7 7 8 8 8
16 20 23 24 24 24 24 25 24 23 22 19 17 18 18 17 17 17 16 15 15 13 12 11 10 9 9 8 7 7 7 7 7 7 8 8 8 8 8 9 9 9 9
15 16 18 19 21 22 24 24 24 24 23 20 20 21 19 19 19 20 18 16 14 14 13 12 11 10 9 9 9 9 8 8 8 8 8 8 8 8 9 9 10 11 10
13 13 15 16 16 17 20 21 20 20 20 20 18 19 21 21 20 20 18 16 14 13 14 15 14 12 11 11 10 10 10 9 9 8 9 9 10 10 10 12 11 12 10
17 16 16 17 16 15 17 17 18 18 18 20 20 21 20 19 17 19 19 17 17 16 19 18 16 15 14 13 12 12 12 10 10 10 9 10 11 12 13 13 13 13 13
19 21 21 21 20 19 18 19 20 19 19 20 21 21 20 20 19 20 20 18 18 19 23 19 18 16 15 14 13 13 13 12 12 13 12 12 15 15 16 14 14 15 15
20 22 23 23 22 22 21 21 20 21 20 20 21 22 22 21 21 22 22 21 22 23 24 21 18 16 16 16 16 15 14 13 13 14 14 14 15 16 17 16 15 16 16
19 21 21 21 22 22 23 22 22 22 21 19 19 19 18 17 19 20 21 25 23 23 22 20 18 16 16 16 17 17 18 16 19 21 18 16 17 19 18 17 15 17 17
21 22 22 21 19 20 23 24 24 23 22 20 20 20 16 17 21 24 26 26 25 23 21 20 19 20 22 21 22 21 23 27 25 20 21 19 19 20 19 18 20 21 20
24 24 24 24 24 22 21 23 24 25 24 22 20 18 19 21 21 20 21 24 23 21 26 27 25 24 24 23 26 27 27 26 22 24 24 24 24 24 23 22 22 21 20
21 22 24 27 26 25 23 22 22 25 25 23 22 20 20 25 26 28 28 28 27 26 24 23 24 25 26 27 27 29 26 26 27 24 25 22 21 22 24 22 22 20 20
18 19 20 23 27 26 24 23 23 24 24 23 22 22 22 24 24 25 25 23 23 24 23 23 23 24 25 25 25 26 28 27 22 21 20 20 23 23 22 22 21 20 20
17 16 18 20 22 24 23 23 22 23 23 22 22 21 20 20 22 22 22 21 21 20 20 21 22 24 24 23 23 23 24 22 22 21 21 23 23 21 21 20 20 19 19
16 17 17 17 19 20 21 22 22 21 21 21 20 19 18 17 17 17 17 17 18 20 21 21 22 23 22 21 20 19 18 18 17 17 19 19 19 19 18 19 19 20 20
16 16 16 14 14 15 15 18 18 18 19 19 18 17 16 16 16 16 17 19 19 18 18 19 19 19 18 17 15 15 15 15 15 14 16 16 16 17 18 20 20 21 22

GFSGL_850_spd_075.txt.gz
Wind_Speed
22 21 20 20 20 21 22 24 25 24 23 23 22 26 28 28 27 26 26 25 25 24 24 24 22 22 20 18 18 14 15 19 23 24 22 20 22 21 19 16 17 21 25
18 20 20 20 20 21 20 21 22 21 20 21 23 23 24 24 24 24 25 25 25 25 23 23 21 20 19 17 16 18 18 18 16 13 13 16 17 16 17 19 21 23 16
15 17 18 19 19 19 19 20 21 22 22 21 22 21 20 21 22 24 24 25 25 24 23 22 20 20 19 17 17 17 19 21 23 24 23 19 20 19 20 21 22 16 12
12 14 14 14 16 17 19 19 19 19 19 18 18 19 20 21 22 24 24 24 24 23 22 21 20 20 20 18 18 19 18 19 19 18 18 19 19 19 21 22 16 11 11
13 13 14 13 15 16 17 17 17 17 17 17 17 18 20 21 22 24 25 25 25 23 21 21 21 21 20 19 18 18 19 19 21 17 17 18 19 20 19 16 13 12 12
16 15 15 16 16 16 17 17 17 17 16 17 18 19 20 20 21 23 25 23 22 22 20 20 19 18 18 18 18 18 17 16 15 14 14 16 16 16 13 12 11 11 11
20 17 16 17 17 17 17 18 18 17 18 18 18 19 19 19 20 19 18 17 17 16 16 16 15 15 14 11 10 10 10 11 11 13 13 13 12 11 11 11 11 11 12
19 20 18 18 19 18 19 20 20 19 18 17 18 19 19 18 18 17 15 16 16 14 14 14 14 12 10 9 9 9 8 8 8 9 11 12 12 11 11 11 12 11 11
19 21 21 20 19 21 22 23 22 20 19 18 18 19 18 18 16 14 15 16 17 14 13 13 13 10 10 9 9 10 10 9 9 8 10 10 11 10 11 11 10 10 9
18 18 22 23 21 21 21 22 23 22 21 20 20 19 19 17 13 14 16 16 15 13 14 13 11 10 11 9 8 9 10 9 9 9 7 7 7 8 7 8 9 9 8
18 18 18 22 23 21 21 22 23 23 22 21 20 19 18 15 14 15 16 15 12 11 10 9 9 10 10 10 10 9 10 10 10 8 8 7 7 6 6 6 7 7 8
17 16 17 19 22 23 22 22 24 24 24 22 21 21 18 15 15 16 17 15 13 12 10 10 11 11 10 10 9 10 10 9 9 9 8 7 7 7 7 7 7 7 8
16 15 13 15 19 22 23 23 24 25 25 24 23 23 19 15 16 17 18 16 16 14 13 12 13 12 11 9 9 8 9 8 8 8 7 7 7 8 8 7 8 9 10
15 15 16 18 19 22 23 24 24 25 25 24 24 23 18 17 19 19 19 19 18 17 15 14 13 12 12 11 11 10 9 9 9 9 8 9 9 9 9 9 9 10 11
16 15 16 16 17 17 19 20 21 22 22 21 21 18 18 20 19 18 19 19 19 17 16 16 16 16 14 13 12 11 11 11 11 10 10 10 10 10 11 11 12 13 13
18 18 18 17 17 17 19 19 18 17 15 16 17 19 20 20 19 19 19 20 20 19 21 21 19 17 17 14 14 13 13 13 12 12 11 11 12 12 12 14 15 15 15
21 21 21 22 21 21 21 22 21 18 18 17 19 20 21 19 19 19 20 20 21 21 25 23 21 19 17 16 15 15 14 13 14 16 15 13 14 16 16 15 16 17 17
22 21 21 24 25 24 25 24 22 22 20 20 20 20 20 21 20 21 21 21 24 26 28 26 21 19 18 17 17 16 15 15 17 17 17 14 15 16 18 17 17 18 18
26 23 20 21 22 24 25 24 24 23 22 21 20 20 20 21 22 23 23 26 28 28 27 25 20 18 18 17 18 17 17 17 18 18 17 18 19 20 19 17 18 20 19
21 24 25 23 21 22 24 24 24 25 24 24 22 20 18 21 24 25 24 25 29 28 26 25 22 20 19 18 18 19 20 20 22 23 25 24 17 21 21 18 19 20 20
21 21 23 26 24 23 24 25 24 23 25 24 22 20 18 23 25 24 24 26 26 25 26 25 23 22 24 25 24 24 25 25 25 27 25 22 21 22 21 23 23 23 24
22 20 20 22 23 25 25 25 26 25 24 24 22 21 19 22 26 26 26 26 24 23 26 27 28 27 24 25 25 26 27 27 28 27 25 24 24 25 25 23 21 22 22
22 21 19 19 20 23 25 26 26 26 26 25 22 22 22 23 25 26 27 27 27 26 26 24 24 25 25 24 25 26 27 28 28 26 25 22 23 23 24 23 21 21 21
21 19 19 18 18 19 22 25 27 26 26 25 24 23 23 22 24 26 26 25 25 24 24 24 25 24 23 22 23 23 24 23 23 23 24 24 22 20 20 19 17 19 19
17 18 19 18 19 19 20 21 24 26 25 24 23 23 22 21 21 22 22 22 22 23 23 22 21 21 21 23 22 22 20 19 19 19 20 19 18 17 17 16 18 17 17
21 21 20 18 17 18 18 19 21 22 23 23 22 21 20 20 19 19 19 20 20 20 19 19 20 21 23 21 19 19 18 18 18 18 18 17 16 15 14 15 16 17 18

GFSGL_850_spd_078.txt.gz
Wind_Speed
16 17 18 19 19 18 17 17 18 20 21 23 23 22 22 22 21 20 24 23 22 22 22 22 21 21 20 19 19 18 15 15 20 24 22 20 20 21 20 22 20 17 19
11 12 14 16 17 17 17 15 15 17 19 20 21 19 19 20 22 23 21 21 22 23 22 22 20 20 19 18 18 17 16 17 20 19 15 14 20 23 22 18 16 18 23
12 13 12 13 15 15 14 14 13 14 15 17 17 19 20 19 19 19 20 22 23 23 22 22 21 19 19 18 17 16 17 17 19 21 22 22 21 19 18 18 20 23 24
12 11 10 11 12 13 14 14 15 16 17 17 17 18 18 18 18 19 20 21 21 21 21 20 19 18 18 17 16 16 17 19 20 21 21 20 20 21 20 21 21 22 15
15 14 11 10 12 14 15 16 17 18 18 18 17 17 17 16 17 18 19 20 21 22 23 20 18 17 17 17 18 17 18 18 19 21 20 19 19 20 19 19 19 18 15
18 17 15 13 15 16 16 17 17 17 18 17 17 16 16 16 17 18 18 19 20 20 17 16 16 15 15 14 15 16 17 17 17 16 16 17 18 19 18 19 17 14 13
18 19 19 18 17 18 18 17 17 17 17 17 16 15 14 14 15 16 17 17 18 18 15 12 13 13 13 13 12 9 11 12 13 14 14 14 16 16 13 13 12 12 12
19 19 19 22 20 18 19 19 19 19 18 18 16 15 14 14 15 16 17 16 14 14 12 12 12 12 12 10 8 8 8 8 8 9 11 13 12 13 11 11 11 12 12
20 19 19 20 23 20 20 20 20 20 19 18 17 16 14 15 16 17 17 12 11 13 13 12 12 12 12 11 10 10 9 8 8 8 8 8 10 10 10 11 11 11 11
21 19 19 19 24 24 20 20 20 20 21 20 19 17 17 16 16 16 15 10 12 13 13 12 13 13 12 10 8 9 9 9 9 8 7 7 7 8 8 9 10 10 10
21 19 18 18 19 24 22 20 19 21 22 21 20 19 18 17 15 14 14 11 12 13 11 12 12 10 10 10 9 10 10 11 9 9 8 6 7 6 6 7 7 7 7
20 19 17 16 17 21 23 22 22 22 23 23 22 21 19 18 16 14 14 12 14 13 10 10 11 11 12 12 10 10 11 9 9 9 8 6 5 5 6 6 6 6 6
20 17 16 15 14 17 21 23 24 24 24 24 24 22 20 19 17 15 14 15 15 14 13 13 13 13 13 12 11 10 10 8 9 7 6 7 7 7 7 6 7 7 7
23 19 16 15 15 15 18 21 24 25 25 25 25 23 21 19 19 16 17 17 17 16 16 16 15 15 14 13 13 11 9 9 9 8 8 8 8 7 7 7 7 8 10
20 22 18 16 16 17 19 21 22 23 23 22 22 22 21 21 16 14 17 18 17 17 18 18 19 17 17 15 13 12 11 11 10 9 10 9 9 8 8 9 10 12 11
24 22 22 18 18 19 18 20 21 21 21 19 17 15 13 13 15 17 19 19 19 20 23 22 21 19 18 16 14 13 13 12 11 11 11 11 11 11 11 13 13 13 13
25 24 25 22 21 20 20 20 22 22 21 19 17 16 16 14 16 18 19 19 20 22 27 25 23 22 19 17 16 15 14 13 14 15 13 13 13 13 13 13 14 15 16
26 24 24 24 22 21 20 23 23 24 24 22 20 18 16 16 16 17 19 20 21 25 27 28 25 21 19 18 17 16 15 15 16 15 15 14 14 14 15 14 16 17 16
29 25 23 21 22 21 20 21 23 24 24 24 21 20 18 18 18 18 20 24 24 26 27 28 24 19 18 17 17 17 17 17 17 17 16 16 16 17 18 20 18 19 18
29 24 21 22 21 22 21 19 20 21 23 23 23 22 19 18 21 23 26 27 27 27 27 26 25 20 18 17 17 18 19 19 19 20 20 20 20 23 24 19 19 19 19
25 26 23 23 22 21 23 23 21 21 21 22 22 22 20 21 22 23 25 26 26 26 26 25 24 21 20 19 19 21 23 24 25 24 22 22 23 26 23 21 20 21 22
25 25 23 23 21 21 20 22 24 22 21 21 21 21 20 21 22 23 24 24 23 23 23 23 21 22 22 22 23 25 23 25 25 25 24 25 27 23 24 23 23 23 23
25 25 23 22 21 21 20 20 22 24 23 22 22 22 21 22 23 23 24 22 23 23 23 22 23 25 28 30 28 24 24 25 25 26 28 27 27 23 24 21 21 21 20
23 23 21 18 19 20 20 19 19 21 22 21 22 22 22 23 24 23 23 23 22 22 23 24 25 24 24 25 25 24 24 23 24 25 25 24 23 22 21 21 20 19 17
20 17 18 21 23 22 21 19 19 20 20 20 21 20 21 22 22 23 23 23 23 23 24 24 25 25 24 23 22 21 21 23 23 21 21 20 19 19 20 19 17 15 14
19 19 22 26 23 19 19 18 18 17 19 18 18 19 20 20 21 20 21 21 22 23 23 23 22 20 19 19 20 21 21 21 19 18 17 17 17 18 17 16 14 14 14

GFSGL_850_spd_081.txt.gz
Wind_Speed
7 10 14 16 15 15 14 13 13 14 16 17 19 21 22 23 23 20 19 18 19 18 18 18 18 19 18 18 18 18 18 17 18 20 18 18 18 19 18 19 19 18 20
9 8 10 12 14 15 15 15 13 13 14 17 20 23 22 21 21 19 19 20 19 18 19 18 18 19 17 17 17 17 17 16 18 18 19 17 14 14 18 20 22 19 16
12 11 9 9 11 13 14 15 14 13 13 14 15 17 18 18 18 20 20 19 18 18 18 18 19 18 18 17 17 17 16 17 18 20 20 20 20 19 19 19 18 17 17
13 13 12 11 10 10 10 11 12 13 13 15 16 18 19 18 18 18 17 18 17 18 19 19 19 19 19 18 18 17 16 18 20 21 22 22 21 21 21 21 21 19 18
14 14 13 13 13 11 11 11 12 13 15 16 17 18 17 17 17 17 17 17 18 19 19 20 21 21 17 16 16 17 18 19 20 20 20 20 20 19 19 19 20 18 19
17 16 15 15 15 15 15 15 14 15 16 18 18 19 18 17 17 17 17 17 17 17 17 17 16 14 13 13 14 15 17 20 21 21 20 19 17 17 18 18 17 18 18
19 19 18 17 17 18 18 18 18 18 17 18 17 17 16 16 16 16 16 16 15 16 16 16 12 11 11 12 13 14 14 13 15 16 16 15 15 15 16 17 17 16 15
18 19 19 19 18 20 21 20 20 20 20 20 19 18 18 17 16 16 15 14 14 15 14 13 9 10 11 11 11 11 10 9 8 9 12 14 15 14 13 13 13 12 11
18 17 18 19 18 19 23 22 22 21 21 20 19 18 18 17 16 15 14 13 14 13 12 11 10 11 12 12 11 11 10 10 9 8 8 8 9 10 11 10 10 10 12
19 19 18 19 18 19 22 24 23 22 21 21 21 20 19 18 17 17 16 14 13 13 13 13 13 13 13 13 11 10 10 10 9 9 7 7 7 8 8 9 9 9 10
19 20 20 20 18 17 20 26 24 22 22 23 23 22 21 20 19 18 18 15 13 13 12 13 14 14 14 12 11 11 10 10 10 9 9 8 7 7 8 8 8 8 8
20 18 19 19 19 18 18 22 27 25 25 25 24 25 24 22 21 21 19 16 13 13 12 13 15 16 15 14 11 12 11 10 11 11 10 9 8 9 8 7 7 7 8
20 17 17 18 17 16 16 18 25 28 28 27 26 25 25 23 22 22 21 19 14 13 14 14 14 15 15 14 13 12 11 9 11 11 10 10 10 10 8 8 7 8 6
22 20 18 17 18 16 15 16 20 25 28 29 27 26 26 24 23 24 23 20 18 16 16 16 17 16 16 14 15 13 12 10 10 10 10 10 9 8 8 8 9 8 7
24 23 21 20 17 16 17 17 20 21 24 26 26 25 24 25 24 21 21 20 20 17 16 19 21 21 20 18 17 16 14 13 12 11 11 10 11 11 10 10 9 7 8
26 24 24 23 21 18 17 19 20 21 24 25 24 23 23 20 17 19 20 21 21 21 24 24 23 21 21 19 18 17 16 14 13 13 13 12 12 11 11 11 10 9 10
26 26 26 25 24 21 19 19 22 20 21 22 24 23 21 17 16 18 18 19 20 23 28 26 24 23 22 20 19 18 17 14 14 15 14 14 14 14 14 12 12 12 11
29 25 25 26 25 22 21 19 20 22 22 23 24 25 22 19 18 18 18 18 22 25 28 27 27 25 24 22 20 19 18 17 18 17 16 15 15 16 15 14 14 13 14
26 28 25 23 22 21 21 20 20 20 23 25 25 24 24 21 20 19 19 22 24 26 27 27 25 24 23 21 20 20 19 19 19 19 18 17 17 17 17 16 15 17 18
27 24 20 21 25 22 21 21 22 20 20 21 23 25 23 21 23 23 23 25 24 24 26 25 23 21 21 20 20 20 20 21 21 20 19 18 18 19 20 19 19 19 19
26 24 22 21 25 21 22 21 21 22 21 20 20 20 20 22 23 23 24 26 24 23 23 24 23 22 20 19 20 21 20 20 21 20 21 22 22 23 22 22 21 20 19
24 23 23 26 24 21 22 21 20 20 21 21 18 18 15 17 20 22 22 23 22 19 19 19 20 21 20 19 20 21 21 21 20 26 26 27 26 24 23 23 23 22 21
22 21 24 25 24 21 19 19 19 19 20 21 20 18 17 16 17 20 21 21 20 18 18 18 19 21 23 23 24 28 30 27 28 24 23 24 24 24 25 25 23 22 21
20 21 23 23 18 17 19 22 21 18 17 18 19 19 19 18 18 18 19 20 20 19 19 20 21 21 21 23 26 27 27 25 24 23 23 24 24 24 24 24 22 20 18
21 21 19 19 19 19 25 24 20 19 17 17 18 18 19 18 19 18 19 19 20 20 20 21 22 23 23 23 23 22 22 23 23 22 22 22 21 20 20 19 19 18 18
21 21 20 22 23 23 22 19 17 16 16 16 16 17 17 18 18 17 18 19 19 19 20 22 22 22 22 22 21 20 19 19 20 20 20 19 19 18 18 18 18 18 17

GFSGL_850_spd_084.txt.gz
Wind_Speed
4 2 4 8 10 12 13 13 14 15 17 20 22 23 23 22 23 24 24 24 23 22 21 20 21 20 20 20 20 20 21 20 20 21 21 17 16 17 17 18 18 19 20
5 6 7 8 8 9 12 14 15 16 16 17 20 23 24 24 24 25 25 24 23 22 20 21 21 19 20 21 21 20 21 19 19 20 20 18 16 16 16 17 18 20 18
10 9 8 9 10 11 12 12 14 15 17 17 19 22 25 27 27 26 25 24 23 22 21 20 21 21 21 21 22 22 21 20 18 20 22 19 18 17 18 19 18 18 17
13 13 13 11 10 11 13 14 15 15 15 16 18 20 23 24 25 24 23 23 22 22 21 21 22 22 21 21 22 22 23 21 19 20 22 21 19 19 20 20 21 21 18
13 13 14 15 15 14 13 14 15 16 16 16 16 18 20 21 22 23 22 21 21 21 20 21 21 22 24 24 24 23 20 19 19 21 22 21 20 19 19 18 18 18 18
17 17 16 15 15 16 17 16 16 17 19 19 20 21 22 23 23 22 21 20 21 21 20 20 20 21 21 21 20 18 19 20 20 21 20 22 21 20 19 18 17 16 16
19 19 18 18 15 15 18 20 19 20 20 22 23 24 24 24 23 22 21 20 21 20 19 18 17 17 16 16 14 15 15 16 17 17 20 19 18 16 15 16 16 16 18
20 19 19 19 18 17 17 21 23 23 22 23 23 24 24 23 22 21 20 19 20 18 17 16 16 13 13 13 13 13 13 12 11 11 14 15 15 14 14 14 14 16 16
19 18 18 19 19 18 19 19 24 25 24 23 24 24 24 23 22 21 21 19 17 17 15 15 14 12 11 12 13 12 12 12 11 10 9 9 11 12 12 12 13 13 13
18 19 20 20 20 20 19 20 21 26 25 25 24 24 24 23 22 22 21 18 17 16 16 15 15 13 13 14 14 15 14 13 12 10 8 8 9 10 11 12 12 12 12
17 17 17 18 20 20 21 20 22 25 27 26 26 26 26 25 24 23 23 21 18 19 17 16 16 15 17 17 16 16 14 13 13 11 10 10 9 9 10 10 10 10 11
19 18 17 17 19 20 20 19 20 23 28 28 28 29 28 27 26 25 24 23 21 20 17 16 16 17 19 19 16 15 15 14 13 13 13 12 11 11 11 9 8 9 9
21 21 20 19 18 18 20 19 18 19 26 32 32 31 30 30 28 27 25 26 24 22 18 16 16 17 20 18 16 16 16 14 14 14 14 13 12 12 10 10 9 9 7
21 21 23 22 21 18 19 19 19 20 22 30 35 35 33 31 29 27 27 29 28 25 20 16 16 17 18 18 19 18 18 15 14 14 14 14 12 11 11 11 10 9 8
20 22 22 24 24 22 21 21 21 21 23 24 30 33 34 33 29 27 26 28 31 29 19 20 20 22 22 22 22 19 19 18 17 16 15 14 13 13 13 12 11 11 10
21 21 23 25 24 26 25 24 23 20 22 23 25 28 28 28 27 25 25 26 27 26 26 26 25 25 25 25 24 23 23 21 18 17 16 16 15 14 14 13 13 13 12
24 24 25 25 22 23 26 25 25 24 23 21 25 27 27 27 27 26 24 25 25 28 31 29 29 26 26 26 25 25 23 21 18 18 17 16 15 15 16 16 14 14 13
22 22 22 24 23 23 24 24 22 23 25 24 22 25 26 27 26 24 23 23 26 29 31 30 31 30 29 27 27 26 24 23 21 20 19 18 17 17 17 17 16 15 14
25 27 25 22 22 23 24 26 24 24 25 24 23 23 24 27 26 25 25 29 31 31 31 31 30 31 29 28 28 25 24 23 22 21 20 19 18 18 18 19 18 16 17
27 28 26 22 23 25 26 27 24 24 24 25 25 23 22 24 28 29 30 31 32 32 30 29 28 28 26 26 28 25 25 25 25 24 22 20 19 19 19 19 19 19 20
28 29 27 23 23 26 26 26 23 24 25 24 25 24 20 21 29 32 33 33 34 32 29 26 25 26 25 24 26 26 25 25 25 23 22 21 20 20 19 20 21 21 21
28 27 25 22 22 27 26 25 24 22 23 23 24 24 20 20 23 30 32 33 31 29 25 22 23 25 24 24 25 26 25 25 23 22 20 19 19 21 23 23 24 24 24
26 24 23 23 25 25 24 22 20 19 21 21 21 22 22 19 21 25 28 28 28 26 24 23 22 22 23 24 25 23 24 24 20 19 21 23 23 25 27 26 26 26 25
24 21 22 24 24 23 21 21 21 22 24 24 22 21 20 19 19 21 21 22 22 22 22 22 22 20 21 25 25 24 25 25 27 29 32 29 25 24 25 26 26 26 25
22 25 26 26 24 22 22 22 23 26 25 21 21 19 20 19 19 19 20 19 19 20 21 21 21 21 24 25 26 27 26 26 25 24 24 25 25 24 24 24 24 24 24
26 26 25 24 25 26 25 25 24 22 20 20 20 19 18 19 20 20 20 19 19 19 20 20 21 21 21 23 24 24 24 24 24 24 24 23 22 22 22 22 21 21 21

GFSGL_850_spd_087.txt.gz
Wind_Speed
5 3 3 6 9 11 14 18 19 22 24 23 26 26 27 29 31 32 32 30 27 27 26 25 22 21 21 21 21 22 21 20 19 19 22 22 20 18 15 17 16 15 16
7 5 4 3 4 8 12 15 17 19 21 21 22 23 24 27 29 30 29 27 27 27 25 24 22 22 21 22 22 22 22 21 20 18 21 18 19 16 17 16 16 16 16
8 8 7 8 8 8 10 12 15 17 18 19 20 22 23 26 28 27 27 28 28 26 26 25 24 23 23 24 23 23 22 21 20 20 19 19 17 17 17 17 19 19 20
9 9 8 8 9 10 13 13 14 15 16 18 19 21 22 26 27 29 29 28 29 27 27 26 25 24 23 23 24 23 20 19 19 20 18 21 19 19 18 19 19 20 20
10 11 13 13 12 11 12 14 15 14 15 16 17 19 20 23 26 29 30 29 27 26 26 24 25 24 23 24 24 22 22 22 21 20 19 21 21 21 20 18 17 17 18
13 13 14 15 15 15 14 14 17 17 17 17 16 18 18 20 22 22 22 24 24 25 24 24 24 24 24 24 24 25 25 22 22 21 20 22 21 20 19 19 19 17 16
17 15 15 15 16 17 16 16 17 19 20 20 20 20 20 22 22 23 24 25 24 24 23 23 23 21 21 21 22 21 19 17 17 20 20 22 21 20 17 17 15 14 16
17 18 18 19 18 18 17 17 17 19 22 23 22 23 23 24 22 23 24 25 25 24 23 23 21 21 20 20 17 17 16 15 16 19 17 15 19 15 15 14 12 14 15
16 18 19 19 20 19 20 20 18 20 22 25 24 24 25 26 24 24 25 25 23 22 22 23 22 21 18 17 15 13 14 16 14 13 12 12 12 13 14 14 16 13 13
18 19 19 17 16 18 20 21 21 20 22 24 27 26 25 26 26 26 26 25 24 23 23 23 21 20 17 16 14 15 15 16 14 12 11 11 12 11 11 13 13 12 13
20 20 21 21 21 19 20 19 19 20 21 25 27 28 27 27 28 27 27 27 24 22 22 22 21 19 18 18 16 17 15 17 14 13 13 11 12 10 12 12 12 13 13
19 20 20 21 20 20 20 20 18 19 18 21 25 29 31 31 30 30 29 27 25 24 23 21 20 19 19 18 18 19 19 18 17 15 15 14 13 13 11 12 11 11 11
21 20 19 21 21 20 21 21 22 18 19 20 23 29 33 33 33 32 31 29 28 27 24 21 21 18 18 18 19 21 20 20 19 17 17 16 15 13 13 12 12 11 9
20 19 19 21 21 22 21 21 22 22 21 21 22 25 29 33 34 34 32 31 30 29 25 24 21 18 18 20 22 23 22 22 20 18 17 17 16 15 15 14 13 11 10
20 21 20 20 20 22 23 24 24 22 21 22 24 24 24 28 33 34 32 32 31 30 28 25 24 24 23 23 25 25 25 23 22 20 19 19 18 17 17 15 14 13 13
20 21 20 22 24 25 24 27 26 26 24 24 24 24 26 26 24 28 29 29 27 25 31 32 29 29 27 25 26 28 25 25 24 22 20 19 19 17 16 15 14 15 14
22 21 22 23 23 24 25 24 29 33 25 25 24 24 24 27 26 26 26 25 27 27 32 33 34 33 30 29 28 28 28 26 22 22 22 21 20 18 18 17 17 17 16
20 21 23 23 22 21 22 25 26 26 30 30 24 22 22 22 26 27 26 24 27 29 34 34 36 35 33 31 28 28 28 27 25 25 24 23 21 20 19 18 18 18 16
19 19 20 23 24 24 20 24 27 27 27 27 28 24 24 22 20 25 25 27 31 33 36 34 33 34 34 32 31 29 29 28 26 27 26 24 22 21 20 20 19 18 17
20 19 20 22 22 22 24 26 26 26 26 26 26 25 25 23 20 21 27 30 32 33 36 36 35 34 32 30 30 30 30 29 28 28 27 24 22 21 21 20 19 20 19
20 23 23 22 26 22 21 25 26 28 28 27 26 26 22 22 23 21 24 33 36 35 36 36 37 34 29 27 26 28 29 30 29 28 27 25 24 23 21 20 19 19 19
24 25 24 24 23 22 23 24 26 26 27 25 26 26 25 21 24 23 23 28 34 35 35 36 35 31 27 25 26 28 28 31 31 30 28 25 24 22 21 21 20 20 21
27 27 26 22 22 22 23 25 26 25 25 22 24 25 26 24 22 23 23 24 28 32 33 33 30 28 26 24 25 25 28 30 29 26 26 25 24 23 22 21 24 24 25
23 22 21 20 21 23 25 26 26 25 25 26 28 27 26 25 23 22 21 21 22 26 28 27 26 25 25 23 23 24 25 25 25 24 23 22 21 22 25 24 23 23 25
21 22 24 23 25 28 27 26 26 28 29 28 28 26 24 24 22 21 19 17 18 19 22 23 22 22 22 23 23 25 26 24 23 23 24 24 27 27 27 26 24 23 24
23 23 21 26 28 25 24 25 26 25 25 25 24 24 22 22 22 20 18 17 16 16 18 20 19 20 21 22 21 22 25 25 25 26 26 27 27 26 24 24 23 23 23

GFSGL_850_spd_090.txt.gz
Wind_Speed
5 3 1 4 8 11 13 16 22 23 23 25 26 29 30 33 36 34 33 31 30 31 29 30 32 26 23 22 23 21 20 20 22 23 21 21 22 22 19 16 16 14 11
7 3 1 2 5 7 9 13 16 18 20 23 25 26 27 29 30 32 32 31 31 32 31 29 30 27 25 24 22 22 20 19 22 22 22 21 21 20 18 16 17 14 12
6 5 5 4 5 6 7 10 12 15 18 20 22 23 25 26 27 27 31 31 33 33 28 26 27 27 26 24 23 22 21 20 20 19 21 21 21 18 19 17 15 15 16
5 5 5 6 8 9 9 11 13 14 15 17 20 22 23 24 26 29 31 32 29 29 28 28 28 28 25 23 22 22 22 23 22 22 21 20 20 20 19 16 16 17 18
9 11 12 12 12 11 12 13 14 15 16 16 18 21 22 23 22 26 27 28 28 29 29 28 27 26 24 23 23 24 22 23 22 20 20 20 22 19 17 17 17 17 16
14 15 15 15 15 15 14 15 16 18 17 18 19 20 20 21 21 24 26 27 27 27 27 27 26 26 24 23 22 25 25 26 24 24 24 25 22 19 17 18 17 17 17
14 13 14 15 16 16 16 16 15 17 20 21 21 22 21 21 21 21 22 23 23 23 23 24 25 24 24 23 24 25 26 27 24 22 23 22 21 18 17 17 17 16 16
14 15 16 16 17 17 18 18 18 18 19 21 24 23 23 23 21 22 23 25 25 26 25 25 25 24 24 23 23 23 23 20 20 19 19 18 20 17 17 16 15 16 16
14 14 15 15 15 16 18 18 18 19 19 19 21 24 26 24 23 23 24 28 28 27 26 25 25 24 24 24 22 19 18 20 18 18 17 16 15 15 15 14 17 17 16
19 19 19 17 16 17 19 18 18 19 21 20 22 22 23 26 25 25 25 27 28 28 28 27 26 26 25 23 21 17 19 19 15 14 14 15 14 14 16 14 15 15 14
22 22 22 21 21 20 19 19 20 18 18 18 19 21 22 24 27 27 27 27 29 29 28 26 25 26 23 21 20 19 16 15 15 15 15 15 14 15 14 14 13 13 13
23 23 23 21 21 21 20 19 19 19 18 18 19 22 21 21 25 28 29 29 30 30 28 26 25 24 23 20 20 17 18 19 16 17 16 16 16 14 12 13 13 12 12
24 24 22 21 22 21 22 22 22 21 19 18 18 20 20 22 22 25 29 30 32 33 29 26 25 25 23 22 22 19 20 20 19 20 18 17 16 15 12 15 14 13 15
24 23 22 23 23 22 22 22 24 24 23 21 20 22 23 21 23 21 25 30 32 34 31 28 28 28 25 22 21 22 24 23 22 20 18 18 19 16 15 16 14 16 16
24 25 24 23 23 25 25 24 23 22 23 24 23 22 24 26 24 21 19 23 32 35 33 29 29 27 27 26 24 25 26 23 24 24 22 23 19 18 18 17 17 17 17
25 25 25 24 24 25 26 27 24 26 25 19 20 21 23 26 25 24 22 19 23 29 35 35 34 32 30 30 29 27 26 26 26 24 23 22 20 18 19 19 19 19 17
27 27 26 24 25 27 26 24 27 26 25 25 22 22 21 21 24 22 22 22 20 20 36 38 37 37 33 33 31 28 25 25 24 24 24 23 20 19 21 20 21 19 19
27 28 26 24 24 22 22 22 22 24 27 31 27 23 22 20 19 21 20 20 22 23 32 37 36 35 35 35 33 31 27 25 25 24 23 24 22 22 22 22 21 20 19
29 30 25 20 19 20 20 23 22 24 26 26 30 25 21 20 17 18 18 21 23 27 28 36 36 35 35 35 34 33 28 27 26 26 25 25 25 24 24 22 20 19 19
29 29 22 20 20 21 22 24 21 23 27 28 27 27 25 23 21 19 17 15 23 24 27 32 36 37 35 33 32 32 31 29 27 27 26 26 26 25 25 23 22 22 23
25 25 21 21 21 23 25 22 21 23 23 27 28 28 24 22 25 22 20 21 17 22 27 29 32 34 33 31 29 30 30 29 28 28 28 27 27 27 24 22 22 21 21
26 25 26 29 27 26 24 23 23 24 27 28 27 25 20 21 23 24 20 22 20 19 22 25 28 30 30 31 28 28 26 27 28 27 28 28 26 26 24 23 23 22 22
22 23 25 23 24 23 21 20 22 24 26 25 25 25 24 25 25 23 21 19 21 18 19 22 24 26 27 27 26 26 25 26 25 25 28 28 27 26 25 24 24 24 23
19 19 22 21 23 23 22 22 27 27 27 26 26 28 30 26 25 24 23 20 19 17 17 20 22 23 24 25 25 24 22 21 22 24 26 25 25 25 25 25 25 24 24
24 23 24 25 26 22 20 29 26 24 25 26 26 27 27 26 25 24 23 20 18 16 15 16 18 20 21 22 22 21 20 21 21 23 23 23 23 25 25 23 24 29 26
22 19 20 21 20 27 24 22 22 22 22 22 22 23 24 25 24 23 21 19 16 13 12 13 15 17 18 19 20 19 18 20 23 23 23 24 24 25 26 27 27 25 25

GFSGL_850_spd_093.txt.gz
Wind_Speed
5 4 2 2 4 8 11 12 21 23 26 27 27 23 26 29 27 31 33 32 27 23 23 30 28 26 26 25 25 26 27 26 26 24 22 21 22 21 20 20 18 17 16
7 6 5 3 1 3 6 9 12 14 15 17 19 21 21 24 29 33 33 32 28 28 33 30 31 28 28 30 26 28 28 26 25 24 25 24 24 23 23 21 19 16 15
10 10 9 7 6 6 7 8 11 13 16 17 19 19 20 22 23 22 23 25 26 26 30 29 33 31 32 29 29 28 27 25 24 24 24 25 27 23 22 21 18 17 15
11 10 10 11 11 12 12 12 12 14 16 18 18 18 19 20 21 22 23 24 27 28 29 31 34 33 30 28 30 29 27 25 25 24 23 23 23 23 22 20 20 17 16
10 11 13 14 14 14 15 15 16 16 16 17 18 18 19 18 19 20 21 24 25 28 30 30 27 28 28 29 28 28 28 27 26 24 23 24 25 23 21 19 18 16 17
11 12 14 15 16 17 18 19 19 19 20 20 19 19 19 19 18 18 20 22 25 26 27 27 26 28 28 28 28 28 28 27 26 26 26 24 23 21 20 18 19 18 18
15 17 17 18 18 18 19 20 21 21 21 22 22 21 20 20 19 20 20 21 23 25 26 26 28 28 28 28 28 28 28 29 28 26 26 25 24 19 19 20 19 18 18
17 16 17 18 18 19 20 21 21 22 22 22 22 23 24 22 21 21 21 22 22 22 21 24 26 26 27 27 27 28 27 27 26 24 23 21 20 18 19 19 18 18 18
18 17 18 18 19 18 19 21 22 22 23 21 20 22 23 24 23 23 23 23 23 24 23 24 25 25 26 27 27 28 28 27 26 25 22 21 19 17 18 20 20 21 19
21 22 23 23 22 22 21 22 22 23 24 24 21 18 20 24 24 22 24 26 25 25 26 28 28 27 27 29 29 27 27 26 26 22 21 19 17 17 19 18 18 20 19
23 24 24 24 24 24 24 23 23 23 24 25 23 19 18 19 21 23 26 27 28 26 30 30 29 28 29 31 29 27 25 22 22 21 20 20 19 19 18 17 17 17 16
25 26 27 25 22 21 21 22 21 21 21 24 25 23 19 17 19 20 22 27 27 29 30 29 29 28 29 30 28 25 23 23 24 22 22 22 21 20 17 16 16 16 15
23 26 27 26 25 23 21 21 22 21 21 22 23 24 23 20 19 17 19 18 21 29 30 30 29 28 28 29 27 25 24 25 25 24 25 24 21 18 18 18 17 16 16
25 27 27 27 26 24 23 23 23 22 21 22 22 24 23 22 21 19 19 19 18 22 31 30 26 26 28 29 27 27 28 27 26 24 23 21 23 23 21 19 17 16 18
27 26 26 26 26 25 24 25 25 23 21 22 23 20 23 26 23 18 19 24 20 18 25 32 30 28 30 30 30 32 31 29 28 27 25 27 27 24 22 20 19 19 19
27 28 26 25 25 26 26 26 25 25 22 20 18 19 21 22 23 23 22 22 22 20 20 30 34 33 32 33 35 36 35 32 31 29 28 30 28 25 23 22 21 20 18
29 27 25 25 27 27 25 26 25 20 18 20 15 16 18 19 21 22 20 23 22 20 22 28 32 35 34 34 35 36 37 34 32 30 29 30 29 25 24 24 23 21 22
29 26 24 25 27 26 25 23 22 23 25 25 23 25 20 20 19 19 18 18 21 19 24 27 32 31 34 35 36 35 35 33 31 30 29 28 27 27 27 26 25 24 23
26 26 25 24 26 23 22 21 22 24 25 25 25 26 26 19 19 19 15 18 19 21 24 26 30 33 36 35 31 33 35 32 31 30 30 28 29 28 28 26 24 23 21
29 28 23 22 24 24 22 23 24 25 24 23 24 25 26 25 22 20 18 17 17 17 19 23 26 29 31 31 32 29 30 30 32 30 31 30 27 27 30 27 25 24 24
25 25 23 23 24 25 23 27 26 26 23 22 24 25 24 22 23 21 21 21 18 18 18 19 21 25 25 26 28 27 28 30 33 31 28 29 28 29 30 27 25 23 21
22 23 23 22 21 23 25 25 24 23 22 24 26 25 22 21 20 21 22 22 18 17 16 18 19 22 24 23 23 25 26 27 31 30 30 30 28 29 28 28 26 24 22
21 24 23 19 18 22 22 23 22 22 21 26 27 25 24 23 21 26 23 21 20 18 17 17 19 21 22 21 21 21 23 25 25 26 28 29 31 31 28 28 25 25 24
27 27 27 26 24 23 24 26 26 23 25 27 25 25 26 26 26 24 24 23 21 20 17 18 19 21 21 21 20 20 21 22 22 23 24 26 28 29 28 27 26 23 23
27 23 23 23 22 21 21 21 25 25 23 22 22 21 21 22 24 24 24 22 21 19 18 18 19 19 20 19 20 19 20 20 21 22 23 24 26 26 25 24 24 23 23
21 23 23 21 21 23 22 20 20 20 20 21 21 22 22 20 19 20 21 20 18 17 17 17 17 18 18 18 18 18 18 19 20 21 21 23 25 25 25 25 22 22 21

GFSGL_850_spd_096.txt.gz
Wind_Speed
7 7 6 7 3 8 8 11 13 14 16 16 17 21 19 25 28 26 28 26 29 30 30 27 24 24 20 20 22 24 25 24 22 22 22 21 20 21 20 19 19 19 19
10 9 5 4 4 5 6 7 9 10 11 14 16 16 16 17 21 29 34 30 31 32 33 33 27 25 27 26 34 29 28 27 28 27 26 23 24 23 22 21 23 21 18
7 5 4 6 6 6 7 7 8 9 11 12 14 15 16 16 19 23 26 29 33 32 29 28 31 35 37 35 35 34 33 29 29 29 27 27 27 26 26 25 25 19 18
7 7 7 8 9 10 11 12 12 13 14 14 15 15 14 15 19 21 21 24 25 29 27 28 28 29 31 35 42 37 32 32 30 29 28 28 28 27 26 27 24 21 19
14 14 15 15 15 15 15 15 15 16 18 19 19 18 17 18 18 20 22 23 23 26 26 28 28 29 30 34 33 38 33 32 31 31 30 30 29 31 31 25 23 20 20
14 15 16 16 17 19 20 20 19 18 19 19 20 21 20 20 20 20 21 22 24 25 25 27 29 30 31 31 29 27 31 33 34 32 31 30 31 29 27 24 23 21 22
17 18 20 21 22 23 23 23 22 22 22 21 21 23 21 22 22 22 21 22 23 23 25 26 27 28 27 28 30 31 31 32 29 28 28 28 32 28 24 25 23 22 20
20 20 20 21 20 20 21 24 26 27 27 26 24 22 23 24 24 23 21 22 24 23 24 25 26 26 27 29 29 30 30 29 30 30 29 26 27 26 26 22 19 19 21
19 19 19 20 22 23 24 25 25 27 28 29 29 27 26 25 20 19 20 23 24 24 24 25 26 26 27 28 28 29 29 30 29 28 28 27 27 26 24 24 27 25 24
23 24 24 24 25 26 27 26 25 26 28 28 28 27 27 24 19 17 18 23 26 25 24 25 26 26 25 27 28 28 29 29 30 29 29 29 26 24 23 22 21 24 22
27 27 28 28 28 28 27 25 25 24 24 24 27 28 27 25 20 16 18 20 23 26 25 27 27 27 28 29 29 30 29 25 27 28 27 25 24 23 23 22 21 20 20
31 31 31 31 31 31 30 29 28 27 27 26 25 26 26 24 22 19 17 17 16 18 25 26 26 27 29 29 30 29 28 27 28 27 28 28 27 26 24 21 21 20 20
24 25 27 31 34 33 31 31 29 26 27 28 27 28 26 26 24 21 20 18 17 20 22 25 24 24 24 29 31 30 28 30 30 31 31 29 26 22 22 23 22 22 22
26 28 29 30 31 31 29 28 28 28 28 27 26 27 26 26 25 20 17 19 17 18 18 23 24 23 22 24 28 31 31 31 32 33 30 25 23 27 27 24 22 22 22
29 31 31 31 30 29 28 27 27 27 27 29 28 25 23 24 24 22 23 23 21 18 19 19 20 22 26 23 28 31 32 31 33 32 28 26 28 28 27 25 23 23 24
33 36 33 33 32 28 27 28 28 28 26 21 20 20 22 23 24 24 23 23 22 19 19 22 22 22 23 27 29 32 34 34 35 34 32 30 30 29 28 26 25 25 24
30 30 30 29 30 27 24 25 30 30 27 20 18 18 18 21 22 23 22 21 20 15 21 22 23 24 24 25 25 31 33 36 36 37 34 33 31 28 28 28 27 25 25
23 24 25 25 25 24 24 24 26 24 26 26 21 22 19 20 22 22 22 21 20 17 18 20 23 24 25 27 27 28 29 31 36 36 34 31 31 29 30 29 28 27 25
25 25 24 25 25 24 23 25 25 26 25 29 29 26 21 19 20 21 20 18 19 20 19 19 21 21 22 26 25 27 25 25 30 31 34 34 31 29 31 28 27 26 24
24 22 21 22 24 24 25 24 29 23 24 27 26 25 21 19 23 24 20 18 18 20 21 19 19 20 19 20 23 24 24 26 31 31 29 30 30 29 31 27 26 26 26
23 22 20 23 23 23 22 20 21 25 24 23 23 22 20 22 24 23 22 21 20 22 20 18 19 19 18 17 18 21 23 25 26 24 27 29 29 30 29 28 26 25 25
21 24 26 27 27 23 19 21 23 25 25 25 25 23 24 25 24 23 22 21 25 23 19 19 19 19 18 18 17 19 21 24 24 25 26 28 27 29 30 28 28 27 26
27 29 29 26 24 23 23 23 24 24 23 21 21 26 30 27 25 24 24 28 28 23 20 19 20 20 18 18 18 18 20 21 23 24 24 28 28 28 31 31 29 28 28
27 26 24 25 25 22 21 19 20 19 20 23 27 25 25 24 22 22 23 24 24 24 23 22 21 19 20 18 18 19 18 18 19 20 21 26 28 28 31 30 28 27 27
24 24 24 25 24 22 22 23 23 22 21 22 23 22 23 23 22 22 21 22 22 22 22 20 19 17 18 18 19 20 19 18 19 19 20 23 24 27 29 30 32 30 28
22 25 26 26 25 22 23 22 22 23 23 24 24 24 23 22 21 21 20 21 21 21 20 18 18 16 16 18 19 20 20 18 19 20 20 22 23 23 24 28 26 27 24

GFSGL_850_spd_099.txt.gz
Wind_Speed
14 13 11 10 9 7 10 9 13 13 12 10 11 16 17 17 14 16 23 30 26 30 33 30 30 30 31 32 33 42 29 30 22 23 25 21 20 22 20 20 19 19 17
6 5 5 7 7 9 11 9 9 10 10 10 10 12 15 19 18 17 24 29 27 29 31 30 29 28 29 29 26 22 22 21 22 24 22 24 23 23 22 21 20 21 19
6 6 6 6 7 6 8 10 12 11 11 11 12 12 13 15 17 20 21 18 22 28 34 34 34 32 34 34 29 27 28 30 31 33 31 28 28 25 25 24 24 24 23
8 9 10 12 13 14 14 14 15 16 16 16 15 15 15 16 17 19 21 24 28 30 27 25 29 30 32 31 34 38 37 36 40 42 37 34 31 28 27 27 27 26 25
13 13 15 16 16 16 16 17 18 19 19 20 20 20 20 19 19 21 22 23 24 27 29 31 29 28 31 30 32 34 40 44 41 38 36 34 32 31 31 31 27 22 23
15 16 17 18 19 20 20 20 20 21 20 20 20 21 21 21 23 23 23 25 26 27 26 26 30 33 32 31 34 33 33 31 33 35 36 36 36 33 31 26 22 23 26
16 16 17 17 17 19 22 24 25 26 25 24 23 23 22 22 23 25 28 29 28 27 28 27 28 30 31 33 32 31 34 35 38 38 47 42 36 29 24 23 25 25 26
17 18 19 21 22 23 23 24 24 25 26 28 29 27 26 25 25 25 26 26 28 30 28 28 28 29 30 29 29 30 31 31 31 32 31 29 26 26 21 25 23 23 24
18 20 23 25 27 27 27 28 28 28 28 27 27 27 28 28 26 24 24 25 26 27 28 28 27 29 28 26 26 27 28 29 29 30 28 29 25 25 31 30 30 28 27
26 28 28 28 29 32 33 34 33 32 30 28 28 27 27 28 25 25 23 21 22 25 26 28 27 27 27 27 29 27 31 31 31 30 29 29 28 29 29 30 29 31 32
30 30 30 29 30 31 32 31 33 33 33 32 30 27 27 27 27 24 22 19 19 21 24 24 27 28 25 25 28 29 29 29 29 27 25 27 27 28 28 28 26 27 28
26 28 30 31 33 35 37 37 33 30 30 30 31 32 29 27 28 28 24 22 20 22 22 23 24 26 28 26 25 28 28 29 27 27 28 29 30 30 28 26 25 25 25
29 29 30 30 31 32 34 35 35 32 30 29 29 30 30 28 27 27 27 21 20 22 21 19 24 25 24 24 26 27 28 30 29 31 32 32 32 30 28 27 26 26 26
29 31 32 34 37 36 34 32 32 28 27 28 30 30 29 25 26 25 25 23 26 23 26 24 19 21 25 24 23 25 28 32 31 32 33 33 30 29 28 27 29 29 27
32 33 34 34 32 31 30 30 27 25 23 26 28 28 24 25 22 22 23 25 25 26 25 24 24 20 20 23 22 23 27 32 31 32 34 33 31 31 30 30 29 29 30
28 27 27 29 29 29 30 32 23 23 23 26 27 24 23 22 20 21 22 23 24 22 23 24 21 22 21 21 21 24 27 29 29 34 33 33 33 33 32 31 31 30 29
23 25 27 28 28 29 29 28 31 27 25 29 27 21 20 22 20 20 23 23 22 21 21 21 22 22 22 22 21 24 26 29 29 30 31 34 33 33 32 32 31 30 29
22 23 24 24 24 25 27 27 27 28 29 28 27 28 27 26 24 21 19 22 25 20 18 20 21 21 20 20 20 21 25 24 30 30 31 30 31 31 32 31 32 30 29
25 25 24 24 23 25 27 26 26 27 27 28 27 25 26 22 19 19 18 19 22 22 20 20 20 20 18 18 18 17 19 22 21 24 27 30 30 32 30 30 31 28 27
24 22 21 22 26 29 28 26 24 22 22 22 27 25 23 23 20 22 25 24 21 21 20 22 22 20 21 18 18 17 16 19 21 22 24 25 27 30 30 30 31 33 30
20 20 24 25 25 26 26 26 26 24 26 28 29 25 21 21 24 25 28 27 25 23 21 23 21 19 19 18 17 16 17 17 19 22 25 22 25 29 30 27 28 31 28
19 23 26 25 26 26 26 25 26 24 26 27 28 25 20 20 25 30 29 25 24 22 24 25 23 20 20 18 18 17 16 17 18 19 21 23 23 26 27 26 27 30 30
21 27 27 24 24 24 25 26 24 23 23 23 24 25 26 29 28 26 27 25 24 25 23 22 22 20 20 21 19 17 17 16 15 16 20 21 20 23 24 26 28 30 31
25 25 25 26 27 25 26 24 25 25 24 23 24 24 24 24 25 26 25 24 23 23 23 22 21 21 21 21 20 18 15 15 13 13 15 19 20 23 23 25 28 30 30
24 23 25 27 28 27 25 24 24 24 25 26 26 27 27 26 26 25 23 22 22 22 22 21 21 21 20 16 17 16 14 15 14 13 14 16 19 22 23 23 25 27 30
21 23 26 27 26 26 26 27 27 26 25 23 26 26 26 25 23 22 22 22 22 22 22 22 21 20 17 16 16 15 14 15 16 15 14 16 18 20 21 23 25 28 29

GFSGL_850_spd_102.txt.gz
Wind_Speed
16 15 15 14 14 15 15 16 16 15 17 19 16 13 13 14 15 15 12 14 20 28 38 46 49 57 48 45 41 41 38 36 37 33 38 41 42 43 42 30 24 22 22
13 12 8 10 11 12 15 16 17 14 12 10 12 13 13 14 14 16 18 16 20 23 25 26 30 40 44 40 40 42 31 31 36 37 32 33 31 35 29 24 22 22 22
9 8 8 9 10 11 11 10 12 13 13 14 13 13 13 14 15 15 17 21 22 15 18 30 30 33 35 33 29 31 30 30 26 24 21 22 26 26 27 27 27 27 30
9 10 12 13 14 14 15 15 17 18 17 16 17 17 17 17 17 18 20 21 22 24 27 31 27 21 32 28 31 31 28 31 30 30 29 28 28 30 33 34 34 35 32
11 13 14 15 16 17 18 18 19 20 21 21 21 21 20 20 20 20 22 24 25 26 26 28 29 31 34 27 26 27 30 33 36 38 37 37 39 40 40 39 39 35 30
15 15 16 17 18 19 20 22 23 23 22 22 22 23 22 22 23 23 25 27 27 28 30 29 28 30 31 31 34 31 31 33 33 37 35 48 42 32 39 46 41 34 34
16 18 19 20 22 23 24 25 26 27 28 28 28 29 28 25 24 25 26 27 28 29 29 31 33 29 29 32 35 34 35 30 32 31 34 38 40 43 43 37 38 37 34
16 18 19 21 22 23 24 25 27 27 27 28 27 27 27 26 26 26 26 26 27 28 28 28 30 32 30 28 32 35 36 34 34 34 34 35 35 37 41 37 31 29 26
18 19 20 22 23 25 27 28 29 31 32 32 30 29 28 28 28 28 28 28 29 29 27 28 25 27 29 29 33 33 34 35 31 31 31 31 28 28 30 30 29 31 32
19 20 20 22 25 27 28 30 31 32 32 31 31 30 29 28 27 27 27 28 29 29 29 26 27 23 24 26 31 32 34 33 29 28 27 26 24 26 26 30 30 36 32
21 23 25 27 29 30 32 33 34 34 33 32 31 29 27 25 25 24 24 25 27 28 25 25 27 26 26 25 27 29 32 31 29 28 30 29 30 32 31 32 30 32 35
24 27 30 31 32 32 33 33 33 32 31 28 26 27 26 25 25 26 25 21 21 20 23 25 26 29 27 30 26 26 27 28 28 28 28 30 33 30 30 30 30 30 29
27 28 28 29 29 29 29 28 28 27 26 25 24 23 26 25 24 21 22 19 17 19 23 23 25 30 30 27 31 27 22 28 27 28 28 29 30 31 31 29 31 30 27
27 27 25 25 25 24 23 24 24 24 23 23 21 22 25 25 24 22 21 22 24 24 25 26 26 24 31 27 25 27 23 28 30 29 30 30 31 31 30 31 30 30 29
23 23 23 23 24 25 25 25 25 23 22 23 24 25 25 27 25 20 20 24 25 26 26 27 26 25 24 23 23 22 23 25 28 29 30 28 32 32 36 33 30 29 31
21 23 24 25 26 26 27 28 25 23 21 21 21 22 24 21 19 20 21 21 24 24 25 26 26 22 21 21 22 21 20 23 26 28 30 30 32 30 33 33 32 33 34
22 25 26 26 27 27 27 29 32 33 28 24 22 19 19 23 24 23 23 21 22 21 24 24 23 23 22 21 21 20 19 21 24 29 28 31 30 28 32 35 35 34 33
24 25 26 25 26 27 26 28 32 32 32 31 25 22 17 20 22 23 19 18 21 21 22 22 22 21 21 22 20 20 18 18 20 24 27 28 26 26 30 35 34 35 33
25 25 25 26 27 27 29 29 29 29 27 29 28 25 23 23 23 20 18 18 21 22 21 22 21 21 23 22 20 18 18 16 15 20 23 25 24 27 30 30 32 33 33
23 21 22 26 29 29 28 29 29 28 28 28 28 30 31 26 24 23 22 24 27 29 24 22 22 22 23 20 18 19 16 16 14 16 18 21 24 27 29 29 29 32 34
21 21 23 26 28 26 27 28 29 32 31 29 26 25 22 23 24 24 25 27 30 27 23 22 22 24 22 20 18 17 17 16 14 15 16 18 21 23 24 27 29 30 31
20 22 25 30 30 28 28 28 31 30 27 28 28 26 23 25 27 28 29 28 27 25 22 21 24 24 22 20 18 19 19 17 14 13 14 16 18 19 21 24 26 29 30
20 22 28 30 29 29 28 30 28 26 27 28 26 26 26 27 26 26 27 27 26 25 23 21 22 22 21 17 18 18 20 18 14 12 12 15 17 18 20 23 25 27 29
21 26 28 27 29 28 29 29 27 26 25 26 26 26 26 28 28 27 27 26 24 22 21 20 20 20 19 18 17 18 19 17 14 11 9 11 13 15 19 21 23 25 29
24 25 25 26 30 30 28 29 28 29 29 27 25 24 26 26 26 25 23 22 22 22 21 19 19 19 18 17 16 14 14 13 12 11 8 9 10 12 16 18 21 24 27
21 21 22 26 28 28 27 28 29 28 27 26 25 25 23 22 22 22 21 21 21 21 21 21 20 19 19 18 15 13 14 12 11 12 9 10 11 13 16 17 19 24 25

GFSGL_850_spd_108.txt.gz
Wind_Speed
14 14 13 13 11 9 7 7 7 7 9 10 9 10 11 12 14 14 15 14 15 14 17 19 22 18 22 43 42 38 39 41 39 39 40 39 36 37 35 37 40 43 43
12 12 11 11 12 10 10 9 9 8 9 12 11 12 11 13 14 14 15 18 17 19 19 20 22 15 16 19 28 37 43 36 30 32 33 39 42 44 44 40 41 43 41
7 8 7 7 6 10 10 11 11 11 12 13 14 15 15 16 17 17 17 17 18 19 21 21 22 22 23 21 15 17 22 36 36 48 48 44 46 47 44 42 48 42 40
7 6 7 7 8 10 12 14 14 15 15 16 16 18 19 19 20 20 21 22 21 21 20 20 20 21 23 25 25 27 27 19 21 29 34 38 36 31 35 34 34 34 35
8 10 11 11 11 12 14 15 16 17 17 18 19 18 19 19 20 22 23 23 24 24 24 24 23 22 22 23 26 27 26 26 28 19 33 33 38 34 34 34 30 29 38
9 10 12 13 15 15 16 16 17 18 18 19 20 21 21 21 20 20 21 22 23 24 26 26 27 26 26 25 25 24 26 27 28 31 24 30 36 35 33 34 32 33 36
10 12 15 16 17 18 18 19 20 21 21 21 21 21 21 20 20 21 22 23 24 25 26 27 28 26 27 28 28 28 27 25 27 30 34 33 28 36 36 38 41 39 43
14 17 18 18 18 19 20 21 22 22 22 22 22 21 21 20 18 17 17 18 20 21 22 24 25 26 25 23 25 28 28 28 27 28 31 32 33 29 35 38 35 38 46
16 17 17 18 19 21 21 22 22 22 22 22 22 22 21 21 19 19 19 17 16 17 17 17 19 21 22 27 26 25 26 26 27 30 31 33 34 33 31 37 41 42 46
17 16 17 19 20 20 19 20 20 21 22 23 23 23 23 22 21 20 21 18 18 18 18 17 18 18 21 24 25 26 30 29 29 32 32 34 34 34 34 36 43 45 46
17 17 17 16 16 16 17 19 20 21 22 23 23 22 20 17 18 20 21 21 18 20 20 20 19 22 25 24 26 29 29 29 31 33 35 36 36 35 33 36 40 46 47
15 15 14 13 15 17 18 19 20 19 20 20 21 21 20 19 20 20 20 22 21 20 20 21 23 26 28 28 28 29 30 31 32 30 33 36 37 39 34 33 38 41 42
12 12 12 14 16 16 18 19 19 18 16 17 16 17 18 19 19 20 19 20 19 18 21 23 25 26 26 29 27 28 28 25 26 26 30 34 36 37 37 35 35 39 42
10 12 13 15 16 17 18 18 18 15 14 14 16 19 20 21 21 20 21 20 19 19 21 25 28 26 27 26 30 25 25 26 27 29 29 33 32 33 33 33 31 39 41
11 13 15 18 18 19 18 18 18 16 14 18 21 21 22 23 23 25 25 27 27 27 28 30 30 25 24 28 26 26 26 26 26 26 28 31 28 29 30 29 30 35 42
14 15 18 19 18 18 18 19 17 18 20 22 20 18 20 23 24 24 25 25 24 25 27 28 23 21 24 25 25 27 26 27 29 30 27 28 27 25 25 26 28 32 39
15 17 19 19 18 17 16 17 22 25 22 23 21 21 22 23 23 24 24 24 25 25 26 24 23 23 24 27 27 28 29 30 28 25 26 28 25 21 20 23 25 30 34
16 18 18 18 16 15 15 18 20 21 26 30 27 25 23 22 22 23 23 23 23 20 21 24 23 24 27 29 28 28 29 30 28 24 26 27 23 17 17 21 24 26 30
17 18 19 18 15 15 18 19 20 22 24 27 28 25 22 22 22 22 22 19 19 19 19 21 25 27 29 28 27 26 29 29 27 23 25 25 22 16 15 18 18 20 28
17 17 17 16 16 17 17 19 19 22 26 26 25 23 24 24 26 24 21 24 24 25 25 26 26 26 27 27 25 26 28 26 25 23 21 23 21 16 15 16 16 19 25
18 19 17 17 17 17 20 18 21 26 26 25 24 23 24 25 26 23 23 24 24 24 25 26 27 27 27 27 24 24 24 23 23 21 19 21 20 16 13 13 15 15 20
17 18 18 17 16 18 18 20 23 24 23 24 25 25 23 22 20 20 20 21 24 26 26 26 26 26 25 25 23 22 23 23 21 19 21 21 19 15 12 13 13 14 19
16 17 18 19 19 18 18 19 22 21 22 23 24 25 24 23 22 21 21 22 23 24 23 23 23 25 24 23 20 20 22 21 19 19 21 19 19 16 14 13 12 14 18
16 18 21 21 20 18 20 22 21 20 20 21 22 23 24 23 23 24 26 26 25 24 23 23 23 23 23 23 23 22 19 19 18 18 17 18 17 15 12 12 11 14 18
18 20 20 20 20 20 21 20 19 19 20 21 22 25 27 28 27 27 26 24 24 23 22 22 23 23 23 23 23 22 21 19 18 17 15 16 15 13 10 10 11 12 15
18 19 19 19 20 20 20 20 19 21 23 24 25 27 27 28 28 27 26 26 25 25 25 24 23 22 22 22 20 18 17 16 17 14 13 14 14 10 9 9 10 14 15

GFSGL_850_spd_111.txt.gz
Wind_Speed
14 14 14 14 13 11 8 8 8 6 4 4 5 8 7 11 15 15 16 16 18 17 19 19 19 19 19 19 21 19 30 40 37 41 41 41 43 39 40 44 37 35 34
12 11 11 10 9 10 12 10 9 10 11 11 11 11 13 14 14 15 19 21 20 19 19 21 21 22 24 25 23 17 16 12 18 41 38 33 30 38 38 39 40 43 43
8 7 7 8 9 10 10 11 12 12 13 14 15 15 15 16 17 17 17 16 18 19 20 19 20 20 21 22 24 26 28 28 25 20 20 29 29 34 39 41 47 49 49
9 9 10 10 10 11 13 14 15 15 16 16 17 17 17 18 18 19 20 20 21 20 20 21 21 21 22 23 24 23 24 27 27 27 26 19 23 25 26 33 35 34 34
11 12 13 14 15 16 17 17 17 17 17 18 18 18 18 17 16 19 21 21 21 22 22 20 21 23 23 22 23 24 25 26 26 25 26 25 24 23 28 26 31 31 32
11 12 15 16 17 17 17 17 18 19 19 20 19 19 18 16 18 19 19 20 20 21 22 23 23 22 21 22 21 22 23 24 25 24 24 23 23 23 24 26 31 33 34
12 14 15 17 17 17 18 18 18 19 19 18 18 17 17 16 16 16 17 19 19 19 21 22 22 20 21 21 21 22 23 22 21 21 24 22 23 24 24 26 29 32 33
11 12 15 16 17 18 20 19 18 17 17 17 16 16 17 16 15 14 15 16 17 17 18 18 18 19 18 20 25 26 26 26 25 26 26 26 26 26 25 21 24 32 33
13 15 18 19 20 20 18 17 17 17 17 17 17 17 17 17 14 14 14 15 14 15 15 15 16 17 16 22 24 26 28 28 30 29 28 27 27 28 29 30 34 27 37
17 19 19 20 19 17 16 16 17 17 18 18 18 17 17 18 14 14 15 15 15 15 15 15 15 15 15 19 22 24 26 28 29 32 35 35 32 32 32 32 29 31 34
18 19 19 17 16 16 17 17 18 19 20 20 20 18 16 15 16 16 17 18 18 21 20 19 17 17 20 23 23 25 26 28 29 30 33 32 33 31 29 30 31 36 31
18 17 15 14 14 16 17 17 17 17 17 17 18 19 18 17 17 18 20 21 20 22 22 20 21 23 25 24 24 25 26 28 30 26 27 28 27 29 31 27 32 33 35
15 13 12 13 15 16 17 18 17 15 16 17 18 19 22 25 25 21 20 20 22 23 24 24 24 25 28 30 27 27 29 27 28 30 32 35 33 30 31 34 33 34 35
12 12 13 14 15 15 16 16 16 16 16 16 17 21 24 26 25 22 25 27 27 26 27 26 27 29 28 26 25 29 29 26 25 27 30 32 34 32 36 33 35 33 33
11 12 13 15 16 16 16 16 16 16 16 19 21 23 24 26 26 25 27 29 30 30 28 30 30 29 29 23 23 27 27 28 27 28 31 34 34 33 31 29 31 31 33
12 12 14 16 16 16 17 19 15 16 18 20 19 20 24 24 26 26 27 28 29 29 31 32 33 31 27 25 27 30 30 28 29 31 34 30 28 30 33 32 28 28 29
13 14 16 17 16 17 17 18 23 22 21 21 20 20 22 25 25 25 26 26 27 26 27 27 26 24 24 26 28 30 32 31 30 31 33 32 27 31 30 30 26 27 25
14 15 17 17 17 17 18 18 20 24 27 27 23 23 23 22 23 24 25 27 28 23 22 22 24 25 24 27 30 30 31 29 28 32 32 31 28 28 31 29 24 23 23
15 15 16 18 17 16 18 19 20 21 22 27 30 28 27 26 25 25 24 24 26 27 25 27 27 28 29 29 28 29 29 28 28 30 30 29 26 25 29 27 22 19 17
15 17 17 17 16 18 18 18 21 20 23 26 27 27 29 28 31 32 29 24 25 27 28 27 28 28 28 29 29 28 28 27 27 27 28 27 22 25 27 25 21 18 14
15 16 16 16 18 18 18 21 20 22 25 25 26 26 23 26 30 30 28 26 25 26 27 29 31 30 29 29 29 28 27 25 25 26 27 23 22 26 25 23 19 15 12
15 16 16 17 18 20 20 20 22 21 23 23 25 26 23 25 28 28 27 27 26 26 25 26 27 27 27 26 26 26 25 24 24 24 23 22 24 24 23 22 18 14 10
15 16 17 17 20 20 18 18 19 20 21 22 23 25 25 25 26 27 28 28 28 27 27 26 26 26 25 24 23 23 24 26 24 21 23 23 23 21 21 21 17 13 10
16 16 17 20 20 20 17 18 19 18 19 20 21 23 24 26 27 28 28 27 27 27 26 26 26 26 26 25 25 25 26 26 23 23 23 21 21 20 20 19 15 12 12
15 17 19 20 20 20 18 18 17 18 19 20 22 23 25 25 28 26 27 28 29 28 28 27 26 25 24 24 23 23 23 22 20 20 19 18 19 19 20 17 12 10 10
15 17 19 19 18 18 18 18 17 18 20 20 21 23 24 26 27 27 29 30 30 30 29 27 26 24 23 23 22 19 18 18 17 15 16 16 17 18 18 13 9 9 8

GFSGL_850_spd_114.txt.gz
Wind_Speed
10 10 10 11 9 9 9 8 7 8 8 8 7 7 8 8 10 12 13 15 15 15 16 17 17 19 19 21 22 22 20 20 22 17 13 20 29 33 32 34 38 39 40
10 10 11 11 11 12 13 14 15 14 13 13 11 10 11 10 11 12 13 14 16 17 20 22 21 21 22 24 24 23 24 24 25 26 21 20 20 30 35 36 41 39 36
8 8 9 10 11 12 12 13 13 14 15 15 13 12 13 14 15 15 15 16 16 16 16 17 18 21 21 21 20 23 23 22 23 25 28 27 26 19 23 22 31 37 36
10 10 10 11 13 14 15 14 14 14 14 14 15 16 16 15 14 17 17 18 18 17 16 16 16 18 21 21 21 21 23 23 23 23 23 22 24 23 19 18 18 21 26
11 13 14 15 17 17 17 17 17 18 18 18 18 16 15 15 13 18 18 17 17 17 16 17 18 18 17 17 18 17 20 22 23 23 24 23 19 18 18 19 19 20 22
9 12 14 16 18 19 19 20 20 20 18 17 16 16 15 15 14 15 18 18 17 17 18 19 20 19 16 17 15 16 18 18 18 21 21 21 21 17 17 16 19 22 26
12 14 15 17 18 19 20 20 19 18 17 16 16 16 15 15 15 15 15 17 18 18 16 16 17 16 17 18 21 21 20 18 16 17 20 20 23 23 24 27 23 21 21
12 13 15 17 18 19 18 16 16 17 17 17 16 16 16 15 16 15 15 15 15 15 15 15 17 19 21 19 23 25 23 24 22 20 23 25 26 26 27 27 28 34 33
13 14 16 18 19 18 15 15 15 16 16 16 16 16 16 16 15 15 17 19 18 17 14 13 16 15 19 17 21 24 25 24 23 23 24 25 25 25 24 27 29 29 30
15 16 18 19 17 14 14 15 16 16 17 16 16 16 17 17 14 14 14 18 20 19 19 19 17 15 15 16 21 24 26 27 25 29 28 26 24 23 20 19 21 26 29
15 17 18 16 14 14 15 16 17 19 19 18 18 16 16 14 15 15 15 17 21 24 24 25 21 15 17 19 21 22 25 23 25 28 26 25 25 24 24 18 19 24 27
17 18 16 13 13 14 16 17 18 18 17 18 18 19 18 17 19 20 19 17 17 21 23 24 25 23 23 23 23 24 23 22 26 24 24 26 25 27 25 25 29 30 28
17 15 13 12 13 15 17 17 18 17 18 18 19 21 23 24 24 23 21 19 21 23 24 23 23 25 25 27 29 25 23 24 26 25 26 27 27 29 32 34 32 29 33
15 12 12 14 15 16 17 17 18 18 19 19 21 24 26 27 26 25 25 27 29 29 29 28 28 29 27 29 29 28 23 26 26 28 29 29 30 32 35 28 25 27 30
13 11 12 14 15 17 17 17 18 18 18 19 22 24 25 28 28 25 27 29 29 29 29 30 31 32 31 30 27 25 25 28 29 29 29 30 33 35 35 29 27 30 31
12 12 13 15 16 18 18 20 18 17 16 17 20 20 23 24 25 26 27 27 27 27 28 30 32 31 28 26 24 24 26 26 29 30 31 31 32 35 35 30 30 32 34
13 13 14 16 17 17 18 20 22 22 20 20 19 18 21 24 25 25 25 26 26 25 27 27 27 26 24 25 25 25 28 32 31 31 30 29 33 32 32 31 30 32 34
13 14 15 16 16 17 18 19 21 24 26 26 22 23 22 21 23 24 23 25 28 25 21 24 26 29 28 29 31 32 33 33 32 31 29 29 30 29 30 28 28 33 32
14 14 14 15 16 17 16 19 21 23 24 25 27 28 26 24 22 23 23 27 24 22 21 24 26 27 28 30 31 31 31 31 29 29 30 29 27 28 29 26 31 32 28
14 14 15 15 16 17 18 19 20 22 23 25 27 28 29 25 30 31 28 26 25 24 24 23 26 27 30 32 31 29 30 31 32 32 29 26 26 27 27 28 30 31 28
14 14 15 15 16 17 19 19 21 21 24 25 27 26 22 23 27 27 27 26 26 26 26 26 27 27 27 27 27 27 27 27 26 25 23 24 26 27 26 28 28 28 25
15 15 16 16 16 17 19 19 20 22 22 25 25 23 20 22 25 26 27 27 27 26 26 27 27 27 26 25 24 25 26 27 26 25 25 25 23 25 27 27 26 26 23
15 16 17 17 16 17 20 20 19 21 22 21 22 22 23 24 25 26 26 25 26 27 26 26 27 27 26 26 25 26 27 27 27 26 27 24 25 27 26 25 26 25 22
16 17 17 16 16 18 19 21 20 19 19 19 20 20 21 23 24 26 25 26 28 28 28 27 27 27 26 24 24 24 24 24 24 24 23 25 26 22 21 23 24 22 18
16 17 15 16 17 18 19 19 19 18 18 19 18 18 20 22 24 25 25 27 29 30 30 29 28 27 25 24 23 22 21 20 20 19 19 19 19 17 19 21 22 18 14
17 15 16 17 17 18 18 18 18 17 17 18 16 17 20 22 24 25 26 29 31 32 31 30 28 25 23 23 21 18 18 17 17 15 16 17 18 18 19 21 18 14 9

GFSGL_850_spd_117.txt.gz
Wind_Speed
8 9 10 12 12 13 14 15 14 14 12 11 12 12 11 10 9 9 9 10 11 12 12 14 14 15 15 17 17 17 17 18 19 25 24 23 23 17 19 25 26 38 45
8 9 10 12 13 14 15 14 14 14 13 12 12 12 12 12 12 12 12 12 13 14 15 15 15 17 18 20 22 21 19 18 21 28 31 27 27 28 22 19 24 28 36
8 9 10 12 13 14 14 14 14 13 13 12 12 12 12 12 13 12 12 12 13 14 14 15 15 16 17 17 18 20 24 25 21 23 28 26 25 23 26 23 17 19 22
8 9 10 12 14 15 15 15 15 15 15 15 14 13 12 11 11 14 14 13 12 11 11 12 13 14 15 15 16 16 15 18 19 21 23 24 23 21 21 22 24 24 21
10 11 12 14 15 15 15 15 16 16 15 14 13 13 12 11 11 12 14 13 12 12 11 12 13 12 10 11 12 14 15 17 19 20 21 22 22 21 20 20 20 24 30
11 12 14 14 15 16 17 17 16 13 12 12 12 12 11 11 10 10 12 13 13 13 13 12 10 9 9 11 14 14 15 17 17 17 19 21 22 23 23 23 24 26 26
12 13 14 15 17 17 17 16 14 13 14 14 14 14 13 13 12 12 12 13 13 13 12 11 10 10 11 14 19 20 19 17 15 17 19 20 23 23 25 27 26 27 27
13 14 14 15 16 16 15 12 13 14 14 14 13 13 12 11 12 12 12 14 15 13 13 13 14 14 13 14 18 22 20 19 19 20 19 19 21 22 23 24 26 28 30
14 14 15 17 17 15 12 12 13 13 14 14 13 13 12 12 12 13 14 18 19 19 18 15 15 17 16 14 17 20 24 23 19 19 18 20 23 21 19 20 22 24 26
14 14 15 16 16 12 11 11 12 13 15 14 13 13 13 14 13 13 12 15 18 21 21 20 19 17 14 13 17 20 23 22 22 21 22 23 21 20 19 17 18 20 22
14 14 15 15 13 11 11 13 15 16 16 16 16 15 15 14 14 15 16 16 16 19 21 22 22 20 17 17 19 22 22 23 23 23 23 26 23 22 21 21 20 20 26
14 15 15 14 11 11 12 13 14 16 16 16 17 16 15 17 18 19 19 15 15 19 24 25 24 21 21 21 21 21 22 22 22 23 24 24 24 25 23 23 25 28 26
14 15 14 11 10 12 13 15 16 17 17 18 18 19 20 21 20 19 19 18 19 21 23 24 23 23 22 24 25 25 23 23 21 21 23 23 24 24 26 26 29 28 26
15 14 12 11 11 12 14 16 17 17 17 18 19 21 23 24 24 23 24 27 27 26 27 26 28 25 26 26 24 23 21 18 18 21 24 25 27 27 27 28 30 30 27
15 14 12 12 12 13 14 16 17 17 17 18 19 21 24 25 24 21 23 25 24 25 26 28 28 28 28 25 23 20 19 18 20 23 25 27 29 30 29 29 31 28 24
14 12 12 13 14 15 16 16 16 16 16 16 17 18 19 20 22 22 22 23 23 24 26 29 30 27 23 21 21 21 20 21 23 26 28 27 30 30 29 31 28 30 29
12 12 12 14 15 16 16 18 20 19 18 18 19 18 16 20 21 21 23 23 24 24 29 28 25 24 25 27 29 30 31 31 31 30 30 28 27 26 27 29 29 29 27
13 12 13 14 15 15 17 17 18 21 23 22 19 19 19 20 20 20 20 23 27 23 22 23 24 25 27 27 27 29 30 31 30 29 28 27 27 28 28 28 30 30 27
13 13 13 14 15 15 15 16 18 19 20 22 23 21 22 22 19 20 21 24 24 24 23 24 24 25 26 29 30 31 31 29 26 25 28 31 32 29 26 26 29 27 27
14 13 14 14 14 15 15 17 18 19 20 21 23 23 25 23 24 25 24 23 23 24 24 25 25 26 27 27 27 27 27 27 28 26 25 24 24 22 23 27 28 29 30
14 13 13 14 14 15 16 17 18 19 21 22 22 21 18 20 22 23 23 23 23 23 25 26 27 28 28 28 28 27 26 26 25 24 24 23 22 23 26 27 26 28 29
15 14 13 14 15 15 16 16 17 19 20 21 20 18 17 18 20 21 22 23 23 24 25 27 28 28 28 27 26 27 27 27 27 26 25 25 25 26 26 24 29 31 29
16 15 14 15 15 14 15 16 16 17 19 18 18 18 18 18 20 21 23 23 23 26 26 27 28 28 27 26 25 25 26 26 25 24 25 26 26 27 26 28 26 25 27
16 15 15 15 14 14 15 17 16 16 17 17 17 17 16 18 19 21 22 23 25 26 27 27 28 28 26 25 25 24 25 24 23 23 22 23 23 23 23 22 22 24 27
16 16 16 16 13 13 15 16 15 15 15 15 16 14 14 16 18 20 22 23 26 28 28 28 28 27 25 23 23 23 22 21 20 19 20 20 21 21 21 21 22 24 25
17 17 15 15 14 14 15 15 15 15 14 14 14 13 14 16 18 20 22 24 27 29 28 29 29 28 25 23 21 20 19 18 18 16 17 20 23 24 22 22 22 23 22

GFSGL_850_spd_120.txt.gz
Wind_Speed
6 9 11 11 12 14 14 14 14 14 14 14 14 13 11 9 7 7 7 8 8 9 9 8 8 9 12 13 14 14 12 13 17 24 23 24 23 26 26 25 23 23 27
7 8 10 12 14 14 16 17 15 15 14 13 14 14 13 13 12 11 11 11 10 9 9 10 10 12 12 13 13 14 16 18 20 24 26 26 27 25 27 28 26 22 23
9 9 10 12 14 16 17 17 17 17 15 15 14 12 11 11 12 11 12 12 12 12 11 10 10 10 11 11 11 13 13 14 16 21 26 27 24 23 25 25 27 25 24
11 11 11 13 14 16 17 18 18 18 17 15 13 12 10 9 9 11 11 9 8 8 9 10 11 11 11 11 12 13 13 15 17 19 20 21 22 21 21 26 29 25 27
13 12 12 13 14 16 17 17 17 15 13 13 13 12 11 11 11 10 12 11 11 10 9 10 9 8 6 7 10 13 13 14 15 17 18 19 21 23 25 25 27 28 27
15 14 14 14 14 16 17 17 14 12 12 12 12 11 11 11 12 12 12 11 12 12 11 10 9 7 7 8 10 13 14 17 18 18 18 21 21 21 23 24 26 27 30
16 16 15 14 15 17 17 15 11 11 11 12 12 12 12 12 10 10 10 10 11 12 12 12 11 10 10 11 11 15 16 15 15 15 18 18 20 20 23 27 26 26 28
17 16 15 15 16 17 17 13 10 10 10 11 11 12 11 11 12 12 11 13 14 13 13 14 14 14 13 13 12 15 19 19 17 17 17 18 18 22 23 23 24 26 28
18 17 15 15 16 17 16 12 11 11 11 12 12 12 11 11 11 11 11 14 16 17 17 16 15 16 15 13 13 16 20 21 18 17 18 18 18 21 22 23 23 24 27
17 16 15 16 17 16 13 11 12 13 13 14 13 14 13 13 12 13 15 17 19 19 18 17 18 19 18 16 16 18 22 22 21 22 21 20 20 22 22 20 20 21 22
17 16 16 16 17 14 11 11 12 13 14 14 14 14 14 14 14 16 17 18 18 19 21 23 23 21 19 17 17 22 23 23 20 22 24 23 23 25 24 22 21 21 24
16 16 16 16 15 13 12 11 13 14 15 15 14 14 14 15 15 17 17 15 15 18 22 23 23 21 20 21 21 21 23 24 25 26 26 25 23 25 24 24 24 24 24
16 16 15 15 14 12 12 11 13 13 14 14 16 17 17 16 17 16 15 16 18 19 22 23 22 23 22 21 23 23 22 24 26 26 25 23 23 25 26 26 26 27 28
16 16 15 14 13 12 12 13 14 14 14 14 15 17 18 20 19 18 19 23 24 24 25 25 27 25 25 26 24 20 18 18 18 18 20 20 22 25 27 27 29 28 30
15 15 15 13 12 12 13 13 14 14 15 14 16 17 19 19 18 17 19 21 22 23 23 26 28 27 27 23 20 18 16 16 18 17 20 24 27 28 29 30 27 26 28
15 15 14 13 12 13 14 14 13 14 13 14 15 16 17 16 15 17 19 19 19 20 23 26 27 24 22 22 22 23 24 26 27 28 29 29 29 29 29 28 25 25 27
15 14 13 13 13 13 15 15 16 13 14 14 15 15 14 15 15 17 18 18 20 22 23 22 22 22 22 22 24 25 26 25 26 26 27 28 27 26 24 26 27 26 27
15 14 13 13 14 14 15 16 16 16 18 17 14 15 15 15 16 15 16 18 21 19 20 22 23 24 24 25 25 25 27 27 28 28 24 21 21 24 29 31 30 27 25
16 14 14 14 14 15 16 16 16 17 17 18 18 15 15 16 15 15 15 18 20 22 21 22 23 24 25 26 26 26 27 28 27 25 26 26 26 24 24 25 23 21 23
16 15 15 15 15 15 16 17 17 17 18 18 18 18 18 17 18 17 17 18 20 21 22 23 25 26 27 27 27 27 27 27 27 27 26 24 22 22 23 24 23 24 27
17 16 16 16 15 15 16 17 18 18 18 19 19 17 15 16 17 17 18 19 20 21 22 25 27 28 28 28 29 29 29 29 28 27 26 25 24 24 23 24 25 27 25
18 17 17 16 16 16 17 18 18 18 18 19 18 16 15 15 15 16 17 19 19 20 23 26 28 28 28 28 28 29 30 30 29 28 27 26 25 25 24 25 26 26 27
19 18 18 16 16 17 17 17 17 17 18 17 17 16 15 14 14 16 17 18 19 22 24 26 27 28 27 26 27 27 29 29 28 27 27 27 26 26 25 25 24 25 25
20 20 19 17 17 17 18 17 16 16 17 16 16 15 14 13 14 15 17 19 20 22 24 26 27 27 27 27 26 27 28 27 26 26 25 24 24 22 22 23 23 23 25
21 20 19 18 17 17 17 17 17 16 16 16 15 14 13 12 13 14 16 18 20 23 25 26 27 26 27 27 27 25 25 24 24 23 23 22 21 20 21 23 24 24 24
22 21 19 18 17 16 17 16 16 15 16 15 14 14 12 11 12 14 16 18 21 24 25 26 27 27 27 26 26 25 24 22 21 19 20 22 23 23 23 24 22 23 25

GFSGL_850_spd_126.txt.gz
Wind_Speed
12 12 12 12 13 14 15 17 18 19 20 20 20 17 15 15 14 14 14 14 13 12 12 12 12 12 12 11 11 8 10 12 13 17 19 21 23 23 24 24 25 24 22
14 14 13 14 14 14 16 17 18 19 19 18 16 16 14 13 13 12 13 14 12 11 10 11 11 11 11 10 9 9 10 11 12 15 17 18 18 20 20 22 22 23 25
18 17 16 15 15 15 16 17 19 20 19 17 15 15 15 15 15 15 14 12 12 13 13 13 13 12 11 10 10 10 11 11 12 14 17 17 18 20 20 19 19 20 18
21 19 18 17 16 16 16 18 19 20 20 16 14 13 13 12 12 13 13 12 11 11 11 11 11 11 10 11 12 11 11 12 13 13 14 15 16 18 20 22 21 21 19
24 22 19 18 18 17 17 18 18 19 18 15 13 13 12 12 12 12 12 12 12 12 11 10 10 9 9 10 11 11 12 13 13 14 14 16 17 19 21 21 23 25 20
27 25 21 20 19 18 18 18 18 18 16 14 13 12 12 12 12 12 12 12 13 14 13 12 11 11 11 11 12 12 12 14 15 15 16 16 17 18 19 19 22 25 27
27 25 24 22 21 19 19 18 18 18 15 13 13 13 12 11 11 11 13 13 15 15 17 17 16 15 14 12 11 11 13 14 15 17 19 18 19 17 19 20 22 23 23
26 26 26 24 22 20 19 18 18 17 15 13 13 13 13 13 12 11 14 15 15 16 17 17 18 17 17 16 16 18 17 16 16 17 18 20 20 18 17 18 22 24 26
27 27 26 24 21 19 19 18 19 18 15 14 14 14 14 13 13 13 14 17 17 18 18 17 18 19 19 16 18 20 20 20 17 17 18 20 21 20 17 22 21 24 28
26 25 24 22 20 19 17 18 19 18 15 15 15 16 16 14 14 14 15 18 18 18 17 17 18 19 18 16 17 19 23 23 21 20 19 20 21 19 18 20 21 23 23
23 22 23 21 20 19 18 18 17 17 16 16 17 16 16 16 15 16 16 17 18 18 19 20 20 19 17 17 17 20 23 21 23 25 27 27 27 26 25 24 23 23 22
20 22 22 20 20 19 18 18 17 15 16 17 17 17 16 16 16 17 16 16 14 16 20 21 21 19 19 19 19 20 20 20 24 26 27 27 25 23 21 20 20 23 24
21 22 21 21 20 20 19 18 17 16 15 16 18 17 18 16 16 17 16 15 15 15 18 20 19 20 19 23 25 23 21 22 21 21 22 23 23 22 22 21 22 24 27
21 21 21 20 20 19 20 19 17 16 16 15 17 18 19 19 18 17 16 16 18 19 20 20 23 23 25 24 22 19 18 18 19 19 21 23 25 25 26 26 29 31 34
22 21 21 19 20 19 19 19 17 16 17 15 16 18 19 20 19 19 16 17 18 20 18 22 25 25 23 22 20 19 18 18 19 20 21 23 25 26 27 27 28 29 31
23 22 21 19 20 20 20 19 18 16 17 16 16 18 19 20 21 19 15 16 16 16 19 22 24 23 22 21 21 21 20 20 20 21 21 21 23 24 26 27 26 26 26
22 20 19 19 19 20 20 20 17 17 16 15 15 17 19 20 20 19 16 16 15 16 20 20 21 21 21 21 22 23 25 24 24 24 24 24 24 25 25 25 25 25 27
20 19 19 19 19 21 21 19 18 17 17 15 14 16 19 20 19 19 15 15 18 16 17 18 19 20 21 22 24 25 26 26 26 26 26 25 24 24 26 27 27 27 28
20 21 19 17 21 20 21 20 19 18 18 17 15 15 17 18 18 17 13 16 17 17 17 17 18 19 22 24 25 25 26 26 26 26 27 27 27 26 27 27 27 27 27
21 21 21 20 20 20 21 21 20 19 18 17 16 16 17 18 18 16 14 15 15 16 17 18 18 20 23 24 25 26 27 26 27 27 27 27 26 26 27 26 26 27 27
23 23 23 21 20 20 21 22 21 20 19 18 16 16 18 19 19 17 16 14 15 16 17 18 19 21 24 24 25 26 27 29 28 28 28 28 27 28 27 27 26 26 27
22 23 24 23 18 20 22 20 21 21 19 19 18 17 18 19 18 18 16 15 15 16 17 19 21 22 24 24 25 26 28 29 28 27 28 29 29 28 27 27 27 27 27
23 23 24 25 23 21 22 22 22 20 20 19 19 18 18 18 18 17 15 15 16 15 16 17 20 22 22 23 24 25 26 27 27 27 30 32 32 30 29 28 26 26 25
25 23 21 26 26 24 24 22 22 20 21 20 19 19 19 18 17 16 15 15 15 15 16 17 19 21 21 22 23 23 24 26 27 30 31 32 31 29 29 28 26 26 26
26 27 23 27 26 26 24 23 23 20 21 21 19 19 19 18 17 16 14 15 15 16 16 17 18 20 20 21 22 22 24 25 26 26 26 27 28 25 24 24 24 24 25
26 24 24 26 26 25 24 25 22 21 22 20 19 19 18 17 16 15 14 14 15 16 17 17 18 19 20 21 21 23 25 26 27 24 24 23 22 20 19 20 21 22 23

GFSGL_850_spd_129.txt.gz
Wind_Speed
18 17 15 14 13 12 13 14 15 17 19 19 18 17 16 15 15 15 15 14 14 13 12 12 13 13 13 12 11 10 8 7 8 12 13 18 23 27 25 23 23 20 18
20 20 18 16 15 14 14 14 15 17 19 19 17 15 15 14 13 12 13 13 12 12 13 13 13 12 12 12 11 11 10 9 8 10 12 13 14 14 16 17 17 17 18
24 22 20 18 17 16 15 16 16 17 17 18 16 14 14 13 13 13 12 11 12 12 12 12 13 13 12 12 12 11 11 11 11 12 13 14 16 16 16 15 16 14 14
27 26 24 21 19 18 17 16 15 16 17 17 14 13 13 13 13 12 13 12 11 11 11 12 13 13 12 12 13 13 13 13 14 14 13 14 15 17 19 20 19 16 15
31 30 28 23 21 20 19 17 16 16 16 16 14 12 12 12 12 13 13 13 13 13 12 12 11 11 12 13 13 13 13 13 14 14 15 16 17 19 19 20 21 21 17
31 32 29 26 24 22 20 18 17 17 17 16 13 12 11 12 12 13 13 13 13 14 14 14 14 14 12 11 12 12 11 10 13 16 17 15 16 16 17 19 19 20 19
24 30 30 29 27 24 21 20 19 17 17 16 14 12 11 11 12 12 15 13 13 14 15 16 16 14 14 14 13 14 15 15 15 16 17 16 20 19 19 20 20 21 22
22 27 29 30 29 26 24 22 20 18 17 16 15 14 13 11 11 12 14 14 15 15 17 16 16 16 16 16 16 17 18 17 16 17 19 20 19 19 18 21 22 23 27
26 27 30 30 30 28 25 22 20 19 17 17 15 15 14 13 12 12 13 15 16 15 16 16 15 17 17 15 16 18 19 18 17 16 17 19 21 20 17 20 22 24 22
27 26 28 30 29 27 23 21 20 19 17 17 16 15 15 12 13 13 13 16 16 17 17 16 13 15 16 14 15 18 22 22 21 19 18 20 21 21 21 21 24 26 22
24 23 24 26 27 25 22 22 19 19 18 17 16 15 16 14 13 14 13 14 16 17 14 16 16 15 15 14 15 18 20 21 22 25 26 25 24 23 20 19 20 21 22
23 21 21 24 26 25 22 20 19 19 18 17 17 16 17 15 15 15 15 14 14 14 16 17 19 15 16 16 15 19 21 21 22 25 26 24 21 20 19 19 18 17 17
23 21 21 23 25 23 22 20 19 19 18 17 17 16 16 16 15 15 17 15 14 14 16 17 17 17 16 18 20 19 18 19 20 21 22 22 21 22 22 21 21 23 24
23 22 21 24 24 23 22 21 20 20 19 17 17 17 17 16 16 16 16 15 15 15 16 17 18 18 19 21 20 18 17 17 18 19 21 23 24 24 24 24 25 25 26
23 22 22 23 24 23 22 20 19 18 19 18 17 18 18 17 16 17 16 14 15 15 15 20 22 21 21 19 17 16 17 17 18 19 21 22 22 23 24 24 25 26 27
23 22 23 24 24 23 21 20 19 19 19 18 18 18 17 18 16 17 17 13 14 12 14 20 21 20 19 18 18 17 17 18 19 21 21 22 23 24 25 25 25 25 26
22 21 22 25 24 23 22 19 21 20 20 19 19 17 18 18 18 18 18 14 13 12 15 18 19 18 19 18 18 20 21 21 21 22 23 23 23 24 24 25 25 26 28
19 21 23 24 23 21 23 20 21 20 21 20 18 17 18 18 19 18 17 15 15 13 16 17 17 17 18 19 20 21 22 22 23 24 24 24 24 25 25 26 27 27 27
19 22 23 23 23 24 22 21 22 22 21 20 19 17 17 18 18 18 16 16 15 15 15 15 15 17 18 20 21 22 23 23 24 25 26 27 27 26 26 26 26 27 26
18 21 23 25 25 26 21 23 24 24 22 22 19 17 16 18 18 16 16 15 15 15 15 16 16 17 18 20 22 22 24 24 25 27 26 25 25 24 27 26 27 28 28
24 24 26 28 30 25 24 24 24 23 24 23 19 17 17 18 18 17 15 14 15 15 14 16 16 17 19 20 22 22 23 25 26 26 25 25 26 28 28 28 27 28 29
25 25 27 29 26 26 27 27 24 25 23 23 20 18 18 18 18 17 15 14 15 14 14 16 16 17 19 21 22 22 25 26 26 26 27 28 29 30 30 31 30 29 29
27 25 25 28 28 26 27 28 27 26 24 22 20 20 18 18 18 16 15 15 15 14 14 15 16 18 19 20 21 21 24 25 25 26 28 30 31 32 32 33 31 30 29
31 29 28 27 27 27 28 28 30 26 25 23 21 20 19 18 18 16 14 15 15 14 14 15 16 18 20 20 21 21 22 22 23 26 29 30 32 32 30 31 29 27 26
33 31 29 30 29 27 28 28 29 27 25 24 22 21 19 18 18 15 14 15 14 14 13 14 16 17 19 20 20 21 20 21 23 25 28 28 28 27 26 25 24 24 24
33 34 33 31 30 27 27 28 28 26 24 23 22 20 18 19 17 15 14 14 14 14 14 14 15 17 18 19 20 19 19 22 24 25 27 26 23 23 22 21 21 22 23